[[{"header":{"parameterUnit":"m.s-1","parameterCategory":1,"la1":31.0,"la2":29.5877,"lo1":-88.7671,"lo2":-86.6584,"dx":0.0162,"dy":0.0185,"nx":115,"ny":88,"refTime":"2023-01-22T06:00:00:Z","depth":0,"parameterNumber":2,"parameterNumberName":"U-component_of_WINDS"},"data":[0.0,0.0,0.0,0.0,0.0,0.0,0.0,0.0,0.0,0.0,0.0,0.0,0.0,0.0,0.0,0.0,0.0,0.0,0.0,0.0,0.0,0.0,0.0,0.0,0.0,0.0,0.0,0.0,0.0,0.0,0.0,0.0,0.0,0.0,0.0,0.0,0.0,0.0,0.0,0.0,0.0,0.0,0.0,0.0,0.0,0.0,0.0,0.0,0.0,0.0,0.0,0.0,0.0,0.0,0.0,0.0,0.0,0.0,0.0,0.0,0.0,0.0,0.0,0.0,0.0,0.0,0.0,0.0,0.0,0.0,0.0,0.0,0.0,0.0,0.0,0.0,0.0,0.0,0.0,0.0,0.0,0.0,0.0,0.0,0.0,0.0,0.0,0.0,0.0,0.0,0.0,0.0,0.0,0.0,0.0,0.0,0.0,0.0,0.0,0.0,0.0,0.0,0.0,0.0,0.0,0.0,0.0,0.0,0.0,0.0,0.0,0.0,0.0,0.0,0.0,0.0,0.0,0.0,0.0,0.0,0.0,0.0,0.0,0.0,0.0,0.0,0.0,0.0,0.0,0.0,0.0,0.0,0.0,0.0,0.0,0.0,0.0,0.0,0.0,0.0,0.0,0.0,0.0,0.0,0.0,0.0,0.0,0.0,0.0,0.0,0.0,0.0,0.0,0.0,0.0,0.0,0.0,0.0,0.0,0.0,0.0,0.0,0.0,0.0,0.0,0.0,0.0,0.0,0.0,0.0,0.0,0.0,0.0,0.0,0.0,0.0,0.0,0.0,0.0,0.0,0.0,0.0,0.0,0.0,0.0,0.0,0.0,0.0,0.0,0.0,0.0,0.0,0.0,0.0,0.0,0.0,0.0,0.0,0.0,0.0,0.0,0.0,0.0,0.0,0.0,0.0,0.0,0.0,0.0,0.0,0.0,0.0,0.0,0.0,0.0,0.0,0.0,0.0,0.0,0.0,0.0,0.0,0.0,0.0,0.0,0.0,0.0,0.0,0.0,0.0,0.0,0.0,0.0,0.0,0.0,0.0,0.0,0.0,0.0,0.0,0.0,0.0,0.0,0.0,0.0,0.0,0.0,0.0,0.0,0.0,0.0,0.0,0.0,0.0,0.0,0.0,0.0,0.0,0.0,0.0,0.0,0.0,0.0,0.0,0.0,0.0,0.0,0.0,0.0,0.0,0.0,0.0,0.0,0.0,0.0,0.0,0.0,0.0,0.0,0.0,0.0,0.0,0.0,0.0,0.0,0.0,0.0,0.0,0.0,0.0,0.0,0.0,0.0,0.0,0.0,0.0,0.0,0.0,0.0,0.0,0.0,0.0,0.0,0.0,0.0,0.0,0.0,0.0,0.0,0.0,0.0,0.0,0.0,0.0,0.0,0.0,0.0,0.0,0.0,0.0,0.0,0.0,0.0,0.0,0.0,0.0,0.0,0.0,0.0,0.0,0.0,0.0,0.0,0.0,0.0,0.0,0.0,0.0,0.0,0.0,0.0,0.0,0.0,0.0,0.0,0.0,0.0,0.0,0.0,0.0,0.0,0.0,0.0,0.0,0.0,0.0,0.0,0.0,0.0,0.0,0.0,0.0,0.0,0.0,0.0,0.0,0.0,0.0,0.0,0.0,0.0,0.0,0.0,0.0,0.0,0.0,0.0,0.0,0.0,0.0,0.0,0.0,0.0,0.0,0.0,0.0,0.0,0.0,0.0,0.0,0.0,0.0,0.0,0.0,0.0,0.0,0.0,0.0,0.0,0.0,0.0,0.0,0.0,0.0,0.0,0.0,0.0,0.0,0.0,0.0,0.0,0.0,0.0,0.0,0.0,0.0,0.0,0.0,0.0,0.0,0.0,0.0,0.0,0.0,0.0,0.0,0.0,0.0,0.0,0.0,0.0,0.0,0.0,0.0,0.0,0.0,0.0,0.0,0.0,0.0,0.0,0.0,0.0,0.0,0.0,0.0,0.0,0.0,0.0,0.0,0.0,0.0,0.0,0.0,0.0,0.0,0.0,0.0,0.0,0.0,0.0,0.0,0.0,0.0,0.0,0.0,0.0,0.0,0.0,0.0,0.0,0.0,0.0,0.0,0.0,0.0,0.0,0.0,0.0,0.0,0.0,0.0,0.0,0.0,0.0,0.0,0.0,0.0,0.0,0.0,0.0,0.0,0.0,0.0,0.0,0.0,0.0,0.0,0.0,0.0,0.0,0.0,0.0,0.0,0.0,0.0,0.0,0.0,0.0,0.0,0.0,0.0,0.0,0.0,0.0,0.0,0.0,0.0,0.0,0.0,0.0,0.0,0.0,0.0,0.0,0.0,0.0,0.0,0.0,0.0,0.0,0.0,0.0,0.0,0.0,0.0,0.0,0.0,0.0,0.0,0.0,0.0,0.0,0.0,0.0,0.0,0.0,0.0,0.0,0.0,0.0,0.0,0.0,0.0,0.0,0.0,0.0,0.0,0.0,0.0,0.0,0.0,0.0,0.0,0.0,0.0,0.0,0.0,0.0,0.0,0.0,0.0,0.0,0.0,0.0,0.0,0.0,0.0,0.0,0.0,0.0,0.0,0.0,0.0,0.0,0.0,0.0,0.0,0.0,0.0,0.0,0.0,0.0,0.0,0.0,0.0,0.0,0.0,0.0,0.0,0.0,0.0,0.0,0.0,0.0,0.0,0.0,0.0,0.0,0.0,0.0,0.0,0.0,0.0,0.0,0.0,0.0,0.0,0.0,0.0,0.0,0.0,0.0,0.0,0.0,0.0,0.0,0.0,0.0,0.0,0.0,0.0,0.0,0.0,0.0,0.0,0.0,0.0,0.0,0.0,0.0,0.0,0.0,0.0,0.0,0.0,0.0,0.0,0.0,0.0,0.0,0.0,0.0,0.0,0.0,0.0,0.0,0.0,0.0,0.0,0.0,0.0,0.0,0.0,0.0,0.0,0.0,0.0,0.0,0.0,0.0,0.0,0.0,0.0,0.0,0.0,0.0,0.0,0.0,0.0,0.0,0.0,0.0,0.0,0.0,0.0,0.0,0.0,0.0,0.0,0.0,0.0,0.0,0.0,0.0,0.0,0.0,0.0,0.0,0.0,0.0,0.0,0.0,0.0,0.0,0.0,0.0,0.0,0.0,0.0,0.0,0.0,0.0,0.0,0.0,0.0,0.0,0.0,0.0,0.0,0.0,0.0,0.0,0.0,0.0,0.0,0.0,0.0,0.0,0.0,0.0,0.0,0.0,0.0,0.0,0.0,0.0,0.0,0.0,0.0,0.0,0.0,0.0,0.0,0.0,0.0,0.0,0.0,0.0,0.0,0.0,0.0,0.0,0.0,0.0,0.0,0.0,0.0,0.0,0.0,0.0,0.0,0.0,0.0,0.0,0.0,0.0,0.0,0.0,0.0,0.0,0.0,0.0,0.0,0.0,0.0,0.0,0.0,0.0,0.0,0.0,0.0,0.0,0.0,0.0,0.0,0.0,0.0,0.0,0.0,0.0,0.0,0.0,0.0,0.0,0.0,0.0,0.0,0.0,0.0,0.0,0.0,0.0,0.0,0.0,0.0,0.0,0.0,0.0,0.0,0.0,0.0,0.0,0.0,0.0,0.0,0.0,0.0,0.0,0.0,0.0,0.0,0.0,0.0,0.0,0.0,0.0,0.0,0.0,0.0,0.0,0.0,0.0,0.0,0.0,0.0,0.0,0.0,0.0,0.0,0.0,0.0,0.0,0.0,0.0,0.0,0.0,0.0,0.0,0.0,0.0,0.0,0.0,0.0,0.0,0.0,0.0,0.0,0.0,0.0,0.0,0.0,0.0,0.0,0.0,0.0,0.0,0.0,0.0,0.0,0.0,0.0,0.0,0.0,0.0,0.0,0.0,0.0,0.0,0.0,0.0,0.0,0.0,0.0,0.0,0.0,0.0,0.0,0.0,0.0,0.0,0.0,0.0,0.0,0.0,0.0,0.0,0.0,0.0,0.0,0.0,0.0,0.0,0.0,0.0,0.0,0.0,0.0,0.0,0.0,0.0,0.0,0.0,0.0,0.0,0.0,0.0,0.0,0.0,0.0,0.0,0.0,0.0,0.0,0.0,0.0,0.0,0.0,0.0,0.0,0.0,0.0,0.0,0.0,0.0,0.0,0.0,0.0,0.0,0.0,0.0,0.0,0.0,0.0,0.0,0.0,0.0,0.0,0.0,0.0,0.0,0.0,0.0,0.0,0.0,0.0,0.0,0.0,0.0,0.0,0.0,0.0,-3.626,0.0,0.0,0.0,-4.1321,0.0,0.0,0.0,0.0,0.0,0.0,0.0,0.0,0.0,0.0,0.0,0.0,0.0,0.0,0.0,0.0,0.0,0.0,0.0,0.0,0.0,0.0,0.0,0.0,0.0,0.0,0.0,0.0,0.0,0.0,0.0,0.0,0.0,0.0,0.0,0.0,0.0,0.0,0.0,0.0,0.0,0.0,0.0,0.0,0.0,0.0,0.0,0.0,0.0,0.0,0.0,0.0,0.0,0.0,0.0,0.0,0.0,0.0,0.0,0.0,0.0,0.0,0.0,0.0,0.0,0.0,0.0,0.0,0.0,0.0,0.0,0.0,0.0,0.0,0.0,0.0,0.0,0.0,0.0,0.0,0.0,0.0,0.0,0.0,0.0,0.0,0.0,0.0,0.0,0.0,0.0,0.0,0.0,0.0,0.0,0.0,0.0,0.0,0.0,0.0,0.0,0.0,0.0,0.0,0.0,0.0,0.0,0.0,0.0,0.0,-3.5777,-3.8203,-3.8565,-3.9541,-4.1304,0.0,0.0,0.0,0.0,0.0,0.0,0.0,0.0,0.0,0.0,0.0,0.0,0.0,0.0,0.0,0.0,0.0,0.0,0.0,0.0,0.0,0.0,0.0,0.0,0.0,0.0,0.0,0.0,0.0,0.0,0.0,0.0,0.0,0.0,0.0,0.0,0.0,0.0,0.0,0.0,0.0,0.0,0.0,0.0,0.0,0.0,0.0,0.0,0.0,0.0,0.0,0.0,0.0,0.0,0.0,0.0,0.0,0.0,0.0,0.0,0.0,0.0,0.0,0.0,0.0,0.0,0.0,0.0,0.0,0.0,0.0,0.0,0.0,0.0,0.0,0.0,0.0,0.0,0.0,0.0,0.0,0.0,0.0,0.0,0.0,0.0,0.0,0.0,0.0,0.0,0.0,0.0,0.0,0.0,0.0,0.0,0.0,0.0,0.0,0.0,0.0,0.0,0.0,0.0,0.0,0.0,0.0,0.0,0.0,0.0,0.0,0.0,-3.8369,-3.9541,-4.1497,0.0,0.0,0.0,0.0,0.0,0.0,0.0,0.0,0.0,0.0,0.0,0.0,0.0,0.0,0.0,0.0,0.0,0.0,0.0,0.0,0.0,0.0,0.0,0.0,0.0,0.0,0.0,0.0,0.0,0.0,0.0,0.0,0.0,0.0,0.0,0.0,0.0,0.0,0.0,0.0,0.0,0.0,0.0,0.0,0.0,0.0,0.0,0.0,0.0,0.0,0.0,0.0,0.0,0.0,0.0,0.0,0.0,0.0,0.0,0.0,0.0,0.0,0.0,0.0,0.0,0.0,0.0,0.0,0.0,0.0,0.0,0.0,0.0,0.0,0.0,0.0,0.0,0.0,0.0,0.0,0.0,0.0,0.0,0.0,0.0,0.0,0.0,0.0,0.0,0.0,0.0,0.0,0.0,0.0,0.0,0.0,0.0,0.0,0.0,0.0,0.0,0.0,0.0,0.0,0.0,0.0,0.0,0.0,0.0,0.0,-3.5167,-3.6809,-3.8037,0.0,-4.246,0.0,0.0,0.0,0.0,0.0,0.0,0.0,0.0,0.0,0.0,0.0,0.0,0.0,0.0,0.0,0.0,0.0,0.0,0.0,0.0,0.0,0.0,0.0,0.0,0.0,0.0,0.0,0.0,0.0,0.0,0.0,0.0,0.0,0.0,0.0,0.0,0.0,0.0,0.0,0.0,0.0,0.0,0.0,0.0,0.0,0.0,0.0,0.0,0.0,0.0,0.0,0.0,0.0,0.0,0.0,0.0,0.0,0.0,0.0,0.0,0.0,0.0,0.0,0.0,0.0,0.0,0.0,0.0,0.0,0.0,0.0,0.0,0.0,0.0,0.0,0.0,0.0,0.0,0.0,0.0,0.0,0.0,0.0,0.0,0.0,0.0,0.0,0.0,0.0,0.0,0.0,0.0,0.0,0.0,0.0,0.0,0.0,0.0,0.0,0.0,0.0,0.0,0.0,0.0,0.0,0.0,0.0,0.0,0.0,0.0,-3.4714,-3.6597,-3.858,-4.0627,0.0,0.0,0.0,0.0,0.0,0.0,0.0,0.0,0.0,0.0,0.0,0.0,0.0,0.0,0.0,0.0,0.0,0.0,0.0,0.0,0.0,0.0,0.0,0.0,0.0,0.0,0.0,0.0,0.0,0.0,0.0,0.0,0.0,0.0,0.0,0.0,0.0,0.0,0.0,0.0,0.0,0.0,0.0,0.0,0.0,0.0,0.0,0.0,0.0,0.0,0.0,0.0,0.0,0.0,0.0,0.0,0.0,0.0,0.0,0.0,0.0,0.0,0.0,0.0,0.0,0.0,0.0,0.0,0.0,0.0,0.0,0.0,0.0,0.0,0.0,0.0,0.0,0.0,0.0,0.0,0.0,0.0,0.0,0.0,0.0,0.0,0.0,0.0,0.0,0.0,0.0,0.0,0.0,0.0,0.0,0.0,0.0,0.0,0.0,0.0,0.0,0.0,0.0,0.0,0.0,0.0,0.0,0.0,0.0,0.0,-3.3466,-3.4474,-3.6992,-3.9245,-4.1163,-4.258,0.0,0.0,0.0,0.0,0.0,0.0,0.0,0.0,0.0,0.0,0.0,0.0,0.0,0.0,0.0,0.0,0.0,0.0,0.0,0.0,0.0,0.0,0.0,0.0,0.0,0.0,0.0,0.0,0.0,0.0,0.0,0.0,0.0,0.0,0.0,0.0,0.0,0.0,0.0,0.0,0.0,0.0,0.0,0.0,0.0,0.0,0.0,0.0,0.0,0.0,0.0,0.0,0.0,0.0,0.0,0.0,0.0,0.0,0.0,0.0,0.0,0.0,0.0,0.0,0.0,0.0,0.0,0.0,0.0,0.0,0.0,0.0,0.0,0.0,0.0,0.0,0.0,0.0,0.0,0.0,0.0,0.0,0.0,0.0,0.0,0.0,0.0,0.0,0.0,0.0,0.0,0.0,0.0,0.0,0.0,0.0,0.0,0.0,0.0,0.0,0.0,0.0,0.0,0.0,0.0,0.0,0.0,0.0,-3.34,-3.3479,-3.4871,-3.8022,-3.948,-4.1016,0.0,0.0,0.0,0.0,0.0,0.0,0.0,0.0,0.0,0.0,0.0,0.0,0.0,0.0,0.0,0.0,0.0,0.0,0.0,0.0,0.0,0.0,0.0,0.0,0.0,0.0,0.0,0.0,0.0,0.0,0.0,0.0,0.0,0.0,0.0,0.0,0.0,0.0,0.0,0.0,0.0,0.0,0.0,0.0,0.0,0.0,0.0,0.0,0.0,0.0,0.0,0.0,0.0,0.0,0.0,0.0,0.0,0.0,0.0,0.0,0.0,0.0,0.0,0.0,0.0,0.0,0.0,0.0,0.0,0.0,0.0,0.0,0.0,0.0,0.0,0.0,0.0,0.0,0.0,0.0,0.0,0.0,0.0,0.0,0.0,0.0,0.0,0.0,0.0,0.0,0.0,0.0,0.0,0.0,0.0,0.0,0.0,0.0,0.0,0.0,0.0,0.0,0.0,0.0,0.0,0.0,0.0,0.0,0.0,-3.3414,-3.464,-3.6545,-3.8752,-3.9439,-4.0681,0.0,0.0,0.0,0.0,0.0,0.0,0.0,0.0,0.0,0.0,0.0,0.0,0.0,0.0,0.0,0.0,0.0,0.0,0.0,0.0,0.0,0.0,0.0,0.0,0.0,0.0,0.0,0.0,0.0,0.0,0.0,0.0,0.0,0.0,0.0,0.0,0.0,0.0,0.0,0.0,0.0,0.0,0.0,0.0,0.0,0.0,0.0,0.0,0.0,0.0,0.0,0.0,0.0,0.0,0.0,0.0,0.0,0.0,0.0,0.0,0.0,0.0,0.0,0.0,0.0,0.0,0.0,0.0,0.0,0.0,0.0,0.0,0.0,0.0,0.0,0.0,0.0,0.0,0.0,0.0,0.0,0.0,0.0,0.0,0.0,0.0,0.0,0.0,0.0,0.0,0.0,0.0,0.0,0.0,0.0,0.0,0.0,0.0,0.0,0.0,0.0,0.0,0.0,0.0,0.0,0.0,0.0,0.0,0.0,-3.3521,0.0,-3.7584,-3.869,-3.9366,-4.088,0.0,0.0,0.0,0.0,0.0,0.0,0.0,0.0,0.0,0.0,0.0,0.0,0.0,0.0,0.0,0.0,0.0,0.0,0.0,0.0,0.0,0.0,0.0,0.0,0.0,0.0,0.0,0.0,0.0,0.0,0.0,0.0,0.0,0.0,0.0,0.0,0.0,0.0,0.0,0.0,0.0,0.0,0.0,0.0,0.0,0.0,0.0,0.0,0.0,0.0,0.0,0.0,0.0,0.0,0.0,0.0,0.0,0.0,0.0,0.0,0.0,0.0,0.0,0.0,0.0,0.0,0.0,0.0,0.0,0.0,0.0,0.0,0.0,0.0,0.0,0.0,0.0,0.0,0.0,0.0,0.0,0.0,0.0,0.0,0.0,0.0,0.0,0.0,0.0,0.0,0.0,0.0,0.0,0.0,0.0,0.0,0.0,0.0,0.0,0.0,0.0,0.0,0.0,0.0,0.0,0.0,0.0,0.0,-3.3333,-3.3545,-3.6054,-3.7491,-3.7592,-3.9485,-4.1265,0.0,0.0,0.0,0.0,0.0,0.0,0.0,0.0,0.0,0.0,0.0,0.0,0.0,0.0,0.0,0.0,0.0,0.0,0.0,0.0,0.0,0.0,0.0,0.0,0.0,0.0,0.0,0.0,0.0,0.0,0.0,0.0,0.0,0.0,0.0,0.0,0.0,0.0,0.0,0.0,0.0,0.0,0.0,0.0,0.0,0.0,0.0,0.0,0.0,0.0,0.0,0.0,0.0,0.0,0.0,0.0,0.0,0.0,0.0,0.0,0.0,0.0,0.0,0.0,0.0,0.0,0.0,0.0,0.0,0.0,0.0,0.0,0.0,0.0,0.0,0.0,0.0,0.0,0.0,0.0,0.0,0.0,0.0,0.0,0.0,0.0,0.0,0.0,0.0,0.0,0.0,0.0,0.0,0.0,0.0,0.0,0.0,0.0,0.0,0.0,0.0,0.0,0.0,0.0,0.0,0.0,0.0,0.0,0.0,-3.4082,-3.5949,-3.7389,-3.8163,-3.9662,-4.1012,0.0,0.0,0.0,0.0,0.0,0.0,0.0,0.0,0.0,0.0,0.0,0.0,0.0,0.0,0.0,0.0,0.0,0.0,0.0,0.0,0.0,0.0,0.0,0.0,0.0,0.0,0.0,0.0,0.0,0.0,0.0,0.0,0.0,0.0,0.0,0.0,0.0,0.0,0.0,0.0,0.0,0.0,0.0,0.0,0.0,0.0,0.0,0.0,0.0,0.0,0.0,0.0,0.0,0.0,0.0,0.0,0.0,0.0,0.0,0.0,0.0,0.0,0.0,0.0,0.0,0.0,0.0,0.0,0.0,0.0,0.0,0.0,0.0,0.0,0.0,0.0,0.0,0.0,0.0,0.0,0.0,0.0,0.0,0.0,0.0,0.0,0.0,0.0,0.0,0.0,0.0,0.0,0.0,0.0,0.0,0.0,0.0,0.0,0.0,0.0,0.0,0.0,0.0,0.0,0.0,0.0,0.0,0.0,0.0,-3.475,-3.6287,-3.7688,-3.8766,-3.9822,-4.0931,-4.2514,0.0,0.0,0.0,0.0,0.0,0.0,0.0,0.0,0.0,0.0,0.0,0.0,0.0,0.0,0.0,0.0,0.0,0.0,0.0,0.0,0.0,0.0,0.0,0.0,0.0,0.0,0.0,0.0,0.0,0.0,0.0,0.0,0.0,0.0,0.0,0.0,0.0,0.0,0.0,0.0,0.0,0.0,0.0,0.0,0.0,0.0,0.0,0.0,0.0,0.0,0.0,0.0,0.0,0.0,0.0,0.0,0.0,0.0,0.0,0.0,0.0,0.0,0.0,0.0,0.0,0.0,0.0,0.0,0.0,0.0,0.0,0.0,0.0,0.0,0.0,0.0,0.0,0.0,0.0,0.0,0.0,0.0,0.0,0.0,0.0,0.0,0.0,0.0,0.0,0.0,0.0,0.0,0.0,0.0,0.0,0.0,0.0,0.0,0.0,0.0,0.0,0.0,0.0,0.0,0.0,0.0,0.0,0.0,-3.5178,-3.6965,-3.8354,-3.9531,-4.0074,-4.0937,0.0,0.0,0.0,0.0,0.0,0.0,0.0,0.0,0.0,0.0,0.0,0.0,0.0,0.0,0.0,0.0,0.0,0.0,0.0,0.0,0.0,0.0,0.0,0.0,0.0,0.0,0.0,0.0,0.0,0.0,0.0,0.0,0.0,0.0,0.0,0.0,0.0,0.0,0.0,0.0,0.0,0.0,0.0,0.0,0.0,0.0,0.0,0.0,0.0,0.0,0.0,0.0,0.0,0.0,0.0,0.0,0.0,0.0,0.0,0.0,0.0,0.0,0.0,0.0,0.0,0.0,0.0,0.0,0.0,0.0,0.0,0.0,0.0,0.0,0.0,0.0,0.0,0.0,0.0,0.0,0.0,0.0,0.0,0.0,0.0,0.0,0.0,0.0,0.0,0.0,0.0,0.0,0.0,0.0,0.0,0.0,0.0,0.0,0.0,0.0,0.0,0.0,0.0,0.0,0.0,0.0,0.0,0.0,0.0,-3.5952,-3.7033,-3.8679,-4.0157,-4.0217,-4.0639,0.0,0.0,0.0,0.0,0.0,0.0,0.0,0.0,0.0,0.0,0.0,0.0,0.0,0.0,0.0,0.0,0.0,0.0,0.0,0.0,0.0,0.0,0.0,0.0,0.0,0.0,0.0,0.0,0.0,0.0,0.0,0.0,0.0,0.0,0.0,0.0,0.0,0.0,0.0,0.0,0.0,0.0,0.0,0.0,0.0,0.0,0.0,0.0,0.0,0.0,0.0,0.0,0.0,0.0,0.0,0.0,0.0,0.0,0.0,0.0,0.0,0.0,0.0,0.0,0.0,0.0,0.0,0.0,0.0,0.0,0.0,0.0,0.0,0.0,0.0,0.0,0.0,0.0,0.0,0.0,0.0,0.0,0.0,0.0,0.0,0.0,0.0,0.0,0.0,0.0,0.0,0.0,0.0,0.0,0.0,0.0,0.0,0.0,0.0,0.0,0.0,0.0,0.0,0.0,0.0,0.0,0.0,0.0,-3.5698,-3.6175,-3.7216,-3.8321,-3.9642,-4.011,-4.0665,0.0,0.0,0.0,0.0,0.0,0.0,0.0,0.0,0.0,0.0,0.0,0.0,0.0,0.0,0.0,0.0,0.0,0.0,0.0,0.0,0.0,0.0,0.0,0.0,0.0,0.0,0.0,0.0,0.0,0.0,0.0,0.0,0.0,0.0,0.0,0.0,0.0,0.0,0.0,0.0,0.0,0.0,0.0,0.0,0.0,0.0,0.0,0.0,0.0,0.0,0.0,0.0,0.0,0.0,0.0,0.0,0.0,0.0,0.0,0.0,0.0,0.0,0.0,0.0,0.0,0.0,0.0,0.0,0.0,0.0,0.0,0.0,0.0,0.0,0.0,0.0,0.0,0.0,0.0,0.0,0.0,0.0,0.0,0.0,0.0,0.0,0.0,0.0,0.0,0.0,0.0,0.0,0.0,0.0,0.0,0.0,0.0,0.0,0.0,0.0,0.0,0.0,0.0,0.0,0.0,0.0,0.0,0.0,-3.6249,-3.6289,-3.7357,-3.8143,-3.8837,-3.9898,-4.0544,0.0,0.0,0.0,0.0,0.0,0.0,0.0,0.0,0.0,0.0,0.0,0.0,0.0,0.0,0.0,0.0,0.0,0.0,0.0,0.0,0.0,0.0,0.0,0.0,0.0,0.0,0.0,0.0,0.0,0.0,0.0,0.0,0.0,0.0,0.0,0.0,0.0,0.0,0.0,0.0,0.0,0.0,0.0,0.0,0.0,0.0,0.0,0.0,0.0,0.0,0.0,0.0,0.0,0.0,0.0,0.0,0.0,0.0,0.0,0.0,0.0,0.0,0.0,0.0,0.0,0.0,0.0,0.0,0.0,0.0,0.0,0.0,0.0,0.0,0.0,0.0,0.0,0.0,0.0,0.0,0.0,0.0,0.0,0.0,0.0,0.0,0.0,0.0,0.0,0.0,0.0,0.0,0.0,0.0,0.0,0.0,0.0,0.0,0.0,0.0,0.0,0.0,0.0,0.0,0.0,0.0,0.0,0.0,-3.7395,-3.7383,-3.8479,-3.906,-3.9304,-3.9243,-3.9742,0.0,0.0,0.0,0.0,0.0,0.0,0.0,0.0,0.0,0.0,0.0,0.0,0.0,0.0,0.0,0.0,0.0,0.0,0.0,0.0,0.0,0.0,0.0,0.0,0.0,0.0,0.0,0.0,0.0,0.0,0.0,0.0,0.0,0.0,0.0,0.0,0.0,0.0,0.0,0.0,0.0,0.0,0.0,0.0,0.0,0.0,0.0,0.0,-6.9715,0.0,0.0,0.0,0.0,0.0,0.0,0.0,0.0,0.0,0.0,0.0,0.0,0.0,0.0,0.0,0.0,0.0,0.0,0.0,0.0,0.0,0.0,0.0,0.0,0.0,0.0,0.0,0.0,0.0,0.0,0.0,0.0,0.0,0.0,0.0,0.0,0.0,0.0,0.0,0.0,0.0,0.0,0.0,0.0,0.0,0.0,0.0,0.0,0.0,0.0,0.0,0.0,0.0,0.0,0.0,0.0,0.0,0.0,0.0,-3.8076,-3.7752,-3.9071,-3.9682,-3.993,-3.933,-3.9658,0.0,0.0,0.0,0.0,0.0,0.0,0.0,0.0,0.0,0.0,0.0,0.0,0.0,0.0,0.0,0.0,0.0,0.0,0.0,0.0,0.0,0.0,0.0,0.0,0.0,0.0,0.0,0.0,0.0,0.0,0.0,0.0,0.0,0.0,0.0,0.0,0.0,0.0,0.0,0.0,0.0,0.0,0.0,0.0,0.0,0.0,0.0,0.0,0.0,0.0,0.0,0.0,0.0,0.0,0.0,0.0,0.0,0.0,0.0,0.0,0.0,0.0,0.0,0.0,0.0,0.0,0.0,0.0,0.0,0.0,0.0,0.0,0.0,0.0,0.0,0.0,0.0,0.0,0.0,0.0,0.0,0.0,0.0,0.0,0.0,0.0,0.0,0.0,0.0,0.0,0.0,0.0,0.0,0.0,0.0,0.0,0.0,0.0,0.0,0.0,0.0,0.0,0.0,0.0,0.0,0.0,0.0,-3.821,-3.8512,-3.8086,-3.9372,-4.0195,-4.0474,-3.9985,-3.9971,-4.0419,0.0,0.0,0.0,0.0,0.0,0.0,0.0,0.0,0.0,0.0,0.0,0.0,0.0,0.0,0.0,0.0,0.0,0.0,0.0,0.0,0.0,0.0,0.0,0.0,0.0,0.0,0.0,0.0,0.0,0.0,0.0,0.0,0.0,0.0,0.0,0.0,0.0,0.0,-6.7442,-6.742,0.0,0.0,0.0,0.0,0.0,0.0,0.0,0.0,-6.9363,0.0,0.0,0.0,0.0,0.0,0.0,0.0,0.0,0.0,0.0,0.0,0.0,0.0,0.0,0.0,0.0,0.0,0.0,0.0,0.0,0.0,0.0,0.0,0.0,0.0,0.0,0.0,0.0,0.0,0.0,0.0,0.0,0.0,0.0,0.0,0.0,0.0,0.0,0.0,0.0,0.0,0.0,0.0,0.0,0.0,0.0,0.0,0.0,0.0,0.0,0.0,0.0,0.0,0.0,0.0,0.0,-3.841,-3.8624,-3.8958,-3.9189,-3.9786,-4.0226,-4.0506,-4.0468,-4.0334,-4.0549,0.0,0.0,0.0,0.0,0.0,0.0,0.0,0.0,0.0,0.0,0.0,0.0,0.0,0.0,0.0,0.0,0.0,0.0,0.0,0.0,0.0,0.0,0.0,0.0,0.0,0.0,0.0,0.0,0.0,0.0,0.0,0.0,0.0,0.0,0.0,0.0,0.0,0.0,0.0,-6.5477,-6.567,0.0,0.0,0.0,0.0,0.0,0.0,0.0,0.0,-6.9662,0.0,0.0,0.0,0.0,0.0,0.0,0.0,0.0,0.0,0.0,0.0,0.0,0.0,0.0,0.0,0.0,0.0,0.0,0.0,0.0,0.0,0.0,0.0,0.0,0.0,0.0,0.0,0.0,0.0,0.0,0.0,0.0,0.0,0.0,0.0,0.0,0.0,0.0,0.0,0.0,0.0,0.0,0.0,0.0,0.0,0.0,0.0,0.0,0.0,0.0,0.0,0.0,0.0,0.0,0.0,-3.8678,-3.9025,-3.9216,-3.9507,-4.0079,-4.0575,-4.0979,-4.0855,-4.0922,0.0,0.0,0.0,0.0,0.0,0.0,0.0,0.0,0.0,0.0,0.0,0.0,0.0,0.0,0.0,0.0,0.0,0.0,0.0,0.0,0.0,0.0,0.0,0.0,0.0,0.0,0.0,0.0,0.0,0.0,0.0,0.0,0.0,0.0,0.0,0.0,0.0,0.0,0.0,0.0,-6.4637,-6.4831,-6.4853,0.0,0.0,0.0,0.0,0.0,0.0,-6.8345,-6.9173,0.0,0.0,0.0,0.0,0.0,0.0,0.0,0.0,0.0,0.0,0.0,0.0,0.0,0.0,0.0,0.0,0.0,0.0,0.0,0.0,0.0,0.0,0.0,0.0,0.0,0.0,0.0,0.0,0.0,0.0,0.0,0.0,0.0,0.0,0.0,0.0,0.0,0.0,0.0,0.0,0.0,0.0,0.0,0.0,0.0,0.0,0.0,0.0,0.0,0.0,0.0,0.0,0.0,0.0,0.0,-3.8891,-3.9479,-3.976,-3.9726,-4.057,-4.1109,-4.135,-4.135,-4.1336,0.0,0.0,0.0,0.0,0.0,0.0,0.0,0.0,0.0,0.0,0.0,0.0,0.0,0.0,0.0,0.0,0.0,0.0,0.0,0.0,0.0,0.0,0.0,0.0,0.0,0.0,0.0,0.0,0.0,0.0,0.0,0.0,0.0,0.0,0.0,0.0,0.0,0.0,0.0,0.0,0.0,-6.3896,-6.3917,-6.4296,0.0,0.0,0.0,0.0,-6.6395,-6.7493,0.0,0.0,0.0,0.0,0.0,0.0,0.0,0.0,0.0,0.0,0.0,0.0,0.0,0.0,0.0,0.0,0.0,0.0,0.0,0.0,0.0,0.0,0.0,0.0,0.0,0.0,0.0,0.0,0.0,0.0,0.0,0.0,0.0,0.0,0.0,0.0,0.0,0.0,0.0,0.0,0.0,0.0,0.0,0.0,0.0,0.0,0.0,0.0,0.0,0.0,0.0,0.0,0.0,0.0,0.0,0.0,-3.9493,-4.008,-4.0265,-4.0312,-4.0876,-4.1584,-4.2174,-4.1624,-4.1336,0.0,0.0,0.0,0.0,0.0,0.0,0.0,0.0,0.0,0.0,0.0,0.0,0.0,0.0,0.0,0.0,0.0,0.0,0.0,0.0,0.0,0.0,0.0,0.0,0.0,0.0,0.0,0.0,0.0,0.0,0.0,0.0,0.0,0.0,0.0,0.0,0.0,0.0,0.0,0.0,0.0,-6.1949,-6.1969,-6.2334,-6.2822,0.0,0.0,-6.4768,-6.6218,-6.61,0.0,0.0,0.0,0.0,0.0,0.0,0.0,0.0,0.0,0.0,0.0,0.0,0.0,0.0,0.0,0.0,0.0,0.0,0.0,0.0,0.0,0.0,0.0,0.0,0.0,0.0,0.0,0.0,0.0,0.0,0.0,0.0,0.0,0.0,0.0,0.0,0.0,0.0,0.0,0.0,0.0,0.0,0.0,0.0,0.0,0.0,0.0,0.0,0.0,0.0,0.0,0.0,0.0,0.0,0.0,-3.9172,-4.0067,-4.0348,-4.0762,-4.084,-4.142,-4.2189,-4.267,-4.2525,-4.2258,0.0,0.0,0.0,0.0,0.0,0.0,0.0,0.0,0.0,0.0,0.0,0.0,0.0,0.0,0.0,0.0,0.0,0.0,0.0,0.0,0.0,0.0,0.0,0.0,0.0,0.0,0.0,0.0,0.0,0.0,0.0,0.0,0.0,0.0,0.0,0.0,0.0,0.0,0.0,0.0,0.0,0.0,-6.1945,-6.2348,0.0,0.0,0.0,-6.5139,-6.5765,0.0,0.0,0.0,0.0,0.0,0.0,0.0,0.0,0.0,0.0,0.0,0.0,0.0,0.0,0.0,0.0,0.0,0.0,0.0,0.0,0.0,0.0,0.0,0.0,0.0,0.0,0.0,0.0,0.0,0.0,0.0,0.0,0.0,0.0,0.0,0.0,0.0,0.0,0.0,0.0,0.0,0.0,0.0,0.0,0.0,0.0,0.0,0.0,0.0,0.0,0.0,0.0,0.0,0.0,0.0,0.0,0.0,-3.9969,-4.0273,-4.0735,-4.1355,-4.1738,-4.2565,-4.3373,-4.3277,0.0,0.0,0.0,0.0,0.0,0.0,0.0,0.0,0.0,0.0,0.0,0.0,0.0,0.0,0.0,0.0,0.0,0.0,0.0,0.0,0.0,0.0,0.0,0.0,0.0,0.0,0.0,-5.6043,0.0,0.0,0.0,0.0,0.0,0.0,0.0,0.0,0.0,0.0,0.0,0.0,0.0,0.0,-6.1954,-6.1954,-6.2414,-6.2773,0.0,0.0,-6.4714,-6.512,-6.6188,-6.7156,0.0,0.0,0.0,0.0,0.0,0.0,0.0,0.0,0.0,0.0,0.0,0.0,0.0,0.0,0.0,0.0,0.0,0.0,0.0,0.0,0.0,0.0,0.0,0.0,0.0,0.0,0.0,0.0,0.0,0.0,0.0,0.0,0.0,0.0,0.0,0.0,0.0,0.0,0.0,0.0,0.0,0.0,0.0,0.0,0.0,0.0,0.0,0.0,0.0,0.0,0.0,0.0,0.0,0.0,-3.8445,-3.8559,-3.9539,-4.0619,-4.1295,-4.1752,-4.2596,-4.3805,-4.3425,-4.3086,0.0,0.0,0.0,0.0,0.0,0.0,0.0,0.0,0.0,0.0,0.0,0.0,0.0,0.0,0.0,0.0,0.0,0.0,0.0,0.0,0.0,0.0,0.0,0.0,0.0,0.0,0.0,0.0,0.0,0.0,0.0,0.0,0.0,0.0,0.0,0.0,0.0,0.0,0.0,0.0,0.0,-6.1265,-6.1265,-6.1991,-6.252,0.0,-6.2618,-6.2578,-6.4567,-6.664,-6.7744,-6.684,0.0,0.0,0.0,0.0,0.0,0.0,0.0,0.0,0.0,0.0,0.0,0.0,0.0,0.0,0.0,0.0,0.0,0.0,0.0,0.0,0.0,0.0,0.0,0.0,0.0,0.0,0.0,0.0,0.0,0.0,0.0,0.0,0.0,0.0,0.0,0.0,0.0,0.0,0.0,0.0,0.0,0.0,0.0,0.0,0.0,0.0,0.0,0.0,0.0,0.0,0.0,0.0,0.0,-3.8865,-3.9526,-3.9958,-4.0365,-4.1005,-4.1363,-4.1842,-4.2717,-4.2547,-4.2246,0.0,0.0,0.0,0.0,0.0,0.0,0.0,0.0,0.0,0.0,0.0,0.0,0.0,0.0,0.0,0.0,0.0,0.0,0.0,0.0,0.0,0.0,0.0,0.0,0.0,0.0,0.0,0.0,-5.6402,-5.7203,-5.812,0.0,0.0,0.0,0.0,0.0,0.0,0.0,0.0,0.0,0.0,-6.1562,-6.1836,-6.2148,0.0,0.0,-6.2731,-6.2925,-6.4572,-6.5348,-6.6027,-6.6896,-6.7606,0.0,0.0,0.0,0.0,0.0,0.0,0.0,0.0,0.0,0.0,0.0,0.0,0.0,0.0,0.0,0.0,0.0,0.0,0.0,0.0,0.0,0.0,0.0,0.0,0.0,0.0,0.0,0.0,0.0,0.0,0.0,0.0,0.0,0.0,0.0,0.0,0.0,0.0,0.0,0.0,0.0,0.0,0.0,0.0,0.0,0.0,0.0,0.0,0.0,0.0,0.0,0.0,-3.8148,-3.8899,-3.9133,-3.9466,-4.0421,-4.0732,-4.1184,-4.1487,-4.1904,-4.1904,0.0,0.0,0.0,0.0,0.0,0.0,0.0,0.0,0.0,0.0,0.0,0.0,0.0,0.0,0.0,0.0,0.0,0.0,0.0,0.0,0.0,0.0,0.0,0.0,0.0,0.0,0.0,0.0,-5.5555,-5.6489,-5.7437,0.0,0.0,0.0,0.0,0.0,0.0,0.0,0.0,0.0,0.0,-6.1835,-6.2264,-6.2676,-6.2871,-6.3183,-6.3295,-6.3769,-6.4329,-6.4585,-6.5064,-6.6632,0.0,0.0,0.0,0.0,0.0,0.0,0.0,0.0,0.0,0.0,0.0,0.0,0.0,0.0,0.0,0.0,0.0,0.0,0.0,0.0,0.0,0.0,0.0,0.0,0.0,0.0,0.0,0.0,0.0,0.0,-1.923,0.0,0.0,0.0,0.0,0.0,0.0,0.0,0.0,0.0,0.0,0.0,0.0,0.0,0.0,0.0,0.0,0.0,0.0,0.0,0.0,0.0,0.0,-3.6067,-3.6112,-3.7072,-3.7763,-3.8953,-3.9615,-4.0381,-4.0405,-4.1749,-4.2273,-4.2247,0.0,0.0,0.0,0.0,0.0,0.0,0.0,0.0,0.0,0.0,0.0,0.0,0.0,0.0,0.0,0.0,0.0,0.0,0.0,0.0,0.0,0.0,0.0,0.0,0.0,0.0,-5.3962,-5.4416,-5.4887,0.0,0.0,0.0,0.0,0.0,0.0,0.0,0.0,0.0,-6.0393,-6.0925,-6.1572,-6.1976,-6.288,-6.3633,-6.3672,-6.4023,-6.4297,-6.4297,-6.5077,-6.5597,0.0,0.0,0.0,0.0,0.0,0.0,0.0,0.0,0.0,0.0,0.0,0.0,0.0,0.0,0.0,0.0,0.0,0.0,0.0,0.0,0.0,0.0,0.0,0.0,0.0,0.0,0.0,-1.9563,-1.9644,0.0,0.0,0.0,0.0,0.0,0.0,0.0,0.0,0.0,0.0,0.0,-2.5725,-2.5901,0.0,0.0,0.0,0.0,0.0,0.0,0.0,0.0,0.0,0.0,0.0,0.0,-3.5811,-3.682,-3.7083,-3.738,-3.8003,-3.8716,-3.9162,-3.9622,-3.9906,-4.0082,-3.9597,0.0,0.0,0.0,0.0,0.0,0.0,0.0,0.0,0.0,0.0,0.0,0.0,0.0,0.0,0.0,0.0,0.0,0.0,0.0,0.0,0.0,0.0,0.0,0.0,0.0,-5.3012,0.0,0.0,0.0,0.0,0.0,0.0,0.0,0.0,0.0,0.0,0.0,-6.0734,-6.0866,-6.1125,-6.1277,-6.1714,-6.2611,-6.3045,0.0,0.0,0.0,0.0,0.0,0.0,0.0,0.0,0.0,0.0,0.0,0.0,0.0,0.0,-7.4677,-7.6664,-7.8556,-7.9755,-8.0259,0.0,0.0,0.0,0.0,0.0,0.0,0.0,0.0,0.0,0.0,0.0,0.0,0.0,0.0,0.0,0.0,-2.0105,0.0,0.0,0.0,0.0,0.0,0.0,0.0,0.0,-2.2645,-2.3531,-2.4629,-2.4802,-2.5672,0.0,-2.767,-2.8653,0.0,0.0,0.0,0.0,0.0,0.0,0.0,0.0,-3.4648,-3.5711,-3.582,-3.6342,-3.6738,-3.7395,-3.7518,-3.7652,-3.7961,-3.8111,-3.7283,-3.7555,-3.7635,0.0,0.0,0.0,0.0,0.0,0.0,0.0,0.0,0.0,0.0,0.0,0.0,0.0,0.0,0.0,0.0,0.0,0.0,0.0,0.0,0.0,0.0,0.0,-5.2054,0.0,0.0,0.0,0.0,0.0,0.0,0.0,0.0,0.0,-5.872,-5.9442,-5.9683,-5.983,-6.0334,-6.0745,-6.1157,0.0,0.0,0.0,0.0,0.0,0.0,0.0,-6.61,-6.6525,-6.6683,-6.7526,-6.8761,-6.9986,-7.1183,-7.2632,0.0,0.0,-7.6336,-7.8207,-7.9672,-8.0829,-8.1681,-8.2524,-8.319,-8.3631,-8.4096,0.0,0.0,0.0,0.0,0.0,0.0,0.0,0.0,-2.0349,-2.0424,0.0,-2.0553,0.0,0.0,0.0,0.0,0.0,-2.1021,0.0,0.0,-2.2445,-2.286,-2.3546,-2.397,-2.4854,-2.5947,-2.6224,-2.7031,-2.8071,-2.8243,0.0,0.0,0.0,0.0,0.0,0.0,-3.2801,-3.3282,-3.3515,-3.4043,-3.5435,-3.5913,-3.5698,-3.4511,-3.5656,-3.6116,-3.6156,-3.6695,-3.6859,-3.6889,-3.742,0.0,0.0,0.0,0.0,0.0,0.0,0.0,0.0,0.0,0.0,0.0,0.0,0.0,0.0,0.0,0.0,0.0,0.0,0.0,0.0,-5.0233,0.0,0.0,0.0,0.0,0.0,0.0,0.0,0.0,0.0,0.0,-5.7722,-5.7597,-5.7387,-5.776,0.0,0.0,0.0,0.0,-6.2343,-6.2381,-6.3481,-6.4242,-6.3996,-6.5513,-6.6848,-6.625,0.0,0.0,-6.9615,-7.036,-7.1082,-7.1864,-7.3291,-7.5207,-7.6632,-7.7655,-7.89,-8.1561,-8.182,-8.2177,-8.3042,-8.3584,-8.3781,-1.2255,0.0,0.0,0.0,0.0,-1.9306,-1.9901,-2.0811,-2.0811,-2.0831,-2.0872,-2.0865,0.0,0.0,0.0,0.0,0.0,0.0,-2.1557,-2.1954,-2.2009,-2.2589,-2.317,-2.3328,-2.3952,-2.4775,-2.602,-2.6349,-2.5763,-2.6904,-2.8104,-2.9069,0.0,0.0,0.0,0.0,-3.1119,-3.1865,-3.2077,-3.2872,-3.4293,-3.4634,-3.3544,-3.1577,-3.3332,-3.4114,-3.3894,-3.4728,-3.5179,-3.551,-3.616,0.0,0.0,0.0,0.0,0.0,0.0,0.0,0.0,0.0,0.0,0.0,0.0,0.0,0.0,0.0,0.0,0.0,0.0,0.0,-4.9238,-4.9476,-4.9728,0.0,0.0,0.0,0.0,0.0,0.0,0.0,0.0,0.0,-5.395,-5.6012,-5.7331,0.0,0.0,-5.8754,-5.888,-6.0123,-6.0958,-6.1254,-6.2092,0.0,-6.4765,-6.6019,-6.6853,-6.666,-6.7281,-6.8114,-6.8365,-6.9365,-7.036,-7.1124,-7.2355,-7.3714,-7.5163,-7.7215,-7.9232,-8.1701,-8.2176,-8.2572,-8.368,-8.4379,-8.4827,-1.2072,-1.4514,-1.6272,-1.7575,-1.8676,-1.921,-2.0338,-2.1265,-2.1265,-2.1299,-2.1353,-2.1353,-2.1346,-2.1082,-2.1346,0.0,0.0,0.0,-2.1835,-2.1977,-2.2038,-2.2366,-2.2702,-2.2855,-2.3484,-2.4044,-2.4701,-2.4745,-2.4731,-2.5114,-2.6125,-2.6912,0.0,0.0,-2.9536,-2.9644,-3.0081,-3.0835,-3.0946,-3.141,-3.2507,-3.1915,-3.0777,-2.9389,-3.1169,-3.1999,-3.1886,-3.2721,-3.3185,-3.3804,-3.4492,-3.5436,0.0,0.0,0.0,0.0,0.0,0.0,0.0,0.0,0.0,0.0,0.0,-4.3887,-4.466,0.0,0.0,0.0,-4.6543,-4.7645,-4.7843,-4.8342,0.0,0.0,0.0,0.0,0.0,0.0,0.0,-5.2621,-5.1979,-5.1659,-5.1815,-5.394,-5.5664,-5.6119,-5.6858,-5.7413,-5.7839,0.0,-5.9739,-6.0657,-6.1521,-6.2766,-6.4609,-6.6078,-6.6836,-6.6855,-6.7108,-6.7612,-6.7863,-6.8616,-6.9386,-7.036,-7.135,-7.2558,-7.3714,-7.593,-7.8189,-8.033,-8.1356,-8.2345,-8.3237,-8.4171,-8.485,-1.2375,-1.4547,-1.6819,-1.8047,-1.8796,-1.9068,-2.0216,-2.1686,-2.1686,-2.176,-2.1882,-2.1882,-2.1605,-2.1327,-2.1896,0.0,-2.2187,-2.193,-2.2018,-2.2154,-2.2303,-2.2445,-2.2574,-2.271,-2.3066,-2.3911,-2.2751,-2.3313,-2.4748,-2.3595,-2.3595,-2.5051,-2.7032,-2.8425,-2.9228,-2.9237,-2.9341,-2.9516,-2.9533,-2.9629,-2.9803,-2.8312,-2.7711,-2.7711,-2.9199,-3.0087,-3.0087,-3.0638,-3.1406,-3.1793,-3.2606,-3.3794,-3.5035,0.0,0.0,0.0,0.0,0.0,0.0,0.0,0.0,0.0,0.0,0.0,0.0,0.0,0.0,-4.5432,-4.5738,0.0,-4.6168,-4.7463,0.0,0.0,0.0,-5.0078,-5.0063,-4.9515,-4.9605,-4.992,0.0,0.0,-5.0959,-5.1779,-5.2577,-5.3984,-5.465,-5.5529,-5.6648,-5.7463,-5.8364,-6.0042,-6.1112,-6.2076,-6.3768,-6.5473,-6.6758,-6.6894,-6.6855,-6.7127,-6.7612,-6.7863,-6.8365,-6.9615,-7.036,-7.1287,-7.2547,-7.4376,-7.6215,-7.8449,-8.0049,-8.1629,-8.232,-8.3465,-8.4398,-1.2071,-1.4012,-1.679,-1.8548,-1.9069,-1.9345,-2.0451,-2.1828,-2.1835,-2.1855,-2.1882,-2.1882,-2.1882,-2.1889,-2.2004,-2.2338,-2.2345,-2.2296,-2.2411,-2.2459,-2.2608,-2.2696,-2.273,-2.2764,-2.2784,-2.3066,-2.2771,-2.2771,-2.3348,-2.3149,-2.3487,-2.4366,-2.5626,-2.6125,-2.6167,-2.6276,-2.6362,-2.6401,-2.6533,-2.7213,-2.8159,-2.6959,-2.6658,-2.7824,-2.8093,-2.8655,-2.9234,-2.9803,-3.0345,-3.0584,-3.1558,-3.2548,-3.3019,-3.5065,0.0,0.0,0.0,0.0,0.0,0.0,0.0,0.0,0.0,-4.3795,-4.4057,0.0,-4.3955,0.0,-4.5554,-4.6265,-4.6798,-4.7064,0.0,0.0,-4.7595,-4.786,-4.7845,-4.7874,-4.8197,-4.8592,-4.9344,-4.9873,-5.0287,-5.1035,-5.1455,-5.181,-5.3342,-5.4655,-5.4995,-5.6303,-5.7742,-5.8619,-6.034,-6.1803,-6.3103,-6.4786,-6.6427,-6.6875,-6.6855,-6.6875,-6.7108,-6.7612,-6.8114,-6.9116,-7.0112,-7.0999,-7.1444,-7.3342,-7.5845,-7.8009,-7.9766,-8.0958,-8.209,-8.3261,-8.4398,-1.2211,-1.3609,-1.7045,-1.8906,-1.9791,-2.0068,-2.0896,-2.2283,-2.2283,-2.2283,-2.2283,-2.2276,-2.2,-2.2007,-2.2371,-2.2411,-2.2425,-2.2581,-2.2656,-2.2662,-2.2812,-2.2886,-2.2886,-2.2947,-2.2981,-2.2981,-2.2974,-2.2974,-2.2981,-2.3049,-2.3368,-2.3668,-2.4324,-2.4281,-2.4125,-2.505,-2.5379,-2.5379,-2.5476,-2.5822,-2.6712,-2.5227,-2.4918,-2.5799,-2.6372,-2.6951,-2.7523,-2.8093,-2.8664,-2.894,-2.9973,-3.1295,-3.2345,-3.3605,-3.4882,0.0,0.0,0.0,0.0,0.0,0.0,0.0,0.0,0.0,0.0,0.0,-4.4169,-4.4931,-4.5333,-4.5683,-4.5951,-4.6219,-4.6487,-4.6487,-4.6754,-4.7022,-4.7022,-4.7036,-4.7373,-4.7528,-4.805,-4.8643,-4.907,-4.9591,-4.983,-5.0097,-5.1414,-5.2943,-5.4115,-5.539,-5.6824,-5.8238,-5.9537,-6.1141,-6.3251,-6.4843,-6.6115,-6.6875,-6.6855,-6.6855,-6.6855,-6.7127,-6.7632,-6.8385,-6.9365,-7.0319,-7.0875,-7.2675,-7.5121,-7.7269,-7.8823,-8.0049,-8.1166,-8.3033,-8.4398,-1.2295,-1.3703,-1.7157,-1.944,-2.0833,-2.084,-2.1393,-2.2778,-2.2778,-2.2778,-2.2778,-2.2489,-2.2482,-2.2482,-2.2778,-2.2778,-2.2784,-2.2805,-2.2812,-2.2825,-2.2968,-2.3035,-2.3042,-2.3164,-2.3219,-2.3219,-2.3219,-2.3219,-2.3219,-2.3219,-2.3219,-2.3219,-2.3219,-2.3219,-2.3219,-2.4661,-2.5234,-2.5234,-2.5234,-2.5234,-2.5234,-2.3758,-2.3158,-2.3158,-2.4639,-2.5521,-2.5521,-2.6101,-2.6959,-2.7523,-2.8379,-2.9724,-3.1811,-3.2073,-3.3406,0.0,-3.7046,0.0,0.0,0.0,0.0,0.0,0.0,0.0,0.0,-4.4594,-4.4621,-4.5549,-4.528,-4.4984,-4.4984,-4.5522,-4.5791,-4.5791,-4.6329,-4.6866,-4.6866,-4.6866,-4.6963,-4.6916,-4.7241,-4.7367,-4.7589,-4.7659,-4.8204,-4.8962,-4.9504,-5.1019,-5.2943,-5.4188,-5.5619,-5.8056,-5.8688,-6.0473,-6.3489,-6.5098,-6.5861,-6.6622,-6.6875,-6.6855,-6.6855,-6.6855,-6.7127,-6.7883,-6.8616,-6.9365,-7.0608,-7.2334,-7.4351,-7.6504,-7.7805,-7.8829,-8.0469,-8.232,-8.3944,-1.2658,-1.4374,-1.8699,-2.0709,-2.0976,-2.166,-2.2147,-2.2784,-2.2778,-2.2778,-2.2778,-2.2778,-2.2778,-2.2778,-2.2778,-2.3066,-2.308,-2.2913,-2.2968,-2.2974,-2.3117,-2.3178,-2.3178,-2.3205,-2.3219,-2.3219,-2.3219,-2.3219,-2.3219,-2.3219,-2.3219,-2.3219,-2.3219,-2.3219,-2.3219,0.0,0.0,0.0,-2.3513,-2.3513,-2.3513,-2.3499,-2.3198,-2.3178,-2.4073,0.0,-2.5521,-2.5521,-2.6093,-2.6951,-2.7523,0.0,0.0,0.0,0.0,0.0,0.0,0.0,0.0,0.0,0.0,0.0,-4.3814,-4.4536,-4.4903,-4.509,-4.5237,-4.5562,-4.5737,-4.5585,-4.5585,-4.5585,-4.5844,-4.5844,-4.5858,-4.5858,-4.5858,-4.5844,-4.5871,-4.5912,-4.6485,-4.6744,-4.6198,-4.7072,-4.7932,-4.8204,-4.8734,-4.9519,-5.081,-5.2941,-5.5103,-5.6756,-5.8825,-6.091,-6.2773,-6.4332,-6.5353,-6.5861,-6.6622,-6.6855,-6.6855,-6.6855,-6.7108,-6.7863,-6.8365,-6.9365,-7.0629,-7.2089,-7.3865,-7.6241,-7.7306,-7.8334,-8.0002,-8.1629,-8.3008,-1.3033,0.0,-1.9407,-2.1436,0.0,-2.2056,-2.2564,-2.2995,-2.3002,-2.3002,-2.3002,-2.3002,-2.3002,-2.2995,-2.3002,-2.3002,-2.3293,-2.3083,-2.3117,-2.3117,-2.3185,-2.3219,-2.3219,-2.3219,-2.3219,-2.3219,-2.3219,-2.3219,-2.3219,-2.3219,-2.3219,-2.3219,-2.3219,-2.3219,-2.3219,-2.3219,-2.3219,-2.3219,-2.3219,-2.3219,-2.3219,-2.3219,-2.3212,-2.3205,-2.3499,0.0,0.0,0.0,0.0,0.0,0.0,0.0,0.0,0.0,0.0,-3.3478,-3.5057,-3.6673,-3.8355,-3.9614,-4.1244,-4.3029,-4.4425,-4.4919,-4.5318,-4.5438,-4.5531,-4.5818,-4.5665,-4.5745,-4.5745,-4.5745,-4.5745,-4.5745,-4.5745,-4.5745,-4.5745,-4.5745,-4.5745,-4.5745,-4.6019,-4.6006,-4.5692,-4.6266,-4.684,-4.7386,-4.7932,-4.8734,-5.0089,-5.2245,-5.4651,-5.7037,-5.9104,-6.0928,-6.2516,-6.3783,-6.4786,-6.5588,-6.6369,-6.6855,-6.6855,-6.6855,-6.7108,-6.738,-6.8114,-6.9116,-6.9864,-7.135,-7.3398,-7.5231,-7.6588,-7.7861,-7.9534,-8.1166,-8.2779,-1.3384,-1.6585,-1.9504,-2.1832,-2.2998,-2.2664,-2.265,-2.3219,0.0,0.0,0.0,-2.3219,-2.3219,-2.3219,-2.3219,-2.3219,-2.3219,-2.3219,-2.3219,-2.3219,-2.3219,-2.3219,-2.3219,-2.3219,-2.3219,-2.3219,-2.3219,-2.3219,-2.3219,-2.3219,-2.3219,-2.3219,-2.3219,-2.3219,-2.3219,-2.3219,-2.3219,-2.3219,-2.3219,-2.3219,-2.3219,-2.3219,-2.3219,-2.3219,-2.3219,-2.3219,-2.3219,-2.38,-2.4661,-2.5234,-2.6101,-2.6943,-2.7768,-2.9216,-3.0647,-3.2338,-3.4315,-3.6003,-3.7696,-3.9105,-4.1053,-4.3243,-4.4634,-4.5471,-4.5745,-4.5745,-4.5745,-4.5745,-4.5745,-4.5745,-4.5745,-4.5745,-4.5745,-4.5745,-4.5745,-4.5745,-4.5745,-4.5745,-4.5745,-4.5745,-4.5745,-4.5745,-4.5745,-4.5745,-4.6019,-4.6567,-4.7386,-4.8476,-5.0359,-5.2245,-5.4651,-5.7284,-5.8808,-6.0355,-6.2312,-6.3508,-6.4493,-6.5588,-6.6369,-6.6855,-6.6855,-6.6855,-6.6855,-6.6855,-6.8114,-6.8866,-6.9116,-7.1103,-7.3154,-7.4546,-7.5867,-7.7386,-7.9064,-8.0702,-8.232,-1.3377,-1.658,-1.9769,-2.1813,-2.3286,-2.2951,-2.3225,-2.3219,-2.3219,-2.3219,-2.3219,-2.3219,-2.3219,-2.3219,-2.3219,-2.3219,-2.3219,-2.3219,-2.3219,0.0,-2.3219,-2.3219,-2.3219,-2.3219,-2.3219,-2.3219,-2.3219,-2.3219,-2.3219,-2.3219,-2.3219,-2.3219,-2.3219,-2.3219,-2.3219,-2.3219,-2.3219,-2.3219,-2.3219,-2.3219,-2.3219,-2.3219,-2.3219,-2.3219,-2.3219,-2.3219,-2.3219,-2.3219,-2.3793,-2.4661,-2.5234,-2.6379,-2.78,-2.8655,-3.0078,-3.2338,-3.3186,-3.4878,-3.6845,-3.8535,-4.0486,-4.3243,-4.4358,-4.4922,-4.5745,-4.5745,-4.5745,-4.5745,-4.5745,-4.5745,-4.5745,-4.5745,-4.5745,-4.5745,-4.5745,-4.5745,-4.5745,-4.5745,-4.5745,-4.5745,-4.5745,-4.5745,-4.5745,-4.5745,-4.5745,-4.6019,-4.7113,-4.8748,-5.1184,-5.3333,-5.4917,-5.6492,-5.7988,-5.9905,-6.2235,-6.3638,-6.4276,-6.4824,-6.6115,-6.6855,-6.6855,-6.6855,-6.6855,-6.6855,-6.8114,-6.8866,-6.8866,-7.1103,-7.3175,-7.4546,-7.5889,-7.717,-7.9064,-8.0236,-8.1629,-1.3381,-1.658,-1.8609,-2.0941,-2.3286,-2.3239,-2.3219,-2.3219,-2.3219,-2.3219,-2.3219,-2.3219,-2.3219,-2.3219,-2.3219,-2.3219,-2.3219,-2.3219,-2.3219,-2.3219,-2.3219,-2.3219,-2.3219,-2.3219,-2.3219,-2.3219,-2.3219,-2.3219,-2.3219,-2.3219,-2.3219,-2.3219,-2.3219,-2.3219,-2.3219,-2.3219,-2.3219,-2.3219,-2.3219,-2.3219,-2.3219,-2.3219,-2.3219,-2.3219,-2.3219,-2.3219,-2.3219,-2.3219,-2.3513,-2.4374,-2.4661,-2.5815,-2.7547,-2.8102,-2.9225,-3.093,-3.2621,-3.4315,-3.6003,-3.8814,-4.1319,-4.3243,-4.4083,-4.4922,-4.5745,-4.5745,-4.5745,-4.5745,-4.5745,-4.5745,-4.5745,-4.5745,-4.5745,-4.5745,-4.5745,-4.5745,-4.5745,-4.5745,-4.5745,-4.5745,-4.5745,-4.5745,-4.5745,-4.5745,-4.5745,-4.5745,-4.684,-4.8748,-5.0899,-5.226,-5.382,-5.5287,-5.71,-5.9644,-6.2362,-6.373,-6.4569,-6.4843,-6.5861,-6.6855,-6.6855,-6.6855,-6.6855,-6.6875,-6.7863,-6.8866,-6.8866,-7.1103,-7.2973,-7.4411,-7.5692,-7.7193,-7.8806,-8.0678,-8.2779,-1.3384,-1.5996,-1.7737,-2.0352,-2.2985,-2.3239,-2.3219,-2.3219,-2.3219,-2.3219,-2.3219,-2.3219,-2.3219,-2.3219,-2.3219,-2.3219,-2.3219,-2.3219,-2.3219,-2.3219,-2.3219,-2.3219,-2.3219,-2.3219,-2.3219,-2.3219,-2.3219,-2.3219,-2.3219,-2.3219,-2.3219,-2.3219,-2.3219,-2.3219,-2.3219,-2.3219,-2.3219,-2.3219,-2.3219,-2.3219,-2.3219,-2.3219,-2.3219,-2.3219,-2.3219,-2.3219,-2.3219,-2.3219,-2.3506,-2.4087,-2.4374,-2.5242,-2.6681,-2.7245,-2.8379,-3.0078,-3.1772,-3.4033,-3.6284,-3.9093,-4.1596,-4.3243,-4.4083,-4.4647,-4.5471,-4.5745,-4.5745,-4.5745,-4.5745,-4.5745,-4.5745,-4.5745,-4.5745,-4.5745,-4.5745,-4.5745,-4.5745,-4.5745,-4.5745,-4.5745,-4.5745,-4.5745,-4.5745,-4.5745,-4.5745,-4.6019,-4.7113,-4.8476,-4.9818,-5.1453,-5.2704,-5.4725,-5.6787,-5.9331,-6.2083,-6.4025,-6.4607,-6.4843,-6.5861,-6.6622,-6.6855,-6.6855,-6.6855,-6.7127,-6.7863,-6.8866,-6.9116,-7.1103,-7.2994,-7.4497,-7.5781,-7.717,-7.9041,-8.1836,-8.3944,-1.2801,-1.4531,-1.7443,-2.0052,-2.2082,-2.2938,-2.3219,-2.3219,-2.3219,-2.3219,-2.3219,-2.3219,-2.3219,-2.3219,-2.3219,-2.3219,-2.3219,-2.3219,-2.3219,-2.3219,-2.3219,-2.3219,-2.3219,-2.3219,-2.3219,-2.3219,-2.3219,-2.3219,-2.3219,-2.3219,-2.3219,-2.3219,-2.3219,-2.3219,-2.3219,-2.3219,-2.3219,-2.3219,-2.3219,-2.3219,-2.3219,-2.3219,-2.3219,-2.3219,-2.3219,-2.3219,-2.3219,-2.3219,-2.3219,-2.3219,-2.4087,-2.4066,-2.4038,-2.5498,-2.7808,-2.9794,-3.093,-3.3186,-3.7416,-3.8825,-4.0486,-4.3243,-4.3519,-4.4358,-4.5471,-4.5745,-4.5745,-4.5745,-4.5745,-4.5745,-4.5745,-4.5745,-4.5745,-4.5745,-4.5745,-4.5745,-4.5745,-4.5745,-4.5745,-4.5745,-4.5745,-4.5745,-4.5745,-4.5745,-4.6019,-4.6293,-4.7386,-4.8218,-4.9562,-5.1184,-5.3065,-5.4885,-5.6327,-5.8461,-6.1733,-6.4025,-6.4625,-6.4843,-6.5861,-6.6603,-6.6855,-6.6855,-6.6855,-6.7108,-6.7863,-6.8866,-6.9365,-7.0877,-7.3218,-7.4497,-7.6044,-7.7386,-7.9745,-8.232,-8.392,-1.2514,-1.4246,-1.7458,-1.9781,-2.1499,-2.265,-2.3219,-2.3219,-2.3219,-2.3219,-2.3219,-2.3219,-2.3219,-2.3219,-2.3219,-2.3219,-2.3219,-2.3219,-2.3219,-2.3219,-2.3219,-2.3219,-2.3219,-2.3219,-2.3219,-2.3219,-2.3219,-2.3219,-2.3219,-2.3219,-2.3219,-2.3219,-2.3219,-2.3219,-2.3219,-2.3219,-2.3219,-2.3219,-2.3219,-2.3219,-2.3219,-2.3219,-2.3219,-2.3219,-2.3219,-2.3219,-2.3219,-2.3219,-2.3219,-2.3219,-2.3506,-2.3492,-2.3158,-2.4625,-2.6936,-2.9794,-3.2064,-3.4607,-3.7696,-3.8814,-4.0486,-4.3243,-4.3519,-4.4083,-4.5471,-4.5745,-4.5745,-4.5745,-4.5745,-4.5745,-4.5745,-4.5745,-4.5745,-4.5745,-4.5745,-4.5745,-4.5745,-4.5745,-4.5745,-4.5745,-4.5745,-4.5745,-4.5745,-4.5745,-4.5745,-4.6293,-4.7113,-4.8218,-4.8748,-5.0644,-5.2797,-5.4635,-5.575,-5.7869,-6.1384,-6.3693,-6.4607,-6.5098,-6.5861,-6.6855,-6.6855,-6.6855,-6.6855,-6.6855,-6.8114,-6.8866,-6.8866,-7.1124,-7.3197,-7.4655,-7.6744,-7.8334,-8.0236,-8.255,-8.392,-1.2228,-1.4258,-1.7179,-1.9492,-2.0923,-2.2356,-2.2931,-2.3219,-2.3219,-2.3219,-2.3219,-2.3219,-2.3219,-2.3219,-2.3219,-2.3219,-2.3219,-2.3219,-2.3219,-2.3219,-2.3219,-2.3219,-2.3219,-2.3219,-2.3219,-2.3219,-2.3219,-2.3219,-2.3219,-2.3219,-2.3219,-2.3219,-2.3219,-2.3219,-2.3219,-2.3219,-2.3219,-2.3219,-2.3219,-2.3219,-2.3219,-2.3219,-2.3219,-2.3219,-2.3219,-2.3219,-2.3219,-2.3219,-2.3219,-2.3219,-2.3219,-2.3198,-2.3158,-2.4331,-2.6356,-3.0087,-3.2923,-3.5451,-3.7416,-3.8535,-4.0486,-4.2967,-4.3519,-4.4083,-4.5471,-4.5745,-4.5745,-4.5745,-4.5745,-4.5745,-4.5745,-4.5745,-4.5745,-4.5745,-4.5745,-4.5745,-4.5745,-4.5745,-4.5745,-4.5745,-4.5745,-4.5745,-4.5745,-4.5745,-4.5745,-4.5745,-4.684,-4.7946,-4.8218,-5.0359,-5.2781,-5.4087,-5.5503,-5.7886,-6.0774,-6.3362,-6.4588,-6.5098,-6.5861,-6.6855,-6.6855,-6.6855,-6.6855,-6.7108,-6.8114,-6.8866,-6.9116,-7.0877,-7.3621,-7.5275,-7.7112,-7.9041,-8.0236,-8.255,-8.392,-1.1066,-1.4267,-1.7453,-1.9475,-2.0923,-2.1787,-2.265,-2.3219,-2.3219,-2.3219,-2.3219,-2.3219,-2.3219,-2.3219,-2.3219,-2.3219,-2.3219,-2.3219,-2.3219,-2.3219,-2.3219,-2.3219,-2.3219,-2.3219,-2.3219,-2.3219,-2.3219,-2.3219,-2.3219,-2.3219,-2.3219,-2.3219,-2.3219,-2.3219,-2.3219,-2.3219,-2.3219,-2.3219,-2.3219,-2.3219,-2.3219,-2.3219,-2.3219,-2.3219,-2.3219,-2.3219,-2.3219,-2.3219,-2.3219,-2.3219,-2.3219,-2.3198,-2.3158,-2.4331,-2.6936,-3.0398,-3.3215,-3.517,-3.6845,-3.8255,-4.0486,-4.2967,-4.3519,-4.407,-4.5471,-4.5745,-4.5745,-4.5745,-4.5745,-4.5745,-4.5745,-4.5745,-4.5745,-4.5745,-4.5745,-4.5745,-4.5745,-4.5745,-4.5745,-4.5745,-4.5745,-4.5745,-4.5745,-4.5745,-4.5745,-4.6019,-4.684,-4.7946,-4.8218,-5.0374,-5.2781,-5.4087,-5.56,-5.7692,-6.0792,-6.3399,-6.4625,-6.5098,-6.5861,-6.6855,-6.6855,-6.6855,-6.6855,-6.7108,-6.8114,-6.8866,-6.9365,-7.1103,-7.3843,-7.5845,-7.7499,-7.9041,-8.0469,-8.255,-8.392,-1.165,-1.5136,-1.7448,-1.9186,-2.0346,-2.1499,-2.2363,-2.2644,-2.2938,-2.3219,-2.3219,-2.3219,-2.3219,-2.3219,-2.3219,-2.3219,-2.3219,-2.3219,-2.3219,-2.3219,-2.3219,-2.3219,-2.3219,-2.3219,-2.3219,-2.3219,-2.3219,-2.3219,-2.3219,-2.3219,-2.3219,-2.3219,-2.3219,-2.3219,-2.3219,-2.3219,-2.3219,-2.3219,-2.3219,-2.3219,-2.3219,-2.3219,-2.3219,-2.3219,-2.3219,-2.3219,-2.3219,-2.3219,-2.3219,-2.3219,-2.3219,-2.3198,-2.3451,-2.6333,-2.9242,-3.1581,-3.3518,-3.517,-3.6845,-3.8255,-4.0486,-4.2967,-4.3519,-4.4083,-4.5471,-4.5745,-4.5745,-4.5745,-4.5745,-4.5745,-4.5745,-4.5745,-4.5745,-4.5745,-4.5745,-4.5745,-4.5745,-4.5745,-4.5745,-4.5745,-4.5745,-4.5745,-4.5745,-4.5745,-4.5745,-4.5745,-4.7113,-4.7673,-4.8476,-5.0374,-5.2797,-5.4087,-5.56,-5.7429,-6.0479,-6.316,-6.4957,-6.5136,-6.5842,-6.6603,-6.6855,-6.6855,-6.6855,-6.7108,-6.8114,-6.9116,-6.9635,-7.2651,-7.5076,-7.6215,-7.7861,-7.9511,-8.0702,-8.2779,-8.3944,-1.165,-1.5136,-1.7747,-1.8903,-1.9481,-2.0923,-2.1787,-2.2075,-2.2644,-2.2931,-2.3219,-2.3219,-2.3219,-2.3219,-2.3219,-2.3219,-2.3219,-2.3219,-2.3219,-2.3219,-2.3219,-2.3219,-2.3219,-2.3219,-2.3219,-2.3219,-2.3219,-2.3219,-2.3219,-2.3219,-2.3219,-2.3219,-2.3219,-2.3219,-2.3219,-2.3219,-2.3219,-2.3219,-2.3219,-2.3219,-2.3219,-2.3219,-2.3219,-2.3219,-2.3219,-2.3219,-2.3219,-2.3219,-2.3219,-2.3219,-2.3219,-2.3492,-2.4331,-2.749,-3.0398,-3.2177,-3.3527,-3.4889,-3.6564,-3.8255,-4.0486,-4.3243,-4.3519,-4.4083,-4.5471,-4.5745,-4.5745,-4.5745,-4.5745,-4.5745,-4.5745,-4.5745,-4.5745,-4.5745,-4.5745,-4.5745,-4.5745,-4.5745,-4.5745,-4.5745,-4.5745,-4.5745,-4.5745,-4.5745,-4.5745,-4.5745,-4.684,-4.7946,-4.8204,-5.0374,-5.2781,-5.4087,-5.56,-5.7709,-6.0443,-6.316,-6.4701,-6.5136,-6.5842,-6.6603,-6.6855,-6.6855,-6.6855,-6.7108,-6.7863,-6.9116,-7.1021,-7.4072,-7.5671,-7.6543,-7.8098,-7.9768,-8.1166,-8.2779,-8.4147,-1.1066,-1.4271,-1.7189,-1.8341,-1.8609,-1.9481,-2.0635,-2.1787,-2.2075,-2.2644,-2.3219,-2.3219,-2.3219,-2.3219,-2.3219,-2.3219,-2.3219,-2.3219,-2.3219,-2.3219,-2.3219,-2.3219,-2.3219,-2.3219,-2.3219,-2.3219,-2.3219,-2.3219,-2.3219,-2.3219,-2.3219,-2.3219,-2.3219,-2.3219,-2.3219,-2.3219,-2.3219,-2.3219,-2.3219,-2.3219,-2.3219,-2.3219,-2.3219,-2.3219,-2.3219,-2.3219,-2.3219,-2.3219,-2.3219,-2.3219,-2.3219,-2.3793,-2.5219,-2.6943,-2.9259,-3.1865,-3.2952,-3.4597,-3.6564,-3.8255,-4.0208,-4.2691,-4.3519,-4.407,-4.5196,-4.5745,-4.5745,-4.5745,-4.5745,-4.5745,-4.5745,-4.5745,-4.5745,-4.5745,-4.5745,-4.5745,-4.5745,-4.5745,-4.5745,-4.5745,-4.5745,-4.5745,-4.5745,-4.5745,-4.5745,-4.6019,-4.684,-4.7946,-4.8218,-5.0374,-5.2781,-5.4087,-5.56,-5.7429,-6.0165,-6.2883,-6.3876,-6.4881,-6.6115,-6.6855,-6.6855,-6.6855,-6.6855,-6.7108,-6.8114,-6.9116,-7.1659,-7.4432,-7.6155,-7.7112,-7.8685,-7.9979,-8.1605,-8.3237,-8.4599,-1.0778,-1.3106,-1.4851,-1.6305,-1.7742,-1.8609,-1.9769,-2.1211,-2.1787,-2.2644,-2.3219,-2.3219,-2.3219,-2.3219,-2.3219,-2.3219,-2.3219,-2.3219,-2.3219,-2.3219,-2.3219,-2.3219,-2.3219,-2.3219,-2.3219,-2.3219,-2.3219,-2.3219,-2.3219,-2.3219,-2.3219,-2.3219,-2.3219,-2.3219,-2.3219,-2.3219,-2.3219,-2.3219,-2.3219,-2.3219,-2.3219,-2.3219,-2.3219,-2.3219,-2.3219,-2.3219,-2.3219,-2.3219,-2.3219,-2.3219,-2.3219,-2.3492,-2.4331,-2.6349,-2.8664,-3.0682,-3.264,-3.4315,-3.6003,-3.7976,-3.9929,-4.1596,-4.298,-4.3808,-4.4922,-4.5471,-4.5745,-4.5745,-4.5745,-4.5745,-4.5745,-4.5745,-4.5745,-4.5745,-4.5745,-4.5745,-4.5745,-4.5745,-4.5745,-4.5745,-4.5745,-4.5745,-4.5745,-4.5745,-4.5745,-4.5745,-4.684,-4.7946,-4.8218,-5.0374,-5.2781,-5.4087,-5.56,-5.7413,-6.0165,-6.2607,-6.4151,-6.5136,-6.6115,-6.6855,-6.6855,-6.6855,-6.6855,-6.736,-6.8365,-6.9864,-7.2419,-7.4481,-7.6263,-7.7612,-7.8875,-8.0446,-8.2296,-8.3441,-8.4599,-0.9615,-1.1654,-1.3396,-1.4847,-1.6295,-1.7453,-1.8898,-2.0058,-2.1211,-2.2069,-2.265,-2.3219,-2.3219,-2.3219,-2.3219,-2.3219,-2.3219,-2.3219,-2.3219,-2.3219,-2.3219,-2.3219,-2.3219,-2.3219,-2.3219,-2.3219,-2.3219,-2.3219,-2.3219,-2.3219,-2.3219,-2.3219,-2.3219,-2.3219,-2.3219,-2.3219,-2.3219,-2.3219,-2.3219,-2.3219,-2.3219,-2.3219,-2.3219,-2.3219,-2.3219,-2.3219,-2.3219,-2.3219,-2.3219,-2.3219,-2.3219,-2.3198,-2.3451,-2.5483,-2.78,-3.0078,-3.2055,-3.3741,-3.5712,-3.7696,-3.9662,-4.1319,-4.2691,-4.3795,-4.4647,-4.5196,-4.5745,-4.5745,-4.5745,-4.5745,-4.5745,-4.5745,-4.5745,-4.5745,-4.5745,-4.5745,-4.5745,-4.5745,-4.5745,-4.5745,-4.5745,-4.5745,-4.5745,-4.5745,-4.5745,-4.6019,-4.684,-4.7946,-4.849,-5.0374,-5.2513,-5.4321,-5.5519,-5.7658,-6.0183,-6.257,-6.4407,-6.5391,-6.6115,-6.6603,-6.6855,-6.6855,-6.6855,-6.7824,-6.8576,-7.0051,-7.2334,-7.4988,-7.6811,-7.8043,-7.9276,-8.0911,-8.2526,-8.3465,-8.4825,-0.7867,-0.9618,-1.2525,-1.3981,-1.4557,-1.6585,-1.8031,-1.8898,-2.0341,-2.1211,-2.2075,-2.2644,-2.3219,-2.3219,-2.3219,-2.3219,-2.3219,-2.3219,-2.3219,-2.3219,-2.3219,-2.3219,-2.3219,-2.3219,-2.3219,-2.3219,-2.3219,-2.3219,-2.3219,-2.3219,-2.3219,-2.3219,-2.3219,-2.3219,-2.3219,-2.3219,-2.3219,-2.3219,-2.3219,-2.3219,-2.3219,-2.3219,-2.3219,-2.3219,-2.3219,-2.3219,-2.3219,-2.3219,-2.3219,-2.3219,-2.3219,-2.3198,-2.3458,-2.4632,-2.6943,-2.9794,-3.1489,-3.3186,-3.5441,-3.7685,-3.9384,-4.0776,-4.2427,-4.3808,-4.4371,-4.5209,-4.5758,-4.5745,-4.5745,-4.5745,-4.5745,-4.5745,-4.5745,-4.5745,-4.5745,-4.5745,-4.5745,-4.5745,-4.5745,-4.5745,-4.5745,-4.5745,-4.5745,-4.5745,-4.5745,-4.6019,-4.7113,-4.7673,-4.8748,-5.0644,-5.2781,-5.429,-5.575,-5.7903,-6.0148,-6.2792,-6.4625,-6.5117,-6.5842,-6.6603,-6.7108,-6.7108,-6.736,-6.8325,-6.8995,-7.0485,-7.2313,-7.4967,-7.694,-7.7952,-7.9511,-8.1143,-8.255,-8.3693,-8.505,-0.6996,-0.9327,-1.1366,-1.2819,-1.4267,-1.6006,-1.7453,-1.8609,-1.9769,-2.0923,-2.1781,-2.2363,-2.265,-2.3225,-2.3219,-2.3219,-2.3219,-2.3219,-2.3219,-2.3219,-2.3219,-2.3219,-2.3219,-2.3219,-2.3219,-2.3219,-2.3219,-2.3219,-2.3219,-2.3219,-2.3219,-2.3219,-2.3219,-2.3219,-2.3219,-2.3219,-2.3219,-2.3219,-2.3219,-2.3219,-2.3219,-2.3219,-2.3219,-2.3219,-2.3219,-2.3219,-2.3219,-2.3219,-2.3219,-2.3219,-2.3219,-2.3205,-2.3451,-2.4632,-2.6943,-2.951,-3.0921,-3.2621,-3.4889,-3.7136,-3.8535,-3.9651,-4.1596,-4.298,-4.3808,-4.4974,-4.5524,-4.5772,-4.5745,-4.5745,-4.5745,-4.5745,-4.5745,-4.5745,-4.5745,-4.5745,-4.5745,-4.5745,-4.5745,-4.5745,-4.5745,-4.5745,-4.5745,-4.5745,-4.6019,-4.6567,-4.7386,-4.8204,-4.9291,-5.0899,-5.2781,-5.4572,-5.608,-5.792,-6.0337,-6.2994,-6.4588,-6.5098,-6.5842,-6.6603,-6.7108,-6.736,-6.7863,-6.8616,-6.9143,-7.0319,-7.2516,-7.4945,-7.6281,-7.812,-7.9511,-8.1166,-8.3008,-8.4398,-8.55,-0.6122,-0.8456,-0.9912,-1.1657,-1.3106,-1.4557,-1.6295,-1.7737,-1.8898,-2.0058,-2.1499,-2.2075,-2.2363,-2.3225,-2.3219,-2.3219,-2.3219,-2.3219,-2.3219,-2.3219,-2.3219,-2.3219,-2.3219,-2.3219,-2.3219,-2.3219,-2.3219,-2.3219,-2.3219,-2.3219,-2.3219,-2.3219,-2.3219,-2.3219,-2.3219,-2.3219,-2.3219,-2.3219,-2.3219,-2.3219,-2.3219,-2.3219,-2.3219,-2.3219,-2.3219,-2.3219,-2.3219,-2.3219,-2.3219,-2.3219,-2.3219,-2.3205,-2.3465,-2.4639,-2.6658,-2.894,-3.0363,-3.2055,-3.4043,-3.6294,-3.7976,-3.9093,-4.1041,-4.2427,-4.3532,-4.4712,-4.5564,-4.5758,-4.5745,-4.5745,-4.5745,-4.5745,-4.5745,-4.5745,-4.5745,-4.5745,-4.5745,-4.5745,-4.5745,-4.5745,-4.5745,-4.5745,-4.5745,-4.5745,-4.6019,-4.6567,-4.74,-4.8476,-4.9833,-5.1453,-5.3049,-5.4837,-5.6327,-5.7886,-6.032,-6.3012,-6.4843,-6.5098,-6.5861,-6.6855,-6.7108,-6.736,-6.8114,-6.8806,-6.933,-7.0237,-7.2431,-7.4814,-7.6783,-7.8403,-7.9815,-8.1398,-8.3237,-8.4624,-8.5948,-0.5541,-0.7,-0.8454,-1.02,-1.1654,-1.34,-1.4847,-1.629,-1.7742,-1.9475,-2.0635,-2.1499,-2.2363,-2.3225,-2.3219,-2.3219,-2.3219,-2.3219,-2.3219,-2.3219,-2.3219,-2.3219,-2.3219,-2.3219,-2.3219,-2.3219,-2.3219,-2.3219,-2.3219,-2.3219,-2.3219,-2.3219,-2.3219,-2.3219,-2.3219,-2.3219,-2.3219,-2.3219,-2.3219,-2.3219,-2.3219,-2.3219,-2.3219,-2.3219,-2.3219,-2.3219,-2.3219,-2.3219,-2.3219,-2.3219,-2.3219,-2.3205,-2.3478,-2.4646,-2.6372,-2.78,-2.9794,-3.1772,-3.3469,-3.5441,-3.7416,-3.8814,-4.0208,-4.1873,-4.3269,-4.4699,-4.5262,-4.5745,-4.5745,-4.5745,-4.5745,-4.5745,-4.5745,-4.5745,-4.5745,-4.5745,-4.5745,-4.5745,-4.5745,-4.5745,-4.5745,-4.5745,-4.5745,-4.5745,-4.6019,-4.7113,-4.7673,-4.8748,-5.0104,-5.1722,-5.3317,-5.5433,-5.6624,-5.754,-6.0267,-6.3031,-6.4313,-6.5353,-6.6115,-6.6875,-6.7108,-6.7612,-6.8114,-6.8786,-6.9887,-7.0812,-7.2059,-7.4397,-7.6955,-7.8616,-7.9932,-8.1812,-8.3693,-8.4825,-8.6171,-0.4958,-0.5541,-0.8165,-0.9621,-1.02,-1.2816,-1.4557,-1.5422,-1.7163,-1.8614,-2.0058,-2.0923,-2.2082,-2.3246,-2.3225,-2.3219,-2.3219,-2.3219,-2.3219,-2.3219,-2.3219,-2.3219,-2.3219,-2.3219,-2.3219,-2.3219,-2.3219,-2.3219,-2.3219,-2.3219,-2.3219,-2.3219,-2.3219,-2.3219,-2.3219,-2.3219,-2.3219,-2.3219,-2.3219,-2.3219,-2.3219,-2.3219,-2.3219,-2.3219,-2.3219,-2.3219,-2.3219,-2.3219,-2.3219,-2.3219,-2.3219,-2.3212,-2.3485,-2.4646,-2.6093,-2.7808,-2.9225,-3.093,-3.2621,-3.4587,-3.6564,-3.8255,-3.9662,-4.1331,-4.3243,-4.382,-4.466,-4.5196,-4.5745,-4.5745,-4.5745,-4.5745,-4.5745,-4.5745,-4.5745,-4.5745,-4.5745,-4.5745,-4.5745,-4.5745,-4.5745,-4.5745,-4.5745,-4.5745,-4.6293,-4.7386,-4.8204,-4.9291,-5.0644,-5.1991,-5.3584,-5.5714,-5.631,-5.7506,-6.032,-6.2773,-6.4569,-6.5588,-6.6369,-6.6875,-6.7108,-6.7863,-6.8365,-6.9574,-7.0752,-7.1675,-7.2325,-7.4661,-7.7522,-7.8806,-8.0119,-8.2018,-8.3693,-8.505,-8.6394,-0.3209,-0.4958,-0.6415,-0.7872,-0.9618,-1.1363,-1.3106,-1.4552,-1.6295,-1.7742,-1.9186,-2.0341,-2.18,-2.3253,-2.3232,-2.3219,-2.3219,-2.3219,-2.3219,-2.3219,-2.3219,-2.3219,-2.3219,-2.3219,-2.3219,-2.3219,-2.3219,-2.3219,-2.3219,-2.3219,-2.3219,-2.3219,-2.3219,-2.3219,-2.3219,-2.3219,-2.3219,-2.3219,-2.3219,-2.3219,-2.3219,-2.3219,-2.3219,-2.3219,-2.3219,-2.3219,-2.3219,-2.3219,-2.3219,-2.3219,-2.3219,-2.3219,-2.3492,-2.4654,-2.6101,-2.7555,-2.8957,-3.0371,-3.1772,-3.3469,-3.5441,-3.7405,-3.8825,-4.0486,-4.215,-4.2967,-4.4083,-4.4922,-4.5471,-4.5745,-4.5745,-4.5745,-4.5745,-4.5745,-4.5745,-4.5745,-4.5745,-4.5745,-4.5745,-4.5745,-4.5745,-4.5745,-4.5745,-4.5745,-4.6567,-4.7386,-4.7946,-4.8748,-5.0914,-5.2529,-5.3867,-5.54,-5.5981,-5.7506,-6.0337,-6.2773,-6.5079,-6.6096,-6.6603,-6.6875,-6.6855,-6.7863,-6.8866,-6.9823,-7.0794,-7.192,-7.3098,-7.545,-7.776,-7.9415,-8.1029,-8.2345,-8.392,-8.5724,-8.6838,-0.175,-0.4666,-0.4666,-0.6413,-0.8745,-0.9909,-1.1654,-1.3977,-1.5426,-1.6874,-1.8609,-2.0052,-2.1506,-2.2664,-2.3232,-2.3219,-2.3219,-2.3219,-2.3219,-2.3219,-2.3219,-2.3219,-2.3219,-2.3219,-2.3219,-2.3219,-2.3219,-2.3219,-2.3219,-2.3219,-2.3219,-2.3219,-2.3219,-2.3219,-2.3219,-2.3219,-2.3219,-2.3219,-2.3219,-2.3219,-2.3219,-2.3219,-2.3219,-2.3219,-2.3219,-2.3219,-2.3219,-2.3219,-2.3219,-2.3219,-2.3219,-2.3219,-2.3506,-2.4661,-2.6116,-2.7611,-2.8412,-2.9518,-3.093,-3.2621,-3.4315,-3.6564,-3.7976,-3.9662,-4.1041,-4.239,-4.3494,-4.4634,-4.5196,-4.5745,-4.5745,-4.5745,-4.5745,-4.5745,-4.5745,-4.5745,-4.5745,-4.5745,-4.5745,-4.5745,-4.5745,-4.5745,-4.5745,-4.5745,-4.6567,-4.7386,-4.7932,-4.8748,-5.0914,-5.2797,-5.4118,-5.5384,-5.6244,-5.8828,-6.1651,-6.3031,-6.5079,-6.6349,-6.6855,-6.7108,-6.7108,-6.8114,-6.8866,-6.9615,-7.0546,-7.192,-7.3584,-7.5602,-7.7646,-7.9955,-8.1588,-8.3033,-8.4575,-8.6146,-8.7476,-0.175,-0.4668,-0.4666,-0.5832,-0.7583,-0.9039,-1.0782,-1.3106,-1.4552,-1.629,-1.7742,-1.9769,-2.0923,-2.1499,-2.265,-2.3219,-2.3219,-2.3219,-2.3219,-2.3219,-2.3219,-2.3219,-2.3219,-2.3219,-2.3219,-2.3219,-2.3219,-2.3219,-2.3219,-2.3219,-2.3219,-2.3219,-2.3219,-2.3219,-2.3219,-2.3219,-2.3219,-2.3219,-2.3219,-2.3219,-2.3219,-2.3219,-2.3219,-2.3219,-2.3219,-2.3219,-2.3219,-2.3219,-2.3219,-2.3219,-2.3219,-2.3219,-2.3219,-2.4087,-2.555,-2.7006,-2.7841,-2.8664,-3.0363,-3.1772,-3.3469,-3.5712,-3.7405,-3.9093,-4.074,-4.1788,-4.2905,-4.4345,-4.5209,-4.5745,-4.5745,-4.5745,-4.5745,-4.5745,-4.5745,-4.5745,-4.5745,-4.5745,-4.5745,-4.5745,-4.5745,-4.5745,-4.5745,-4.5745,-4.6567,-4.7386,-4.7946,-4.9291,-5.1453,-5.2797,-5.36,-5.5087,-5.6524,-5.9712,-6.3489,-6.4039,-6.5334,-6.6349,-6.6855,-6.736,-6.7612,-6.8365,-6.9116,-6.9864,-7.0794,-7.2388,-7.3827,-7.5513,-7.7861,-8.0447,-8.198,-8.3441,-8.48,-8.6368,-8.7942,-0.0875,-0.2334,-0.4083,-0.5249,-0.6124,-0.7872,-0.9912,-1.1654,-1.3682,-1.5426,-1.7163,-1.8898,-2.0341,-2.1211,-2.2657,-2.3232,-2.3219,-2.3219,-2.3219,-2.3219,-2.3219,-2.3219,-2.3219,-2.3219,-2.3219,-2.3219,-2.3219,-2.3219,-2.3219,-2.3219,-2.3219,-2.3219,-2.3219,-2.3219,-2.3219,-2.3219,-2.3219,-2.3219,-2.3219,-2.3219,-2.3219,-2.3219,-2.3219,-2.3219,-2.3219,-2.3219,-2.3219,-2.3219,-2.3219,-2.3219,-2.3219,-2.3219,-2.3219,-2.38,-2.4668,-2.6124,-2.6967,-2.8093,-2.9794,-3.1205,-3.2621,-3.4878,-3.6575,-3.8255,-3.9918,-4.0993,-4.2365,-4.4384,-4.5209,-4.5745,-4.5745,-4.5745,-4.5745,-4.5745,-4.5745,-4.5745,-4.5745,-4.5745,-4.5745,-4.5745,-4.5745,-4.5745,-4.5745,-4.6019,-4.6567,-4.7113,-4.7673,-4.9562,-5.1722,-5.2797,-5.3333,-5.5633,-5.7362,-6.0561,-6.3508,-6.455,-6.5353,-6.6349,-6.7108,-6.738,-6.7883,-6.8616,-6.9365,-7.0112,-7.1513,-7.2898,-7.3917,-7.5314,-7.8006,-8.0681,-8.2186,-8.3693,-8.505,-8.6394,-8.8162,-0.0,-0.0292,-0.2918,-0.4376,-0.4958,-0.7,-0.8748,-1.0491,-1.2816,-1.4557,-1.6295,-1.7742,-1.9469,-2.0629,-2.2082,-2.3239,-2.3219,-2.3219,-2.3219,-2.3219,-2.3219,-2.3219,-2.3219,-2.3219,-2.3219,-2.3219,-2.3219,-2.3219,-2.3219,-2.3219,-2.3219,-2.3219,-2.3219,-2.3219,-2.3219,-2.3219,-2.3219,-2.3219,-2.3219,-2.3219,-2.3219,-2.3219,-2.3219,-2.3219,-2.3219,-2.3219,-2.3219,-2.3219,-2.3219,-2.3219,-2.3219,-2.3219,-2.3219,-2.3219,-2.3793,-2.494,-2.5807,-2.7523,-2.9225,-3.0647,-3.1781,-3.3761,-3.5733,-3.7136,-3.8814,-4.0764,-4.2728,-4.5013,-4.5524,-4.5471,-4.5745,-4.5745,-4.5745,-4.5745,-4.5745,-4.5745,-4.5745,-4.5745,-4.5745,-4.5745,-4.5745,-4.5745,-4.5745,-4.5745,-4.6293,-4.7113,-4.7659,-4.9019,-5.0914,-5.1991,-5.3301,-5.6178,-5.8495,-6.141,-6.3545,-6.4569,-6.5607,-6.6622,-6.7127,-6.738,-6.7863,-6.8616,-6.9615,-7.0856,-7.2067,-7.3449,-7.4158,-7.5747,-7.9087,-8.1451,-8.2695,-8.3969,-8.55,-8.7034,-8.8573,-0.0,-0.0292,-0.175,-0.35,-0.4957,-0.6417,-0.7874,-0.9618,-1.1944,-1.3686,-1.5422,-1.7448,-1.8593,-1.9741,-2.2062,-2.3225,-2.3219,-2.3219,-2.3219,-2.3219,-2.3219,-2.3219,-2.3219,-2.3219,-2.3219,-2.3219,-2.3219,-2.3219,-2.3219,-2.3219,-2.3219,-2.3219,-2.3219,-2.3219,-2.3219,-2.3219,-2.3219,-2.3219,-2.3219,-2.3219,-2.3219,-2.3219,-2.3219,-2.3219,-2.3219,-2.3219,-2.3219,-2.3219,-2.3219,-2.3219,-2.3219,-2.3219,-2.3219,-2.3219,-2.3212,-2.3779,-2.4933,-2.6379,-2.8085,-2.951,-3.093,-3.2904,-3.4597,-3.6284,-3.8535,-4.0764,-4.3005,-4.5302,-4.5249,-4.5196,-4.5471,-4.5745,-4.5745,-4.5745,-4.5745,-4.5745,-4.5745,-4.5745,-4.5745,-4.5745,-4.5745,-4.5745,-4.5745,-4.5745,-4.6019,-4.684,-4.7659,-4.9019,-5.0374,-5.1722,-5.349,-5.6063,-5.8791,-6.1723,-6.3545,-6.4588,-6.5607,-6.6622,-6.7127,-6.738,-6.8114,-6.9116,-7.036,-7.1596,-7.2824,-7.3913,-7.4552,-7.6572,-7.9978,-8.2243,-8.3504,-8.4949,-8.6394,-8.7696,-8.9009,-0.0,-0.0,-0.0583,-0.2334,-0.4668,-0.5541,-0.6707,-0.8745,-1.0782,-1.2525,-1.4557,-1.6295,-1.8309,-2.0035,-2.2363,-2.3232,-2.3225,-2.3219,-2.3219,-2.3219,-2.3219,-2.3219,-2.3219,-2.3219,-2.3219,-2.3219,-2.3219,-2.3219,-2.3219,-2.3219,-2.3219,-2.3219,-2.3219,-2.3219,-2.3219,-2.3219,-2.3219,-2.3219,-2.3219,-2.3219,-2.3219,-2.3219,-2.3219,-2.3219,-2.3219,-2.3219,-2.3219,-2.3219,-2.3219,-2.3219,-2.3219,-2.3219,-2.3219,-2.3219,-2.3212,-2.3212,-2.4367,-2.5799,-2.7515,-2.8655,-3.0363,-3.2055,-3.3741,-3.5722,-3.8255,-4.0486,-4.2439,-4.4135,-4.466,-4.4922,-4.5471,-4.5745,-4.5745,-4.5745,-4.5745,-4.5745,-4.5745,-4.5745,-4.5745,-4.5745,-4.5745,-4.5745,-4.5745,-4.5745,-4.6019,-4.6567,-4.7659,-4.8748,-5.0629,-5.2781,-5.4508,-5.6162,-5.8931,-6.1741,-6.3545,-6.4843,-6.5607,-6.6622,-6.736,-6.7863,-6.8616,-6.9615,-7.0856,-7.2334,-7.38,-7.4552,-7.4943,-7.7329,-8.0423,-8.2402,-8.4108,-8.5475,-8.6616,-8.7916,-8.9444,-0.0,-0.0,-0.0,-0.1459,-0.4085,-0.4375,-0.5832,-0.7874,-0.9618,-1.1654,-1.3686,-1.6006,-1.8315,-2.0341,-2.2082,-2.3239,-2.3219,-2.3219,-2.3219,-2.3219,-2.3219,-2.3219,-2.3219,-2.3219,-2.3219,-2.3219,-2.3219,-2.3219,-2.3219,-2.3219,-2.3219,-2.3219,-2.3219,-2.3219,-2.3219,-2.3219,-2.3219,-2.3219,-2.3219,-2.3219,-2.3219,-2.3219,-2.3219,-2.3219,-2.3219,-2.3219,-2.3219,-2.3219,-2.3219,-2.3219,-2.3219,-2.3219,-2.3219,-2.3219,-2.3219,-2.3506,-2.408,-2.5234,-2.6658,-2.8085,-2.9794,-3.1489,-3.3459,-3.5712,-3.7954,-3.9918,-4.1584,-4.2955,-4.3808,-4.4634,-4.5196,-4.5471,-4.5745,-4.5745,-4.5745,-4.5745,-4.5745,-4.5745,-4.5745,-4.5745,-4.5745,-4.5745,-4.5745,-4.5745,-4.6019,-4.6567,-4.7386,-4.8748,-5.0899,-5.3317,-5.4757,-5.6408,-5.8931,-6.1482,-6.3563,-6.5098,-6.5861,-6.6603,-6.736,-6.8114,-6.8866,-7.0112,-7.1371,-7.2824,-7.4528,-7.5425,-7.5806,-7.8082,-8.0563,-8.2767,-8.4466,-8.54,-8.6591,-8.8136,-9.0281,-0.0,-0.0,-0.0,-0.0875,-0.2625,-0.4083,-0.5541,-0.7291,-0.8748,-1.0782,-1.3686,-1.658,-1.8304,-1.9452,-2.1787,-2.2958,-2.3225,-2.3219,-2.3219,-2.3219,-2.3219,-2.3219,-2.3219,-2.3219,-2.3219,-2.3219,-2.3219,-2.3219,-2.3219,-2.3219,-2.3219,-2.3219,-2.3219,-2.3219,-2.3219,-2.3219,-2.3219,-2.3219,-2.3219,-2.3219,-2.3219,-2.3219,-2.3219,-2.3219,-2.3219,-2.3219,-2.3219,-2.3219,-2.3219,-2.3219,-2.3219,-2.3219,-2.3219,-2.3219,-2.3219,-2.3219,-2.38,-2.4661,-2.5799,-2.7237,-2.8655,-3.0638,-3.3177,-3.5431,-3.7372,-3.9082,-4.0462,-4.1812,-4.2955,-4.4083,-4.4647,-4.5196,-4.5745,-4.5745,-4.5745,-4.5745,-4.5745,-4.5745,-4.5745,-4.5745,-4.5745,-4.5745,-4.5745,-4.5745,-4.5745,-4.6019,-4.7386,-4.8748,-5.1169,-5.3569,-5.4741,-5.6507,-5.9,-6.1446,-6.4057,-6.5098,-6.5627,-6.6622,-6.7612,-6.8114,-6.8866,-7.0112,-7.1864,-7.3313,-7.4968,-7.5836,-7.7034,-7.9021,-8.1166,-8.3178,-8.4797,-8.5998,-8.7891,-8.985,-9.1987,-0.0,-0.0,-0.0,-0.0875,-0.2334,-0.4083,-0.5543,-0.7002,-0.8165,-1.0778,-1.4262,-1.6585,-1.8026,-1.917,-2.0917,-2.267,-2.3239,-2.3225,-2.3219,-2.3219,-2.3219,-2.3219,-2.3219,-2.3219,-2.3219,-2.3219,-2.3219,-2.3219,-2.3219,-2.3219,-2.3219,-2.3219,-2.3219,-2.3219,-2.3219,-2.3219,-2.3219,-2.3219,-2.3219,-2.3219,-2.3219,-2.3219,-2.3219,-2.3219,-2.3219,-2.3219,-2.3219,-2.3219,-2.3219,-2.3219,-2.3219,-2.3219,-2.3219,-2.3219,-2.3219,-2.3219,-2.3506,-2.4087,-2.4948,-2.6379,-2.8093,-3.0647,-3.2904,-3.515,-3.6532,-3.8524,-3.9929,-4.1295,-4.2679,-4.3795,-4.4647,-4.5196,-4.5745,-4.5745,-4.5745,-4.5745,-4.5745,-4.5745,-4.5745,-4.5745,-4.5745,-4.5745,-4.5745,-4.5745,-4.5745,-4.5745,-4.7113,-4.8748,-5.1438,-5.3553,-5.5006,-5.6507,-5.8722,-6.1428,-6.4057,-6.5117,-6.5665,-6.6641,-6.7863,-6.8365,-6.9365,-7.1103,-7.2824,-7.4021,-7.5406,-7.6335,-7.7922,-7.9978,-8.2042,-8.4141,-8.5475,-8.6641,-8.8766,-9.1137,-9.3247,-0.0,-0.0,-0.0,-0.0584,-0.175,-0.3793,-0.5253,-0.6417,-0.7291,-1.0197,-1.4552,-1.63,-1.7747,-1.8892,-2.0641,-2.2382,-2.2958,-2.3232,-2.3219,-2.3219,-2.3219,-2.3219,-2.3219,-2.3219,-2.3219,-2.3219,-2.3219,-2.3219,-2.3219,-2.3219,-2.3219,-2.3219,-2.3219,-2.3219,-2.3219,-2.3219,-2.3219,-2.3219,-2.3219,-2.3219,-2.3219,-2.3219,-2.3219,-2.3219,-2.3219,-2.3219,-2.3219,-2.3219,-2.3219,-2.3219,-2.3219,-2.3219,-2.3219,-2.3219,-2.3219,-2.3219,-2.3219,-2.3506,-2.4661,-2.6086,-2.8093,-3.0363,-3.2055,-3.4023,-3.5982,-3.7685,-3.9372,-4.1077,-4.2716,-4.3795,-4.4371,-4.4922,-4.5471,-4.5745,-4.5745,-4.5745,-4.5745,-4.5745,-4.5745,-4.5745,-4.5745,-4.5745,-4.5745,-4.6019,-4.6293,-4.6567,-4.7386,-4.9019,-5.1707,-5.3537,-5.5038,-5.6541,-5.8653,-6.1356,-6.4039,-6.49,-6.5722,-6.7147,-6.8114,-6.8866,-7.0112,-7.1843,-7.3313,-7.4748,-7.5864,-7.7351,-7.8998,-8.0977,-8.3057,-8.5172,-8.6372,-8.7942,-8.985,-9.2225,-9.3899,-0.0,-0.0,-0.0,-0.0,-0.0583,-0.3501,-0.4668,-0.5249,-0.6707,-0.9618,-1.3106,-1.5721,-1.7463,-1.8903,-2.0647,-2.2094,-2.2965,-2.3232,-2.3219,-2.3225,-2.3219,-2.3219,-2.3219,-2.3219,-2.3219,-2.3219,-2.3219,-2.3219,-2.3219,-2.3219,-2.3219,-2.3219,-2.3219,-2.3219,-2.3219,-2.3219,-2.3219,-2.3219,-2.3219,-2.3219,-2.3219,-2.3219,-2.3219,-2.3219,-2.3219,-2.3219,-2.3219,-2.3219,-2.3219,-2.3219,-2.3219,-2.3219,-2.3219,-2.3219,-2.3219,-2.3219,-2.3219,-2.3506,-2.4367,-2.6658,-2.837,-3.0078,-3.1772,-3.3157,-3.4827,-3.6813,-3.9127,-4.1125,-4.2753,-4.3256,-4.4083,-4.4634,-4.5471,-4.5745,-4.5745,-4.5745,-4.5745,-4.5745,-4.5745,-4.5745,-4.5745,-4.5745,-4.6019,-4.6293,-4.7113,-4.7386,-4.7659,-4.9291,-5.1722,-5.3537,-5.5054,-5.6557,-5.8636,-6.1356,-6.4076,-6.4957,-6.6015,-6.7419,-6.8365,-6.9116,-7.036,-7.2089,-7.3556,-7.5231,-7.6842,-7.8151,-8.0025,-8.1923,-8.4221,-8.6473,-8.8096,-8.9686,-9.1404,-9.3066,-9.4726,-0.0,-0.0,-0.0,-0.0584,-0.1459,-0.2626,-0.3792,-0.4957,-0.7289,-1.02,-1.2816,-1.5136,-1.6879,-1.862,-1.9775,-2.123,-2.269,-2.2664,-2.265,-2.3219,-2.3219,-2.3219,-2.3219,-2.3219,-2.3219,-2.3219,-2.3219,-2.3219,-2.3219,-2.3219,-2.3219,-2.3219,-2.3219,-2.3219,-2.3219,-2.3219,-2.3219,-2.3219,-2.3219,-2.3219,-2.3219,-2.3219,-2.3219,-2.3219,-2.3219,-2.3219,-2.3219,-2.3219,-2.3219,-2.3219,-2.3219,-2.3219,-2.3219,-2.3219,-2.3219,-2.3219,-2.3219,-2.38,-2.4661,-2.6086,-2.7523,-2.951,-3.0921,-3.2027,-3.3099,-3.6252,-3.886,-4.0871,-4.2753,-4.3269,-4.3795,-4.4908,-4.5471,-4.5745,-4.5745,-4.5745,-4.5745,-4.5745,-4.5745,-4.5745,-4.5745,-4.5745,-4.5745,-4.6567,-4.7386,-4.8204,-4.8748,-4.9833,-5.1991,-5.382,-5.5617,-5.6837,-5.8897,-6.1632,-6.3838,-6.5563,-6.6543,-6.7651,-6.8616,-6.9365,-7.0608,-7.2334,-7.4021,-7.5712,-7.7363,-7.923,-8.1279,-8.3343,-8.5998,-8.8122,-8.9331,-9.0548,-9.2252,-9.3692,-9.5341,-0.0,-0.0,-0.0,-0.0584,-0.1751,-0.2626,-0.3792,-0.5248,-0.758,-1.02,-1.1944,-1.3972,-1.5716,-1.7458,-1.8909,-1.9769,-2.1524,-2.2088,-2.2075,-2.2938,-2.3225,-2.3219,-2.3219,-2.3219,-2.3219,-2.3219,-2.3219,-2.3219,-2.3219,-2.3219,-2.3219,-2.3219,-2.3219,-2.3219,-2.3219,-2.3219,-2.3219,-2.3219,-2.3219,-2.3219,-2.3219,-2.3219,-2.3219,-2.3219,-2.3219,-2.3219,-2.3219,-2.3219,-2.3219,-2.3219,-2.3219,-2.3219,-2.3219,-2.3219,-2.3219,-2.3219,-2.3219,-2.4087,-2.4948,-2.5521,-2.7229,-2.9794,-3.0647,-3.1178,-3.2545,-3.568,-3.8591,-4.0871,-4.2489,-4.3269,-4.3795,-4.4908,-4.5471,-4.5745,-4.5745,-4.5745,-4.5745,-4.5745,-4.5745,-4.5745,-4.5745,-4.5745,-4.5745,-4.684,-4.7386,-4.8476,-4.9562,-5.0914,-5.226,-5.4103,-5.5897,-5.71,-5.8914,-6.1651,-6.4188,-6.6482,-6.7402,-6.8174,-6.8866,-6.9864,-7.135,-7.3069,-7.4506,-7.6192,-7.7815,-7.9909,-8.243,-8.4776,-8.7161,-8.8947,-9.0145,-9.1589,-9.2883,-9.4341,-9.5981,-0.0,-0.0,-0.0,-0.0,-0.0,-0.3209,-0.4375,-0.4958,-0.7289,-0.9039,-1.0782,-1.3106,-1.4847,-1.6295,-1.7737,-1.8603,-1.9469,-2.0917,-2.1781,-2.2363,-2.2644,-2.2931,-2.3219,-2.3219,-2.3219,-2.3219,-2.3219,-2.3219,-2.3219,-2.3219,-2.3219,-2.3219,-2.3219,-2.3219,-2.3219,-2.3219,-2.3219,-2.3219,-2.3219,-2.3219,-2.3219,-2.3219,-2.3219,-2.3219,-2.3219,-2.3219,-2.3219,-2.3219,-2.3219,-2.3219,-2.3219,-2.3219,-2.3219,-2.3219,-2.3219,-2.3219,-2.3219,-2.408,-2.5234,-2.5521,-2.7229,-2.951,-3.0363,-3.1169,-3.2554,-3.5098,-3.8009,-4.058,-4.2501,-4.3005,-4.3795,-4.4634,-4.5745,-4.5745,-4.5745,-4.5745,-4.5745,-4.5745,-4.5745,-4.5745,-4.5745,-4.5745,-4.6019,-4.6567,-4.7659,-4.8476,-4.9833,-5.1438,-5.2781,-5.4385,-5.6178,-5.7362,-5.9209,-6.1687,-6.4226,-6.6756,-6.7948,-6.8696,-6.9884,-7.0856,-7.2334,-7.38,-7.5494,-7.691,-7.8524,-8.0584,-8.3595,-8.5922,-8.8265,-8.9765,-9.0977,-9.2436,-9.3927,-9.5137,-9.6588,-0.0,-0.0,-0.0,-0.0,-0.0,-0.2042,-0.35,-0.4957,-0.6709,-0.8165,-0.9909,-1.2235,-1.3686,-1.4851,-1.6874,-1.8031,-1.8898,-1.9764,-2.1211,-2.1787,-2.2363,-2.265,-2.2931,-2.3219,-2.3219,-2.3219,-2.3219,-2.3219,-2.3219,-2.3219,-2.3219,-2.3219,-2.3219,-2.3219,-2.3219,-2.3219,-2.3219,-2.3219,-2.3219,-2.3219,-2.3219,-2.3219,-2.3219,-2.3219,-2.3219,-2.3219,-2.3219,-2.3219,-2.3219,-2.3219,-2.3219,-2.3219,-2.3219,-2.3219,-2.3219,-2.3219,-2.3219,-2.3793,-2.5234,-2.5521,-2.6943,-2.951,-3.0363,-3.1452,-3.2827,-3.4807,-3.7707,-4.0278,-4.22,-4.2967,-4.3782,-4.4634,-4.5471,-4.5745,-4.5745,-4.5745,-4.5745,-4.5745,-4.5745,-4.5745,-4.5745,-4.5745,-4.6019,-4.684,-4.7932,-4.8748,-4.9818,-5.1707,-5.3317,-5.4917,-5.6443,-5.7641,-5.9452,-6.1651,-6.4682,-6.7226,-6.8121,-6.8987,-7.0422,-7.1596,-7.3313,-7.477,-7.6215,-7.8029,-7.9792,-8.2152,-8.5001,-8.7383,-8.9644,-9.0654,-9.1589,-9.3275,-9.4754,-9.5981,-9.7191,-0.0,-0.0,-0.0,-0.0,-0.0,-0.0875,-0.2334,-0.3792,-0.5541,-0.7,-0.9039,-1.0491,-1.2235,-1.3977,-1.5431,-1.6879,-1.862,-1.9192,-2.0058,-2.0923,-2.1493,-2.2075,-2.2644,-2.2931,-2.2931,-2.2931,-2.3219,-2.3219,-2.3219,-2.3219,-2.3219,-2.3219,-2.3219,-2.3219,-2.3219,-2.3219,-2.3219,-2.3219,-2.3219,-2.3219,-2.3219,-2.3219,-2.3219,-2.3219,-2.3219,-2.3219,-2.3219,-2.3219,-2.3219,-2.3219,-2.3219,-2.3219,-2.3219,-2.3219,-2.3219,-2.3219,-2.3219,-2.408,-2.5234,-2.5521,-2.7229,-2.9225,-3.093,-3.2036,-3.342,-3.5389,-3.8009,-4.0604,-4.1886,-4.3193,-4.3769,-4.4634,-4.5183,-4.5745,-4.5745,-4.5745,-4.5745,-4.5745,-4.5745,-4.5745,-4.5745,-4.5745,-4.6293,-4.7113,-4.8204,-4.8748,-5.0089,-5.1976,-5.3584,-5.5183,-5.6706,-5.8182,-5.9747,-6.1873,-6.4644,-6.7382,-6.8565,-6.9716,-7.1145,-7.2334,-7.4043,-7.5712,-7.7623,-7.9348,-8.1248,-8.365,-8.5872,-8.8794,-9.1046,-9.1724,-9.2436,-9.3899,-9.5369,-9.6588,-9.779,-0.0,-0.0,-0.0,-0.0,-0.0,-0.0,-0.0875,-0.2334,-0.4083,-0.5832,-0.7874,-0.9036,-1.1072,-1.2816,-1.3981,-1.5721,-1.7168,-1.8036,-1.8898,-1.9775,-2.0341,-2.0917,-2.1787,-2.2075,-2.2644,-2.2938,-2.3225,-2.3219,-2.3219,-2.3219,-2.3219,-2.3219,-2.3219,-2.3219,-2.3219,-2.3219,-2.3219,-2.3219,-2.3219,-2.3219,-2.3219,-2.3219,-2.3219,-2.3219,-2.3219,-2.3219,-2.3219,-2.3219,-2.3219,-2.3219,-2.3219,-2.3219,-2.3219,-2.3219,-2.3219,-2.3219,-2.3219,-2.408,-2.4948,-2.5521,-2.7229,-2.9225,-3.0921,-3.2338,-3.4013,-3.5067,-3.7372,-4.0592,-4.22,-4.2955,-4.3782,-4.4908,-4.5471,-4.5745,-4.5745,-4.5745,-4.5745,-4.5745,-4.5745,-4.5745,-4.5745,-4.5745,-4.6019,-4.684,-4.7946,-4.8476,-5.0104,-5.2245,-5.3852,-5.5449,-5.6987,-5.8739,-5.9902,-6.1746,-6.4843,-6.7265,-6.8756,-7.0194,-7.1617,-7.3069,-7.4528,-7.6671,-7.9018,-8.0721,-8.2417,-8.4553,-8.6813,-8.9452,-9.1373,-9.2282,-9.3066,-9.4726,-9.5952,-9.7191,-9.8385,-0.0,-0.0,-0.0,-0.0,-0.0,-0.0,-0.0875,-0.2334,-0.4085,-0.5251,-0.6707,-0.8454,-0.9618,-1.0782,-1.2816,-1.4561,-1.5141,-1.6585,-1.7742,-1.832,-1.9186,-2.0052,-2.1205,-2.1499,-2.2075,-2.2363,-2.2931,-2.3219,-2.3219,-2.3219,-2.3219,-2.3219,-2.3219,-2.3219,-2.3219,-2.3219,-2.3219,-2.3219,-2.3219,-2.3219,-2.3219,-2.3219,-2.3219,-2.3219,-2.3219,-2.3219,-2.3219,-2.3219,-2.3219,-2.3219,-2.3219,-2.3219,-2.3219,-2.3219,-2.3219,-2.3219,-2.3219,-2.4087,-2.4948,-2.5807,-2.7229,-2.9501,-3.1214,-3.2913,-3.4003,-3.4746,-3.6716,-3.9953,-4.2249,-4.3005,-4.3795,-4.4908,-4.5745,-4.5745,-4.5745,-4.5745,-4.5745,-4.5745,-4.5745,-4.5745,-4.5745,-4.5745,-4.6019,-4.6567,-4.7673,-4.9019,-5.0914,-5.2797,-5.4369,-5.5963,-5.7827,-5.9279,-6.0002,-6.2077,-6.4965,-6.775,-6.9548,-7.0939,-7.2355,-7.38,-7.5253,-7.8098,-8.0655,-8.2128,-8.3876,-8.5473,-8.7374,-8.9731,-9.151,-9.2544,-9.3927,-9.5369,-9.656,-9.7988,-9.8975,-0.0,-0.0,-0.0,-0.0,-0.0,-0.0,-0.0584,-0.1459,-0.3793,-0.4961,-0.5543,-0.6998,-0.8163,-0.9036,-1.1363,-1.2525,-1.3106,-1.4552,-1.5711,-1.6869,-1.8031,-1.8898,-1.9764,-2.0635,-2.1499,-2.2075,-2.2644,-2.3219,-2.3219,-2.3219,-2.3219,-2.3219,-2.3219,-2.3219,-2.3219,-2.3219,-2.3219,-2.3219,-2.3219,-2.3219,-2.3219,-2.3219,-2.3219,-2.3219,-2.3219,-2.3219,-2.3219,-2.3219,-2.3219,-2.3219,-2.3219,-2.3219,-2.3219,-2.3219,-2.3219,-2.3219,-2.3506,-2.38,-2.4948,-2.5807,-2.6943,-2.951,-3.1489,-3.2913,-3.4315,-3.5358,-3.734,-4.0557,-4.2477,-4.3519,-4.3795,-4.4634,-4.5471,-4.5745,-4.5745,-4.5745,-4.5745,-4.5745,-4.5745,-4.5745,-4.5745,-4.6019,-4.6293,-4.7113,-4.7932,-4.9291,-5.1184,-5.3065,-5.4635,-5.6756,-5.8615,-6.0095,-6.0829,-6.2352,-6.5258,-6.8274,-7.0959,-7.2053,-7.309,-7.5231,-7.7148,-7.9745,-8.2042,-8.3319,-8.4528,-8.5718,-8.7904,-9.0571,-9.2097,-9.3202,-9.4575,-9.5981,-9.7391,-9.8582,-9.9366,-0.0,-0.0,-0.0,-0.0,-0.0,-0.0,-0.0,-0.0,-0.2917,-0.4376,-0.4669,-0.5543,-0.6998,-0.8163,-0.9327,-1.0197,-1.136,-1.2812,-1.3972,-1.5132,-1.6295,-1.7453,-1.8609,-1.9481,-2.0635,-2.2082,-2.2938,-2.3225,-2.3219,-2.3219,-2.3219,-2.3219,-2.3219,-2.3219,-2.3219,-2.3219,-2.3219,-2.3219,-2.3219,-2.3219,-2.3219,-2.3219,-2.3219,-2.3219,-2.3219,-2.3219,-2.3219,-2.3219,-2.3219,-2.3219,-2.3219,-2.3219,-2.3219,-2.3219,-2.3219,-2.3219,-2.3219,-2.408,-2.4948,-2.5521,-2.7515,-2.951,-3.1205,-3.2904,-3.4587,-3.6273,-3.8255,-4.0231,-4.215,-4.3519,-4.407,-4.4634,-4.5183,-4.5745,-4.5745,-4.5745,-4.5745,-4.5745,-4.5745,-4.5745,-4.5745,-4.6019,-4.684,-4.7386,-4.8476,-4.9833,-5.1438,-5.3317,-5.5167,-5.7284,-5.9139,-6.0874,-6.1948,-6.3833,-6.6077,-6.8836,-7.1829,-7.277,-7.4043,-7.6432,-7.8806,-8.1143,-8.296,-8.4476,-8.5696,-8.6847,-8.9122,-9.1858,-9.3025,-9.3856,-9.5192,-9.6588,-9.7988,-9.9171,-9.995,-0.0,-0.0,-0.0,-0.0,-0.0,-0.0,-0.0,-0.0,-0.0,-0.2334,-0.4085,-0.4668,-0.5249,-0.5831,-0.7872,-0.8745,-0.9324,-1.0782,-1.2525,-1.4267,-1.4847,-1.6006,-1.7453,-1.8609,-2.0635,-2.1794,-2.2657,-2.3232,-2.3225,-2.3219,-2.3219,-2.3219,-2.3219,-2.3219,-2.3219,-2.3219,-2.3219,-2.3219,-2.3219,-2.3219,-2.3219,-2.3219,-2.3219,-2.3219,-2.3219,-2.3219,-2.3219,-2.3219,-2.3219,-2.3219,-2.3219,-2.3219,-2.3219,-2.3219,-2.3219,-2.3219,-2.3219,-2.4087,-2.4948,-2.5521,-2.7229,-2.9794,-3.1498,-3.3206,-3.4587,-3.621,-3.8211,-3.9976,-4.1898,-4.3256,-4.3795,-4.4908,-4.5745,-4.5745,-4.5745,-4.5745,-4.5745,-4.5745,-4.5745,-4.5745,-4.5745,-4.6293,-4.684,-4.7659,-4.8748,-5.0089,-5.1976,-5.3569,-5.5449,-5.781,-5.9922,-6.1356,-6.2773,-6.4908,-6.734,-6.996,-7.2636,-7.3548,-7.499,-7.7623,-7.9979,-8.1812,-8.3619,-8.5176,-8.6635,-8.7801,-9.0386,-9.2737,-9.3893,-9.492,-9.6009,-9.7191,-9.8582,-9.9561,-10.0529]},{"header":{"parameterUnit":"m.s-1","parameterCategory":1,"la1":31.0,"la2":29.5877,"lo1":-88.7671,"lo2":-86.6584,"dx":0.0162,"dy":0.0185,"nx":115,"ny":88,"refTime":"2023-01-22T06:00:00:Z","depth":0,"parameterNumber":3,"parameterNumberName":"V-component_of_WINDS"},"data":[0.0,0.0,0.0,0.0,0.0,0.0,0.0,0.0,0.0,0.0,0.0,0.0,0.0,0.0,0.0,0.0,0.0,0.0,0.0,0.0,0.0,0.0,0.0,0.0,0.0,0.0,0.0,0.0,0.0,0.0,0.0,0.0,0.0,0.0,0.0,0.0,0.0,0.0,0.0,0.0,0.0,0.0,0.0,0.0,0.0,0.0,0.0,0.0,0.0,0.0,0.0,0.0,0.0,0.0,0.0,0.0,0.0,0.0,0.0,0.0,0.0,0.0,0.0,0.0,0.0,0.0,0.0,0.0,0.0,0.0,0.0,0.0,0.0,0.0,0.0,0.0,0.0,0.0,0.0,0.0,0.0,0.0,0.0,0.0,0.0,0.0,0.0,0.0,0.0,0.0,0.0,0.0,0.0,0.0,0.0,0.0,0.0,0.0,0.0,0.0,0.0,0.0,0.0,0.0,0.0,0.0,0.0,0.0,0.0,0.0,0.0,0.0,0.0,0.0,0.0,0.0,0.0,0.0,0.0,0.0,0.0,0.0,0.0,0.0,0.0,0.0,0.0,0.0,0.0,0.0,0.0,0.0,0.0,0.0,0.0,0.0,0.0,0.0,0.0,0.0,0.0,0.0,0.0,0.0,0.0,0.0,0.0,0.0,0.0,0.0,0.0,0.0,0.0,0.0,0.0,0.0,0.0,0.0,0.0,0.0,0.0,0.0,0.0,0.0,0.0,0.0,0.0,0.0,0.0,0.0,0.0,0.0,0.0,0.0,0.0,0.0,0.0,0.0,0.0,0.0,0.0,0.0,0.0,0.0,0.0,0.0,0.0,0.0,0.0,0.0,0.0,0.0,0.0,0.0,0.0,0.0,0.0,0.0,0.0,0.0,0.0,0.0,0.0,0.0,0.0,0.0,0.0,0.0,0.0,0.0,0.0,0.0,0.0,0.0,0.0,0.0,0.0,0.0,0.0,0.0,0.0,0.0,0.0,0.0,0.0,0.0,0.0,0.0,0.0,0.0,0.0,0.0,0.0,0.0,0.0,0.0,0.0,0.0,0.0,0.0,0.0,0.0,0.0,0.0,0.0,0.0,0.0,0.0,0.0,0.0,0.0,0.0,0.0,0.0,0.0,0.0,0.0,0.0,0.0,0.0,0.0,0.0,0.0,0.0,0.0,0.0,0.0,0.0,0.0,0.0,0.0,0.0,0.0,0.0,0.0,0.0,0.0,0.0,0.0,0.0,0.0,0.0,0.0,0.0,0.0,0.0,0.0,0.0,0.0,0.0,0.0,0.0,0.0,0.0,0.0,0.0,0.0,0.0,0.0,0.0,0.0,0.0,0.0,0.0,0.0,0.0,0.0,0.0,0.0,0.0,0.0,0.0,0.0,0.0,0.0,0.0,0.0,0.0,0.0,0.0,0.0,0.0,0.0,0.0,0.0,0.0,0.0,0.0,0.0,0.0,0.0,0.0,0.0,0.0,0.0,0.0,0.0,0.0,0.0,0.0,0.0,0.0,0.0,0.0,0.0,0.0,0.0,0.0,0.0,0.0,0.0,0.0,0.0,0.0,0.0,0.0,0.0,0.0,0.0,0.0,0.0,0.0,0.0,0.0,0.0,0.0,0.0,0.0,0.0,0.0,0.0,0.0,0.0,0.0,0.0,0.0,0.0,0.0,0.0,0.0,0.0,0.0,0.0,0.0,0.0,0.0,0.0,0.0,0.0,0.0,0.0,0.0,0.0,0.0,0.0,0.0,0.0,0.0,0.0,0.0,0.0,0.0,0.0,0.0,0.0,0.0,0.0,0.0,0.0,0.0,0.0,0.0,0.0,0.0,0.0,0.0,0.0,0.0,0.0,0.0,0.0,0.0,0.0,0.0,0.0,0.0,0.0,0.0,0.0,0.0,0.0,0.0,0.0,0.0,0.0,0.0,0.0,0.0,0.0,0.0,0.0,0.0,0.0,0.0,0.0,0.0,0.0,0.0,0.0,0.0,0.0,0.0,0.0,0.0,0.0,0.0,0.0,0.0,0.0,0.0,0.0,0.0,0.0,0.0,0.0,0.0,0.0,0.0,0.0,0.0,0.0,0.0,0.0,0.0,0.0,0.0,0.0,0.0,0.0,0.0,0.0,0.0,0.0,0.0,0.0,0.0,0.0,0.0,0.0,0.0,0.0,0.0,0.0,0.0,0.0,0.0,0.0,0.0,0.0,0.0,0.0,0.0,0.0,0.0,0.0,0.0,0.0,0.0,0.0,0.0,0.0,0.0,0.0,0.0,0.0,0.0,0.0,0.0,0.0,0.0,0.0,0.0,0.0,0.0,0.0,0.0,0.0,0.0,0.0,0.0,0.0,0.0,0.0,0.0,0.0,0.0,0.0,0.0,0.0,0.0,0.0,0.0,0.0,0.0,0.0,0.0,0.0,0.0,0.0,0.0,0.0,0.0,0.0,0.0,0.0,0.0,0.0,0.0,0.0,0.0,0.0,0.0,0.0,0.0,0.0,0.0,0.0,0.0,0.0,0.0,0.0,0.0,0.0,0.0,0.0,0.0,0.0,0.0,0.0,0.0,0.0,0.0,0.0,0.0,0.0,0.0,0.0,0.0,0.0,0.0,0.0,0.0,0.0,0.0,0.0,0.0,0.0,0.0,0.0,0.0,0.0,0.0,0.0,0.0,0.0,0.0,0.0,0.0,0.0,0.0,0.0,0.0,0.0,0.0,0.0,0.0,0.0,0.0,0.0,0.0,0.0,0.0,0.0,0.0,0.0,0.0,0.0,0.0,0.0,0.0,0.0,0.0,0.0,0.0,0.0,0.0,0.0,0.0,0.0,0.0,0.0,0.0,0.0,0.0,0.0,0.0,0.0,0.0,0.0,0.0,0.0,0.0,0.0,0.0,0.0,0.0,0.0,0.0,0.0,0.0,0.0,0.0,0.0,0.0,0.0,0.0,0.0,0.0,0.0,0.0,0.0,0.0,0.0,0.0,0.0,0.0,0.0,0.0,0.0,0.0,0.0,0.0,0.0,0.0,0.0,0.0,0.0,0.0,0.0,0.0,0.0,0.0,0.0,0.0,0.0,0.0,0.0,0.0,0.0,0.0,0.0,0.0,0.0,0.0,0.0,0.0,0.0,0.0,0.0,0.0,0.0,0.0,0.0,0.0,0.0,0.0,0.0,0.0,0.0,0.0,0.0,0.0,0.0,0.0,0.0,0.0,0.0,0.0,0.0,0.0,0.0,0.0,0.0,0.0,0.0,0.0,0.0,0.0,0.0,0.0,0.0,0.0,0.0,0.0,0.0,0.0,0.0,0.0,0.0,0.0,0.0,0.0,0.0,0.0,0.0,0.0,0.0,0.0,0.0,0.0,0.0,0.0,0.0,0.0,0.0,0.0,0.0,0.0,0.0,0.0,0.0,0.0,0.0,0.0,0.0,0.0,0.0,0.0,0.0,0.0,0.0,0.0,0.0,0.0,0.0,0.0,0.0,0.0,0.0,0.0,0.0,0.0,0.0,0.0,0.0,0.0,0.0,0.0,0.0,0.0,0.0,0.0,0.0,0.0,0.0,0.0,0.0,0.0,0.0,0.0,0.0,0.0,0.0,0.0,0.0,0.0,0.0,0.0,0.0,0.0,0.0,0.0,0.0,0.0,0.0,0.0,0.0,0.0,0.0,0.0,0.0,0.0,0.0,0.0,0.0,0.0,0.0,0.0,0.0,0.0,0.0,0.0,0.0,0.0,0.0,0.0,0.0,0.0,0.0,0.0,0.0,0.0,0.0,0.0,0.0,0.0,0.0,0.0,0.0,0.0,0.0,0.0,0.0,0.0,0.0,0.0,0.0,0.0,0.0,0.0,0.0,0.0,0.0,0.0,0.0,0.0,0.0,0.0,0.0,0.0,0.0,0.0,0.0,0.0,0.0,0.0,0.0,0.0,0.0,0.0,0.0,0.0,0.0,0.0,0.0,0.0,0.0,0.0,0.0,0.0,0.0,0.0,0.0,0.0,0.0,0.0,0.0,0.0,0.0,0.0,0.0,0.0,0.0,0.0,0.0,0.0,0.0,0.0,0.0,0.0,0.0,0.0,0.0,0.0,0.0,0.0,0.0,0.0,0.0,0.0,0.0,0.0,0.0,0.0,0.0,0.0,0.0,0.0,0.0,0.0,0.0,0.0,0.0,0.0,0.0,0.0,0.0,0.0,0.0,0.0,0.0,0.0,0.0,0.0,0.0,0.0,0.0,0.0,0.0,0.0,0.0,0.0,-9.0885,0.0,0.0,0.0,-8.8613,0.0,0.0,0.0,0.0,0.0,0.0,0.0,0.0,0.0,0.0,0.0,0.0,0.0,0.0,0.0,0.0,0.0,0.0,0.0,0.0,0.0,0.0,0.0,0.0,0.0,0.0,0.0,0.0,0.0,0.0,0.0,0.0,0.0,0.0,0.0,0.0,0.0,0.0,0.0,0.0,0.0,0.0,0.0,0.0,0.0,0.0,0.0,0.0,0.0,0.0,0.0,0.0,0.0,0.0,0.0,0.0,0.0,0.0,0.0,0.0,0.0,0.0,0.0,0.0,0.0,0.0,0.0,0.0,0.0,0.0,0.0,0.0,0.0,0.0,0.0,0.0,0.0,0.0,0.0,0.0,0.0,0.0,0.0,0.0,0.0,0.0,0.0,0.0,0.0,0.0,0.0,0.0,0.0,0.0,0.0,0.0,0.0,0.0,0.0,0.0,0.0,0.0,0.0,0.0,0.0,0.0,0.0,0.0,0.0,0.0,-9.0825,-9.0001,-8.9761,-8.9335,-8.8577,0.0,0.0,0.0,0.0,0.0,0.0,0.0,0.0,0.0,0.0,0.0,0.0,0.0,0.0,0.0,0.0,0.0,0.0,0.0,0.0,0.0,0.0,0.0,0.0,0.0,0.0,0.0,0.0,0.0,0.0,0.0,0.0,0.0,0.0,0.0,0.0,0.0,0.0,0.0,0.0,0.0,0.0,0.0,0.0,0.0,0.0,0.0,0.0,0.0,0.0,0.0,0.0,0.0,0.0,0.0,0.0,0.0,0.0,0.0,0.0,0.0,0.0,0.0,0.0,0.0,0.0,0.0,0.0,0.0,0.0,0.0,0.0,0.0,0.0,0.0,0.0,0.0,0.0,0.0,0.0,0.0,0.0,0.0,0.0,0.0,0.0,0.0,0.0,0.0,0.0,0.0,0.0,0.0,0.0,0.0,0.0,0.0,0.0,0.0,0.0,0.0,0.0,0.0,0.0,0.0,0.0,0.0,0.0,0.0,0.0,0.0,0.0,-8.9845,-8.9335,-8.8487,0.0,0.0,0.0,0.0,0.0,0.0,0.0,0.0,0.0,0.0,0.0,0.0,0.0,0.0,0.0,0.0,0.0,0.0,0.0,0.0,0.0,0.0,0.0,0.0,0.0,0.0,0.0,0.0,0.0,0.0,0.0,0.0,0.0,0.0,0.0,0.0,0.0,0.0,0.0,0.0,0.0,0.0,0.0,0.0,0.0,0.0,0.0,0.0,0.0,0.0,0.0,0.0,0.0,0.0,0.0,0.0,0.0,0.0,0.0,0.0,0.0,0.0,0.0,0.0,0.0,0.0,0.0,0.0,0.0,0.0,0.0,0.0,0.0,0.0,0.0,0.0,0.0,0.0,0.0,0.0,0.0,0.0,0.0,0.0,0.0,0.0,0.0,0.0,0.0,0.0,0.0,0.0,0.0,0.0,0.0,0.0,0.0,0.0,0.0,0.0,0.0,0.0,0.0,0.0,0.0,0.0,0.0,0.0,0.0,0.0,-9.102,-9.0537,-9.0156,0.0,-8.8029,0.0,0.0,0.0,0.0,0.0,0.0,0.0,0.0,0.0,0.0,0.0,0.0,0.0,0.0,0.0,0.0,0.0,0.0,0.0,0.0,0.0,0.0,0.0,0.0,0.0,0.0,0.0,0.0,0.0,0.0,0.0,0.0,0.0,0.0,0.0,0.0,0.0,0.0,0.0,0.0,0.0,0.0,0.0,0.0,0.0,0.0,0.0,0.0,0.0,0.0,0.0,0.0,0.0,0.0,0.0,0.0,0.0,0.0,0.0,0.0,0.0,0.0,0.0,0.0,0.0,0.0,0.0,0.0,0.0,0.0,0.0,0.0,0.0,0.0,0.0,0.0,0.0,0.0,0.0,0.0,0.0,0.0,0.0,0.0,0.0,0.0,0.0,0.0,0.0,0.0,0.0,0.0,0.0,0.0,0.0,0.0,0.0,0.0,0.0,0.0,0.0,0.0,0.0,0.0,0.0,0.0,0.0,0.0,0.0,0.0,-9.1027,-9.0581,-8.9797,-8.9148,0.0,0.0,0.0,0.0,0.0,0.0,0.0,0.0,0.0,0.0,0.0,0.0,0.0,0.0,0.0,0.0,0.0,0.0,0.0,0.0,0.0,0.0,0.0,0.0,0.0,0.0,0.0,0.0,0.0,0.0,0.0,0.0,0.0,0.0,0.0,0.0,0.0,0.0,0.0,0.0,0.0,0.0,0.0,0.0,0.0,0.0,0.0,0.0,0.0,0.0,0.0,0.0,0.0,0.0,0.0,0.0,0.0,0.0,0.0,0.0,0.0,0.0,0.0,0.0,0.0,0.0,0.0,0.0,0.0,0.0,0.0,0.0,0.0,0.0,0.0,0.0,0.0,0.0,0.0,0.0,0.0,0.0,0.0,0.0,0.0,0.0,0.0,0.0,0.0,0.0,0.0,0.0,0.0,0.0,0.0,0.0,0.0,0.0,0.0,0.0,0.0,0.0,0.0,0.0,0.0,0.0,0.0,0.0,0.0,0.0,-9.1327,-9.0993,-9.0421,-8.9722,-8.9289,-8.9271,0.0,0.0,0.0,0.0,0.0,0.0,0.0,0.0,0.0,0.0,0.0,0.0,0.0,0.0,0.0,0.0,0.0,0.0,0.0,0.0,0.0,0.0,0.0,0.0,0.0,0.0,0.0,0.0,0.0,0.0,0.0,0.0,0.0,0.0,0.0,0.0,0.0,0.0,0.0,0.0,0.0,0.0,0.0,0.0,0.0,0.0,0.0,0.0,0.0,0.0,0.0,0.0,0.0,0.0,0.0,0.0,0.0,0.0,0.0,0.0,0.0,0.0,0.0,0.0,0.0,0.0,0.0,0.0,0.0,0.0,0.0,0.0,0.0,0.0,0.0,0.0,0.0,0.0,0.0,0.0,0.0,0.0,0.0,0.0,0.0,0.0,0.0,0.0,0.0,0.0,0.0,0.0,0.0,0.0,0.0,0.0,0.0,0.0,0.0,0.0,0.0,0.0,0.0,0.0,0.0,0.0,0.0,0.0,-9.1767,-9.1363,-9.0842,-9.012,-9.0259,-9.0001,0.0,0.0,0.0,0.0,0.0,0.0,0.0,0.0,0.0,0.0,0.0,0.0,0.0,0.0,0.0,0.0,0.0,0.0,0.0,0.0,0.0,0.0,0.0,0.0,0.0,0.0,0.0,0.0,0.0,0.0,0.0,0.0,0.0,0.0,0.0,0.0,0.0,0.0,0.0,0.0,0.0,0.0,0.0,0.0,0.0,0.0,0.0,0.0,0.0,0.0,0.0,0.0,0.0,0.0,0.0,0.0,0.0,0.0,0.0,0.0,0.0,0.0,0.0,0.0,0.0,0.0,0.0,0.0,0.0,0.0,0.0,0.0,0.0,0.0,0.0,0.0,0.0,0.0,0.0,0.0,0.0,0.0,0.0,0.0,0.0,0.0,0.0,0.0,0.0,0.0,0.0,0.0,0.0,0.0,0.0,0.0,0.0,0.0,0.0,0.0,0.0,0.0,0.0,0.0,0.0,0.0,0.0,0.0,0.0,-9.1803,-9.1431,-9.1023,-9.0743,-9.0703,-9.0838,0.0,0.0,0.0,0.0,0.0,0.0,0.0,0.0,0.0,0.0,0.0,0.0,0.0,0.0,0.0,0.0,0.0,0.0,0.0,0.0,0.0,0.0,0.0,0.0,0.0,0.0,0.0,0.0,0.0,0.0,0.0,0.0,0.0,0.0,0.0,0.0,0.0,0.0,0.0,0.0,0.0,0.0,0.0,0.0,0.0,0.0,0.0,0.0,0.0,0.0,0.0,0.0,0.0,0.0,0.0,0.0,0.0,0.0,0.0,0.0,0.0,0.0,0.0,0.0,0.0,0.0,0.0,0.0,0.0,0.0,0.0,0.0,0.0,0.0,0.0,0.0,0.0,0.0,0.0,0.0,0.0,0.0,0.0,0.0,0.0,0.0,0.0,0.0,0.0,0.0,0.0,0.0,0.0,0.0,0.0,0.0,0.0,0.0,0.0,0.0,0.0,0.0,0.0,0.0,0.0,0.0,0.0,0.0,0.0,-9.2097,0.0,-9.1867,-9.1703,-9.1628,-9.1818,0.0,0.0,0.0,0.0,0.0,0.0,0.0,0.0,0.0,0.0,0.0,0.0,0.0,0.0,0.0,0.0,0.0,0.0,0.0,0.0,0.0,0.0,0.0,0.0,0.0,0.0,0.0,0.0,0.0,0.0,0.0,0.0,0.0,0.0,0.0,0.0,0.0,0.0,0.0,0.0,0.0,0.0,0.0,0.0,0.0,0.0,0.0,0.0,0.0,0.0,0.0,0.0,0.0,0.0,0.0,0.0,0.0,0.0,0.0,0.0,0.0,0.0,0.0,0.0,0.0,0.0,0.0,0.0,0.0,0.0,0.0,0.0,0.0,0.0,0.0,0.0,0.0,0.0,0.0,0.0,0.0,0.0,0.0,0.0,0.0,0.0,0.0,0.0,0.0,0.0,0.0,0.0,0.0,0.0,0.0,0.0,0.0,0.0,0.0,0.0,0.0,0.0,0.0,0.0,0.0,0.0,0.0,0.0,-9.2207,-9.2794,-9.3316,-9.338,-9.3044,-9.3021,-9.3229,0.0,0.0,0.0,0.0,0.0,0.0,0.0,0.0,0.0,0.0,0.0,0.0,0.0,0.0,0.0,0.0,0.0,0.0,0.0,0.0,0.0,0.0,0.0,0.0,0.0,0.0,0.0,0.0,0.0,0.0,0.0,0.0,0.0,0.0,0.0,0.0,0.0,0.0,0.0,0.0,0.0,0.0,0.0,0.0,0.0,0.0,0.0,0.0,0.0,0.0,0.0,0.0,0.0,0.0,0.0,0.0,0.0,0.0,0.0,0.0,0.0,0.0,0.0,0.0,0.0,0.0,0.0,0.0,0.0,0.0,0.0,0.0,0.0,0.0,0.0,0.0,0.0,0.0,0.0,0.0,0.0,0.0,0.0,0.0,0.0,0.0,0.0,0.0,0.0,0.0,0.0,0.0,0.0,0.0,0.0,0.0,0.0,0.0,0.0,0.0,0.0,0.0,0.0,0.0,0.0,0.0,0.0,0.0,0.0,-9.3639,-9.365,-9.3715,-9.3867,-9.4007,-9.4321,0.0,0.0,0.0,0.0,0.0,0.0,0.0,0.0,0.0,0.0,0.0,0.0,0.0,0.0,0.0,0.0,0.0,0.0,0.0,0.0,0.0,0.0,0.0,0.0,0.0,0.0,0.0,0.0,0.0,0.0,0.0,0.0,0.0,0.0,0.0,0.0,0.0,0.0,0.0,0.0,0.0,0.0,0.0,0.0,0.0,0.0,0.0,0.0,0.0,0.0,0.0,0.0,0.0,0.0,0.0,0.0,0.0,0.0,0.0,0.0,0.0,0.0,0.0,0.0,0.0,0.0,0.0,0.0,0.0,0.0,0.0,0.0,0.0,0.0,0.0,0.0,0.0,0.0,0.0,0.0,0.0,0.0,0.0,0.0,0.0,0.0,0.0,0.0,0.0,0.0,0.0,0.0,0.0,0.0,0.0,0.0,0.0,0.0,0.0,0.0,0.0,0.0,0.0,0.0,0.0,0.0,0.0,0.0,0.0,-9.5474,-9.5151,-9.5068,-9.535,-9.5549,-9.5845,-9.6051,0.0,0.0,0.0,0.0,0.0,0.0,0.0,0.0,0.0,0.0,0.0,0.0,0.0,0.0,0.0,0.0,0.0,0.0,0.0,0.0,0.0,0.0,0.0,0.0,0.0,0.0,0.0,0.0,0.0,0.0,0.0,0.0,0.0,0.0,0.0,0.0,0.0,0.0,0.0,0.0,0.0,0.0,0.0,0.0,0.0,0.0,0.0,0.0,0.0,0.0,0.0,0.0,0.0,0.0,0.0,0.0,0.0,0.0,0.0,0.0,0.0,0.0,0.0,0.0,0.0,0.0,0.0,0.0,0.0,0.0,0.0,0.0,0.0,0.0,0.0,0.0,0.0,0.0,0.0,0.0,0.0,0.0,0.0,0.0,0.0,0.0,0.0,0.0,0.0,0.0,0.0,0.0,0.0,0.0,0.0,0.0,0.0,0.0,0.0,0.0,0.0,0.0,0.0,0.0,0.0,0.0,0.0,0.0,-9.7978,-9.7568,-9.7367,-9.7232,-9.7347,-9.7623,0.0,0.0,0.0,0.0,0.0,0.0,0.0,0.0,0.0,0.0,0.0,0.0,0.0,0.0,0.0,0.0,0.0,0.0,0.0,0.0,0.0,0.0,0.0,0.0,0.0,0.0,0.0,0.0,0.0,0.0,0.0,0.0,0.0,0.0,0.0,0.0,0.0,0.0,0.0,0.0,0.0,0.0,0.0,0.0,0.0,0.0,0.0,0.0,0.0,0.0,0.0,0.0,0.0,0.0,0.0,0.0,0.0,0.0,0.0,0.0,0.0,0.0,0.0,0.0,0.0,0.0,0.0,0.0,0.0,0.0,0.0,0.0,0.0,0.0,0.0,0.0,0.0,0.0,0.0,0.0,0.0,0.0,0.0,0.0,0.0,0.0,0.0,0.0,0.0,0.0,0.0,0.0,0.0,0.0,0.0,0.0,0.0,0.0,0.0,0.0,0.0,0.0,0.0,0.0,0.0,0.0,0.0,0.0,0.0,-9.8778,-9.9712,-9.9462,-9.8158,-9.8302,-9.872,0.0,0.0,0.0,0.0,0.0,0.0,0.0,0.0,0.0,0.0,0.0,0.0,0.0,0.0,0.0,0.0,0.0,0.0,0.0,0.0,0.0,0.0,0.0,0.0,0.0,0.0,0.0,0.0,0.0,0.0,0.0,0.0,0.0,0.0,0.0,0.0,0.0,0.0,0.0,0.0,0.0,0.0,0.0,0.0,0.0,0.0,0.0,0.0,0.0,0.0,0.0,0.0,0.0,0.0,0.0,0.0,0.0,0.0,0.0,0.0,0.0,0.0,0.0,0.0,0.0,0.0,0.0,0.0,0.0,0.0,0.0,0.0,0.0,0.0,0.0,0.0,0.0,0.0,0.0,0.0,0.0,0.0,0.0,0.0,0.0,0.0,0.0,0.0,0.0,0.0,0.0,0.0,0.0,0.0,0.0,0.0,0.0,0.0,0.0,0.0,0.0,0.0,0.0,0.0,0.0,0.0,0.0,0.0,-10.0115,-10.0068,-10.156,-10.1816,-10.0638,-10.0536,-10.065,0.0,0.0,0.0,0.0,0.0,0.0,0.0,0.0,0.0,0.0,0.0,0.0,0.0,0.0,0.0,0.0,0.0,0.0,0.0,0.0,0.0,0.0,0.0,0.0,0.0,0.0,0.0,0.0,0.0,0.0,0.0,0.0,0.0,0.0,0.0,0.0,0.0,0.0,0.0,0.0,0.0,0.0,0.0,0.0,0.0,0.0,0.0,0.0,0.0,0.0,0.0,0.0,0.0,0.0,0.0,0.0,0.0,0.0,0.0,0.0,0.0,0.0,0.0,0.0,0.0,0.0,0.0,0.0,0.0,0.0,0.0,0.0,0.0,0.0,0.0,0.0,0.0,0.0,0.0,0.0,0.0,0.0,0.0,0.0,0.0,0.0,0.0,0.0,0.0,0.0,0.0,0.0,0.0,0.0,0.0,0.0,0.0,0.0,0.0,0.0,0.0,0.0,0.0,0.0,0.0,0.0,0.0,0.0,-10.166,-10.177,-10.3338,-10.4091,-10.3875,-10.3263,-10.2927,0.0,0.0,0.0,0.0,0.0,0.0,0.0,0.0,0.0,0.0,0.0,0.0,0.0,0.0,0.0,0.0,0.0,0.0,0.0,0.0,0.0,0.0,0.0,0.0,0.0,0.0,0.0,0.0,0.0,0.0,0.0,0.0,0.0,0.0,0.0,0.0,0.0,0.0,0.0,0.0,0.0,0.0,0.0,0.0,0.0,0.0,0.0,0.0,0.0,0.0,0.0,0.0,0.0,0.0,0.0,0.0,0.0,0.0,0.0,0.0,0.0,0.0,0.0,0.0,0.0,0.0,0.0,0.0,0.0,0.0,0.0,0.0,0.0,0.0,0.0,0.0,0.0,0.0,0.0,0.0,0.0,0.0,0.0,0.0,0.0,0.0,0.0,0.0,0.0,0.0,0.0,0.0,0.0,0.0,0.0,0.0,0.0,0.0,0.0,0.0,0.0,0.0,0.0,0.0,0.0,0.0,0.0,0.0,-10.2742,-10.3411,-10.5007,-10.5876,-10.5827,-10.4266,-10.3532,0.0,0.0,0.0,0.0,0.0,0.0,0.0,0.0,0.0,0.0,0.0,0.0,0.0,0.0,0.0,0.0,0.0,0.0,0.0,0.0,0.0,0.0,0.0,0.0,0.0,0.0,0.0,0.0,0.0,0.0,0.0,0.0,0.0,0.0,0.0,0.0,0.0,0.0,0.0,0.0,0.0,0.0,0.0,0.0,0.0,0.0,0.0,0.0,-9.2097,0.0,0.0,0.0,0.0,0.0,0.0,0.0,0.0,0.0,0.0,0.0,0.0,0.0,0.0,0.0,0.0,0.0,0.0,0.0,0.0,0.0,0.0,0.0,0.0,0.0,0.0,0.0,0.0,0.0,0.0,0.0,0.0,0.0,0.0,0.0,0.0,0.0,0.0,0.0,0.0,0.0,0.0,0.0,0.0,0.0,0.0,0.0,0.0,0.0,0.0,0.0,0.0,0.0,0.0,0.0,0.0,0.0,0.0,0.0,-10.4614,-10.5147,-10.6621,-10.7562,-10.7512,-10.6609,-10.6071,0.0,0.0,0.0,0.0,0.0,0.0,0.0,0.0,0.0,0.0,0.0,0.0,0.0,0.0,0.0,0.0,0.0,0.0,0.0,0.0,0.0,0.0,0.0,0.0,0.0,0.0,0.0,0.0,0.0,0.0,0.0,0.0,0.0,0.0,0.0,0.0,0.0,0.0,0.0,0.0,0.0,0.0,0.0,0.0,0.0,0.0,0.0,0.0,0.0,0.0,0.0,0.0,0.0,0.0,0.0,0.0,0.0,0.0,0.0,0.0,0.0,0.0,0.0,0.0,0.0,0.0,0.0,0.0,0.0,0.0,0.0,0.0,0.0,0.0,0.0,0.0,0.0,0.0,0.0,0.0,0.0,0.0,0.0,0.0,0.0,0.0,0.0,0.0,0.0,0.0,0.0,0.0,0.0,0.0,0.0,0.0,0.0,0.0,0.0,0.0,0.0,0.0,0.0,0.0,0.0,0.0,0.0,-10.4981,-10.6534,-10.6811,-10.8175,-10.8955,-10.8976,-10.9115,-10.9079,-10.883,0.0,0.0,0.0,0.0,0.0,0.0,0.0,0.0,0.0,0.0,0.0,0.0,0.0,0.0,0.0,0.0,0.0,0.0,0.0,0.0,0.0,0.0,0.0,0.0,0.0,0.0,0.0,0.0,0.0,0.0,0.0,0.0,0.0,0.0,0.0,0.0,0.0,0.0,-9.7217,-9.7185,0.0,0.0,0.0,0.0,0.0,0.0,0.0,0.0,-9.547,0.0,0.0,0.0,0.0,0.0,0.0,0.0,0.0,0.0,0.0,0.0,0.0,0.0,0.0,0.0,0.0,0.0,0.0,0.0,0.0,0.0,0.0,0.0,0.0,0.0,0.0,0.0,0.0,0.0,0.0,0.0,0.0,0.0,0.0,0.0,0.0,0.0,0.0,0.0,0.0,0.0,0.0,0.0,0.0,0.0,0.0,0.0,0.0,0.0,0.0,0.0,0.0,0.0,0.0,0.0,0.0,-10.5532,-10.6119,-10.7037,-10.8407,-10.9312,-10.9776,-10.9797,-11.0436,-11.0817,-11.0656,0.0,0.0,0.0,0.0,0.0,0.0,0.0,0.0,0.0,0.0,0.0,0.0,0.0,0.0,0.0,0.0,0.0,0.0,0.0,0.0,0.0,0.0,0.0,0.0,0.0,0.0,0.0,0.0,0.0,0.0,0.0,0.0,0.0,0.0,0.0,0.0,0.0,0.0,0.0,-9.8458,-9.8282,0.0,0.0,0.0,0.0,0.0,0.0,0.0,0.0,-9.7662,0.0,0.0,0.0,0.0,0.0,0.0,0.0,0.0,0.0,0.0,0.0,0.0,0.0,0.0,0.0,0.0,0.0,0.0,0.0,0.0,0.0,0.0,0.0,0.0,0.0,0.0,0.0,0.0,0.0,0.0,0.0,0.0,0.0,0.0,0.0,0.0,0.0,0.0,0.0,0.0,0.0,0.0,0.0,0.0,0.0,0.0,0.0,0.0,0.0,0.0,0.0,0.0,0.0,0.0,0.0,-10.6266,-10.722,-10.8481,-11.0036,-11.0868,-11.1478,-11.1829,-11.2249,-11.2432,0.0,0.0,0.0,0.0,0.0,0.0,0.0,0.0,0.0,0.0,0.0,0.0,0.0,0.0,0.0,0.0,0.0,0.0,0.0,0.0,0.0,0.0,0.0,0.0,0.0,0.0,0.0,0.0,0.0,0.0,0.0,0.0,0.0,0.0,0.0,0.0,0.0,0.0,0.0,0.0,-9.9058,-9.8884,-9.8917,0.0,0.0,0.0,0.0,0.0,0.0,-9.9442,-9.9249,0.0,0.0,0.0,0.0,0.0,0.0,0.0,0.0,0.0,0.0,0.0,0.0,0.0,0.0,0.0,0.0,0.0,0.0,0.0,0.0,0.0,0.0,0.0,0.0,0.0,0.0,0.0,0.0,0.0,0.0,0.0,0.0,0.0,0.0,0.0,0.0,0.0,0.0,0.0,0.0,0.0,0.0,0.0,0.0,0.0,0.0,0.0,0.0,0.0,0.0,0.0,0.0,0.0,0.0,0.0,-10.6853,-10.8468,-10.9987,-11.141,-11.2228,-11.2946,-11.3607,-11.3607,-11.357,0.0,0.0,0.0,0.0,0.0,0.0,0.0,0.0,0.0,0.0,0.0,0.0,0.0,0.0,0.0,0.0,0.0,0.0,0.0,0.0,0.0,0.0,0.0,0.0,0.0,0.0,0.0,0.0,0.0,0.0,0.0,0.0,0.0,0.0,0.0,0.0,0.0,0.0,0.0,0.0,0.0,-9.9816,-9.9849,-10.0441,0.0,0.0,0.0,0.0,-10.1269,-10.101,0.0,0.0,0.0,0.0,0.0,0.0,0.0,0.0,0.0,0.0,0.0,0.0,0.0,0.0,0.0,0.0,0.0,0.0,0.0,0.0,0.0,0.0,0.0,0.0,0.0,0.0,0.0,0.0,0.0,0.0,0.0,0.0,0.0,0.0,0.0,0.0,0.0,0.0,0.0,0.0,0.0,0.0,0.0,0.0,0.0,0.0,0.0,0.0,0.0,0.0,0.0,0.0,0.0,0.0,0.0,0.0,-10.8505,-11.012,-11.1383,-11.2279,-11.3073,-11.348,-11.3554,-11.359,-11.357,0.0,0.0,0.0,0.0,0.0,0.0,0.0,0.0,0.0,0.0,0.0,0.0,0.0,0.0,0.0,0.0,0.0,0.0,0.0,0.0,0.0,0.0,0.0,0.0,0.0,0.0,0.0,0.0,0.0,0.0,0.0,0.0,0.0,0.0,0.0,0.0,0.0,0.0,0.0,0.0,0.0,-10.2088,-10.2122,-10.2723,-10.302,0.0,0.0,-10.3148,-10.2456,-10.2764,0.0,0.0,0.0,0.0,0.0,0.0,0.0,0.0,0.0,0.0,0.0,0.0,0.0,0.0,0.0,0.0,0.0,0.0,0.0,0.0,0.0,0.0,0.0,0.0,0.0,0.0,0.0,0.0,0.0,0.0,0.0,0.0,0.0,0.0,0.0,0.0,0.0,0.0,0.0,0.0,0.0,0.0,0.0,0.0,0.0,0.0,0.0,0.0,0.0,0.0,0.0,0.0,0.0,0.0,0.0,-10.7624,-11.0083,-11.0854,-11.1992,-11.375,-11.4579,-11.513,-11.5661,-11.6047,-11.6103,0.0,0.0,0.0,0.0,0.0,0.0,0.0,0.0,0.0,0.0,0.0,0.0,0.0,0.0,0.0,0.0,0.0,0.0,0.0,0.0,0.0,0.0,0.0,0.0,0.0,0.0,0.0,0.0,0.0,0.0,0.0,0.0,0.0,0.0,0.0,0.0,0.0,0.0,0.0,0.0,0.0,0.0,-10.3094,-10.3764,0.0,0.0,0.0,-10.5264,-10.4736,0.0,0.0,0.0,0.0,0.0,0.0,0.0,0.0,0.0,0.0,0.0,0.0,0.0,0.0,0.0,0.0,0.0,0.0,0.0,0.0,0.0,0.0,0.0,0.0,0.0,0.0,0.0,0.0,0.0,0.0,0.0,0.0,0.0,0.0,0.0,0.0,0.0,0.0,0.0,0.0,0.0,0.0,0.0,0.0,0.0,0.0,0.0,0.0,0.0,0.0,0.0,0.0,0.0,0.0,0.0,0.0,0.0,-11.1323,-11.2169,-11.3456,-11.5183,-11.625,-11.6947,-11.7567,-11.8101,0.0,0.0,0.0,0.0,0.0,0.0,0.0,0.0,0.0,0.0,0.0,0.0,0.0,0.0,0.0,0.0,0.0,0.0,0.0,0.0,0.0,0.0,0.0,0.0,0.0,0.0,0.0,-10.1626,0.0,0.0,0.0,0.0,0.0,0.0,0.0,0.0,0.0,0.0,0.0,0.0,0.0,0.0,-10.4136,-10.4136,-10.4908,-10.5512,0.0,0.0,-10.7172,-10.6789,-10.6958,-10.6953,0.0,0.0,0.0,0.0,0.0,0.0,0.0,0.0,0.0,0.0,0.0,0.0,0.0,0.0,0.0,0.0,0.0,0.0,0.0,0.0,0.0,0.0,0.0,0.0,0.0,0.0,0.0,0.0,0.0,0.0,0.0,0.0,0.0,0.0,0.0,0.0,0.0,0.0,0.0,0.0,0.0,0.0,0.0,0.0,0.0,0.0,0.0,0.0,0.0,0.0,0.0,0.0,0.0,0.0,-11.1652,-11.1985,-11.4829,-11.6314,-11.6615,-11.7904,-11.8639,-11.874,-11.8505,-11.8379,0.0,0.0,0.0,0.0,0.0,0.0,0.0,0.0,0.0,0.0,0.0,0.0,0.0,0.0,0.0,0.0,0.0,0.0,0.0,0.0,0.0,0.0,0.0,0.0,0.0,0.0,0.0,0.0,0.0,0.0,0.0,0.0,0.0,0.0,0.0,0.0,0.0,0.0,0.0,0.0,0.0,-10.5582,-10.5582,-10.6832,-10.7745,0.0,-10.7914,-10.8388,-10.799,-10.7689,-10.7368,-10.6966,0.0,0.0,0.0,0.0,0.0,0.0,0.0,0.0,0.0,0.0,0.0,0.0,0.0,0.0,0.0,0.0,0.0,0.0,0.0,0.0,0.0,0.0,0.0,0.0,0.0,0.0,0.0,0.0,0.0,0.0,0.0,0.0,0.0,0.0,0.0,0.0,0.0,0.0,0.0,0.0,0.0,0.0,0.0,0.0,0.0,0.0,0.0,0.0,0.0,0.0,0.0,0.0,0.0,-11.2871,-11.4792,-11.6047,-11.7229,-11.8248,-11.9281,-11.9818,-11.9799,-12.015,-12.0132,0.0,0.0,0.0,0.0,0.0,0.0,0.0,0.0,0.0,0.0,0.0,0.0,0.0,0.0,0.0,0.0,0.0,0.0,0.0,0.0,0.0,0.0,0.0,0.0,0.0,0.0,0.0,0.0,-10.552,-10.5355,-10.4852,0.0,0.0,0.0,0.0,0.0,0.0,0.0,0.0,0.0,0.0,-10.6629,-10.7103,-10.7644,0.0,0.0,-10.9202,-10.9541,-10.9077,-10.9297,-10.9346,-10.8632,-10.8192,0.0,0.0,0.0,0.0,0.0,0.0,0.0,0.0,0.0,0.0,0.0,0.0,0.0,0.0,0.0,0.0,0.0,0.0,0.0,0.0,0.0,0.0,0.0,0.0,0.0,0.0,0.0,0.0,0.0,0.0,0.0,0.0,0.0,0.0,0.0,0.0,0.0,0.0,0.0,0.0,0.0,0.0,0.0,0.0,0.0,0.0,0.0,0.0,0.0,0.0,0.0,0.0,-11.4845,-11.7107,-11.7811,-11.8812,-11.9934,-12.0859,-12.1325,-12.1346,-12.1698,-12.1698,0.0,0.0,0.0,0.0,0.0,0.0,0.0,0.0,0.0,0.0,0.0,0.0,0.0,0.0,0.0,0.0,0.0,0.0,0.0,0.0,0.0,0.0,0.0,0.0,0.0,0.0,0.0,0.0,-10.729,-10.6801,-10.6339,0.0,0.0,0.0,0.0,0.0,0.0,0.0,0.0,0.0,0.0,-10.7644,-10.8389,-10.8557,-10.8896,-10.9437,-11.0184,-11.0452,-11.0307,-11.0746,-11.1009,-11.0349,0.0,0.0,0.0,0.0,0.0,0.0,0.0,0.0,0.0,0.0,0.0,0.0,0.0,0.0,0.0,0.0,0.0,0.0,0.0,0.0,0.0,0.0,0.0,0.0,0.0,0.0,0.0,0.0,0.0,0.0,-10.906,0.0,0.0,0.0,0.0,0.0,0.0,0.0,0.0,0.0,0.0,0.0,0.0,0.0,0.0,0.0,0.0,0.0,0.0,0.0,0.0,0.0,0.0,-11.7969,-11.8118,-12.0316,-12.1616,-12.1691,-12.2832,-12.3364,-12.3438,-12.299,-12.2769,-12.2696,0.0,0.0,0.0,0.0,0.0,0.0,0.0,0.0,0.0,0.0,0.0,0.0,0.0,0.0,0.0,0.0,0.0,0.0,0.0,0.0,0.0,0.0,0.0,0.0,0.0,0.0,-10.8231,-10.796,-10.7721,0.0,0.0,0.0,0.0,0.0,0.0,0.0,0.0,0.0,-10.8951,-10.8789,-10.8828,-10.9542,-11.0017,-11.0215,-11.0283,-11.0892,-11.1365,-11.1365,-11.159,-11.1919,0.0,0.0,0.0,0.0,0.0,0.0,0.0,0.0,0.0,0.0,0.0,0.0,0.0,0.0,0.0,0.0,0.0,0.0,0.0,0.0,0.0,0.0,0.0,0.0,0.0,0.0,0.0,-11.0944,-11.1406,0.0,0.0,0.0,0.0,0.0,0.0,0.0,0.0,0.0,0.0,0.0,-11.725,-11.8051,0.0,0.0,0.0,0.0,0.0,0.0,0.0,0.0,0.0,0.0,0.0,0.0,-11.8985,-12.0434,-12.1294,-12.2265,-12.334,-12.3732,-12.4206,-12.4716,-12.4667,-12.4282,-12.37,0.0,0.0,0.0,0.0,0.0,0.0,0.0,0.0,0.0,0.0,0.0,0.0,0.0,0.0,0.0,0.0,0.0,0.0,0.0,0.0,0.0,0.0,0.0,0.0,0.0,-11.0522,0.0,0.0,0.0,0.0,0.0,0.0,0.0,0.0,0.0,0.0,0.0,-10.9566,-10.9806,-10.9707,-10.998,-11.0764,-11.0664,-11.0867,0.0,0.0,0.0,0.0,0.0,0.0,0.0,0.0,0.0,0.0,0.0,0.0,0.0,0.0,-10.665,-10.5037,-10.3776,-10.3006,-10.2266,0.0,0.0,0.0,0.0,0.0,0.0,0.0,0.0,0.0,0.0,0.0,0.0,0.0,0.0,0.0,0.0,-11.4022,0.0,0.0,0.0,0.0,0.0,0.0,0.0,0.0,-11.9275,-11.9661,-11.9719,-12.0561,-12.0778,0.0,-12.1057,-12.0507,0.0,0.0,0.0,0.0,0.0,0.0,0.0,0.0,-12.0833,-12.2519,-12.2894,-12.3677,-12.5026,-12.5239,-12.5651,-12.61,-12.613,-12.5636,-12.4865,-12.4783,-12.4066,0.0,0.0,0.0,0.0,0.0,0.0,0.0,0.0,0.0,0.0,0.0,0.0,0.0,0.0,0.0,0.0,0.0,0.0,0.0,0.0,0.0,0.0,0.0,-11.2915,0.0,0.0,0.0,0.0,0.0,0.0,0.0,0.0,0.0,-11.0437,-11.0627,-11.1075,-11.135,-11.1122,-11.1299,-11.2053,0.0,0.0,0.0,0.0,0.0,0.0,0.0,-11.3344,-11.3503,-11.3773,-11.3502,-11.2758,-11.2002,-11.1199,-11.0257,0.0,0.0,-10.6527,-10.521,-10.4301,-10.3457,-10.2687,-10.1909,-10.1367,-10.1003,-10.0667,0.0,0.0,0.0,0.0,0.0,0.0,0.0,0.0,-11.5407,-11.583,0.0,-11.6561,0.0,0.0,0.0,0.0,0.0,-11.9215,0.0,0.0,-12.1101,-12.1858,-12.2563,-12.3317,-12.354,-12.3395,-12.3376,-12.3202,-12.2809,-12.1126,0.0,0.0,0.0,0.0,0.0,0.0,-12.3491,-12.4212,-12.508,-12.5949,-12.67,-12.7337,-12.7641,-12.7683,-12.749,-12.6995,-12.609,-12.5894,-12.5439,-12.4534,-12.4334,0.0,0.0,0.0,0.0,0.0,0.0,0.0,0.0,0.0,0.0,0.0,0.0,0.0,0.0,0.0,0.0,0.0,0.0,0.0,0.0,-11.5528,0.0,0.0,0.0,0.0,0.0,0.0,0.0,0.0,0.0,0.0,-11.2677,-11.2434,-11.2629,-11.3359,0.0,0.0,0.0,0.0,-11.247,-11.2539,-11.2775,-11.2972,-11.3112,-11.4046,-11.4627,-11.4748,0.0,0.0,-11.4159,-11.3701,-11.3205,-11.2803,-11.1788,-10.994,-10.694,-10.5909,-10.518,-10.3926,-10.3324,-10.239,-10.1639,-10.1396,-10.1183,-11.9097,0.0,0.0,0.0,0.0,-11.6932,-11.7348,-11.8023,-11.8023,-11.8138,-11.8369,-11.8331,0.0,0.0,0.0,0.0,0.0,0.0,-12.2254,-12.2938,-12.3245,-12.3379,-12.3509,-12.4354,-12.4673,-12.4552,-12.5096,-12.5306,-12.5229,-12.5228,-12.4203,-12.2255,0.0,0.0,0.0,0.0,-12.4812,-12.547,-12.6303,-12.7107,-12.7985,-12.8136,-12.8547,-12.9044,-12.8884,-12.8437,-12.7606,-12.7382,-12.6853,-12.5908,-12.5073,0.0,0.0,0.0,0.0,0.0,0.0,0.0,0.0,0.0,0.0,0.0,0.0,0.0,0.0,0.0,0.0,0.0,0.0,0.0,-11.5998,-11.5854,-11.5746,0.0,0.0,0.0,0.0,0.0,0.0,0.0,0.0,0.0,-11.5696,-11.4842,-11.4364,0.0,0.0,-11.4079,-11.4322,-11.3673,-11.3449,-11.3999,-11.3767,0.0,-11.4472,-11.4926,-11.5211,-11.5459,-11.5369,-11.5061,-11.4912,-11.4311,-11.3701,-11.3271,-11.2489,-11.1369,-10.9876,-10.8252,-10.7076,-10.5995,-10.5181,-10.4273,-10.3336,-10.2816,-10.2447,-12.2571,-12.0378,-11.9562,-11.9377,-11.9605,-11.96,-11.9928,-12.06,-12.06,-12.0793,-12.11,-12.11,-12.1062,-12.1108,-12.1062,0.0,0.0,0.0,-12.3832,-12.4639,-12.4986,-12.5245,-12.5542,-12.6387,-12.6709,-12.6644,-12.7074,-12.7304,-12.7228,-12.771,-12.6989,-12.5266,0.0,0.0,-12.5436,-12.5893,-12.6512,-12.7214,-12.767,-12.8361,-12.9176,-12.9202,-12.9438,-12.988,-12.9826,-12.9544,-12.9089,-12.8839,-12.8317,-12.7267,-12.6515,-12.5645,0.0,0.0,0.0,0.0,0.0,0.0,0.0,0.0,0.0,0.0,0.0,-11.8168,-11.7878,0.0,0.0,0.0,-11.8155,-11.7926,-11.7677,-11.7431,0.0,0.0,0.0,0.0,0.0,0.0,0.0,-11.819,-11.8132,-11.8102,-11.846,-11.768,-11.6701,-11.5702,-11.5297,-11.5153,-11.5376,0.0,-11.4757,-11.529,-11.5097,-11.5002,-11.5367,-11.5613,-11.5763,-11.5797,-11.5651,-11.5357,-11.5209,-11.4762,-11.4344,-11.3701,-11.3083,-11.2265,-11.1369,-10.9965,-10.8611,-10.7574,-10.6505,-10.5396,-10.4643,-10.3943,-10.339,-12.5642,-12.5251,-12.3587,-12.2585,-12.2116,-12.2114,-12.2444,-12.2985,-12.2985,-12.3408,-12.4101,-12.4101,-12.411,-12.4118,-12.4178,0.0,-12.4245,-12.437,-12.487,-12.564,-12.6486,-12.7294,-12.8025,-12.8794,-12.9167,-12.9014,-12.9025,-12.8924,-12.8816,-12.8873,-12.8873,-12.8877,-12.8555,-12.8215,-12.7874,-12.7912,-12.8369,-12.913,-12.9207,-12.9625,-13.0387,-13.0399,-13.0368,-13.0368,-13.0363,-13.0322,-13.0322,-13.0113,-12.9568,-12.8709,-12.8385,-12.7229,-12.5271,0.0,0.0,0.0,0.0,0.0,0.0,0.0,0.0,0.0,0.0,0.0,0.0,0.0,0.0,-11.9131,-11.9934,0.0,-12.0271,-11.9724,0.0,0.0,0.0,-11.8696,-11.866,-11.8805,-11.9022,-11.9779,0.0,0.0,-12.0784,-12.0519,-11.9491,-11.7101,-11.6533,-11.6419,-11.6791,-11.6523,-11.6424,-11.6579,-11.6772,-11.6749,-11.6235,-11.6315,-11.6213,-11.5864,-11.5797,-11.5684,-11.5357,-11.5209,-11.4912,-11.4159,-11.3701,-11.2984,-11.1713,-11.0787,-10.9863,-10.8472,-10.7199,-10.5902,-10.5365,-10.4461,-10.3759,-12.83,-12.7946,-12.7532,-12.5985,-12.3892,-12.3889,-12.387,-12.3793,-12.3832,-12.3947,-12.4101,-12.4101,-12.4101,-12.4139,-12.4793,-12.5091,-12.513,-12.6447,-12.7101,-12.7371,-12.8217,-12.8717,-12.8909,-12.9102,-12.9217,-12.9167,-12.914,-12.914,-12.9117,-12.9629,-12.9885,-12.9882,-13.0316,-12.9859,-12.8615,-12.9151,-12.9572,-12.9763,-13.0414,-13.0832,-13.1071,-13.1044,-13.1026,-13.0903,-13.0766,-13.0604,-13.0516,-13.0387,-13.0142,-12.9885,-12.8968,-12.8158,-12.7674,-12.6439,0.0,0.0,0.0,0.0,0.0,0.0,0.0,0.0,0.0,-12.0324,-12.0229,0.0,-12.0765,0.0,-12.184,-12.2115,-12.1912,-12.181,0.0,0.0,-12.1603,-12.1499,-12.1463,-12.1536,-12.1576,-12.1797,-12.1368,-12.1151,-12.1403,-12.0964,-12.0488,-11.9868,-11.9108,-11.8555,-11.8613,-11.8041,-11.7735,-11.8217,-11.7788,-11.7468,-11.744,-11.6878,-11.6223,-11.5831,-11.5797,-11.5831,-11.5651,-11.5357,-11.5061,-11.4462,-11.3854,-11.3073,-11.2144,-11.1334,-11.0355,-10.9365,-10.7798,-10.6465,-10.5545,-10.4674,-10.3759,-12.9778,-12.9482,-12.9468,-12.842,-12.6745,-12.6702,-12.6568,-12.6371,-12.6371,-12.6371,-12.6371,-12.6332,-12.638,-12.6419,-12.6871,-12.7101,-12.7178,-12.8063,-12.8486,-12.8525,-12.9371,-12.9794,-12.9794,-13.0141,-13.0333,-13.0333,-13.0294,-13.0294,-13.0333,-13.0718,-13.0859,-13.0885,-13.1241,-13.1011,-13.0166,-13.0389,-13.0564,-13.0564,-13.1062,-13.1313,-13.1294,-13.1309,-13.1249,-13.1198,-13.1084,-13.1006,-13.0887,-13.0766,-13.0642,-13.0541,-12.9827,-12.9113,-12.8532,-12.7642,-12.6854,0.0,0.0,0.0,0.0,0.0,0.0,0.0,0.0,0.0,0.0,0.0,-12.2183,-12.2613,-12.2881,-12.3001,-12.2901,-12.2801,-12.27,-12.27,-12.2598,-12.2496,-12.2496,-12.2532,-12.2611,-12.3012,-12.2767,-12.2702,-12.2994,-12.2743,-12.2562,-12.2453,-12.1863,-12.1037,-12.0131,-11.9463,-11.9134,-11.9406,-11.8764,-11.8078,-11.7716,-11.698,-11.6266,-11.5831,-11.5797,-11.5797,-11.5797,-11.5684,-11.539,-11.4945,-11.4311,-11.3635,-11.2874,-11.191,-11.0849,-10.9841,-10.849,-10.7199,-10.6257,-10.4855,-10.3759,-13.0673,-13.0375,-13.032,-13.0078,-12.9704,-12.9743,-12.9574,-12.9179,-12.9179,-12.9179,-12.9179,-12.919,-12.9151,-12.9151,-12.9179,-12.9179,-12.9217,-12.9333,-12.9371,-12.9448,-13.0256,-13.0641,-13.0679,-13.1372,-13.1679,-13.1679,-13.1679,-13.1679,-13.1679,-13.1679,-13.1679,-13.1679,-13.1679,-13.1679,-13.1679,-13.1457,-13.1348,-13.1348,-13.1348,-13.1348,-13.1348,-13.1384,-13.1333,-13.1333,-13.1341,-13.1292,-13.1292,-13.1218,-13.1044,-13.0887,-13.0704,-13.0044,-12.8785,-12.864,-12.8018,0.0,-12.6076,0.0,0.0,0.0,0.0,0.0,0.0,0.0,0.0,-12.3359,-12.3432,-12.3467,-12.3566,-12.3591,-12.3591,-12.3394,-12.3294,-12.3294,-12.3093,-12.289,-12.289,-12.289,-12.3145,-12.3832,-12.3875,-12.4204,-12.4788,-12.497,-12.4761,-12.4298,-12.4083,-12.3172,-12.1761,-12.0998,-12.0648,-12.0363,-11.9664,-11.8685,-11.7543,-11.6838,-11.641,-11.5976,-11.5831,-11.5797,-11.5797,-11.5797,-11.5684,-11.5243,-11.4762,-11.4311,-11.3547,-11.2456,-11.1274,-11.028,-10.9079,-10.8002,-10.6786,-10.5365,-10.4126,-13.1462,-13.1246,-13.0976,-13.0753,-13.0591,-13.1192,-13.0596,-12.9217,-12.9179,-12.9179,-12.9179,-12.9179,-12.9179,-12.9179,-12.9179,-12.9167,-12.9244,-12.9948,-13.0256,-13.0294,-13.1102,-13.1448,-13.1448,-13.1602,-13.1679,-13.1679,-13.1679,-13.1679,-13.1679,-13.1679,-13.1679,-13.1679,-13.1679,-13.1679,-13.1679,0.0,0.0,0.0,-13.1667,-13.1667,-13.1667,-13.159,-13.1564,-13.1448,-13.1486,0.0,-13.1292,-13.1292,-13.118,-13.1006,-13.0887,0.0,0.0,0.0,0.0,0.0,0.0,0.0,0.0,0.0,0.0,0.0,-12.4591,-12.4044,-12.3371,-12.3885,-12.4289,-12.4336,-12.4813,-12.5243,-12.5243,-12.5243,-12.5107,-12.5107,-12.5143,-12.5143,-12.5143,-12.5107,-12.518,-12.529,-12.5162,-12.5023,-12.5226,-12.5067,-12.4866,-12.4761,-12.4513,-12.4119,-12.3427,-12.2486,-12.1614,-12.1024,-11.9945,-11.89,-11.8059,-11.7262,-11.6696,-11.641,-11.5976,-11.5797,-11.5797,-11.5797,-11.5651,-11.5209,-11.4912,-11.4311,-11.3581,-11.2613,-11.1597,-11.0415,-10.9385,-10.8314,-10.7136,-10.5902,-10.4824,-13.2328,0.0,-13.1821,-13.1625,0.0,-13.18,-13.1317,-13.041,-13.0448,-13.0448,-13.0448,-13.0448,-13.0448,-13.041,-13.0448,-13.0448,-13.0436,-13.091,-13.1102,-13.1102,-13.1487,-13.1679,-13.1679,-13.1679,-13.1679,-13.1679,-13.1679,-13.1679,-13.1679,-13.1679,-13.1679,-13.1679,-13.1679,-13.1679,-13.1679,-13.1679,-13.1679,-13.1679,-13.1679,-13.1679,-13.1679,-13.1679,-13.1641,-13.1602,-13.159,0.0,0.0,0.0,0.0,0.0,0.0,0.0,0.0,0.0,0.0,-12.9452,-12.8588,-12.7893,-12.7439,-12.6603,-12.5999,-12.5855,-12.5452,-12.511,-12.4509,-12.4839,-12.5096,-12.5033,-12.5463,-12.5684,-12.5684,-12.5684,-12.5684,-12.5684,-12.5684,-12.5684,-12.5684,-12.5684,-12.5684,-12.5684,-12.5583,-12.5547,-12.5537,-12.541,-12.528,-12.5074,-12.4866,-12.4513,-12.3974,-12.3081,-12.2032,-12.0935,-11.9851,-11.8935,-11.8196,-11.7473,-11.6878,-11.6519,-11.6121,-11.5797,-11.5797,-11.5797,-11.5651,-11.5538,-11.5061,-11.4462,-11.4007,-11.3083,-11.1951,-11.1011,-10.9889,-10.8654,-10.7484,-10.6257,-10.5005,-13.2921,-13.2678,-13.2478,-13.2233,-13.2114,-13.1895,-13.1818,-13.1679,0.0,0.0,0.0,-13.1679,-13.1679,-13.1679,-13.1679,-13.1679,-13.1679,-13.1679,-13.1679,-13.1679,-13.1679,-13.1679,-13.1679,-13.1679,-13.1679,-13.1679,-13.1679,-13.1679,-13.1679,-13.1679,-13.1679,-13.1679,-13.1679,-13.1679,-13.1679,-13.1679,-13.1679,-13.1679,-13.1679,-13.1679,-13.1679,-13.1679,-13.1679,-13.1679,-13.1679,-13.1679,-13.1679,-13.1615,-13.1457,-13.1348,-13.1218,-13.0968,-13.0636,-13.044,-13.0151,-12.9701,-12.9192,-12.8732,-12.8287,-12.7905,-12.7293,-12.6484,-12.6041,-12.5783,-12.5684,-12.5684,-12.5684,-12.5684,-12.5684,-12.5684,-12.5684,-12.5684,-12.5684,-12.5684,-12.5684,-12.5684,-12.5684,-12.5684,-12.5684,-12.5684,-12.5684,-12.5684,-12.5684,-12.5684,-12.5583,-12.5382,-12.5074,-12.4656,-12.3865,-12.3081,-12.2032,-12.0775,-11.991,-11.9095,-11.8436,-11.7577,-11.695,-11.6519,-11.6121,-11.5797,-11.5797,-11.5797,-11.5797,-11.5797,-11.5061,-11.4612,-11.4462,-11.3238,-11.2111,-11.1566,-11.0388,-10.8993,-10.783,-10.661,-10.5365,-13.2844,-13.2639,-13.2281,-13.2117,-13.2064,-13.1845,-13.1718,-13.1679,-13.1679,-13.1679,-13.1679,-13.1679,-13.1679,-13.1679,-13.1679,-13.1679,-13.1679,-13.1679,-13.1679,0.0,-13.1679,-13.1679,-13.1679,-13.1679,-13.1679,-13.1679,-13.1679,-13.1679,-13.1679,-13.1679,-13.1679,-13.1679,-13.1679,-13.1679,-13.1679,-13.1679,-13.1679,-13.1679,-13.1679,-13.1679,-13.1679,-13.1679,-13.1679,-13.1679,-13.1679,-13.1679,-13.1679,-13.1679,-13.1577,-13.1457,-13.1348,-13.1122,-13.0789,-13.0604,-13.0284,-12.9701,-12.9487,-12.9041,-12.8493,-12.8037,-12.7434,-12.6484,-12.6138,-12.598,-12.5684,-12.5684,-12.5684,-12.5684,-12.5684,-12.5684,-12.5684,-12.5684,-12.5684,-12.5684,-12.5684,-12.5684,-12.5684,-12.5684,-12.5684,-12.5684,-12.5684,-12.5684,-12.5684,-12.5684,-12.5684,-12.5583,-12.5177,-12.455,-12.3569,-12.2656,-12.1912,-12.1148,-12.0222,-11.9497,-11.8918,-11.7818,-11.7159,-11.6946,-11.6266,-11.5797,-11.5797,-11.5797,-11.5797,-11.5797,-11.5061,-11.4612,-11.4612,-11.3238,-11.2144,-11.1566,-11.042,-10.9194,-10.783,-10.6961,-10.5902,-13.2882,-13.2639,-13.2409,-13.2219,-13.2064,-13.1795,-13.1679,-13.1679,-13.1679,-13.1679,-13.1679,-13.1679,-13.1679,-13.1679,-13.1679,-13.1679,-13.1679,-13.1679,-13.1679,-13.1679,-13.1679,-13.1679,-13.1679,-13.1679,-13.1679,-13.1679,-13.1679,-13.1679,-13.1679,-13.1679,-13.1679,-13.1679,-13.1679,-13.1679,-13.1679,-13.1679,-13.1679,-13.1679,-13.1679,-13.1679,-13.1679,-13.1679,-13.1679,-13.1679,-13.1679,-13.1679,-13.1679,-13.1679,-13.1667,-13.151,-13.1457,-13.1275,-13.1002,-13.0804,-13.0478,-13.0084,-12.963,-12.9192,-12.8732,-12.7953,-12.7166,-12.6484,-12.6235,-12.598,-12.5684,-12.5684,-12.5684,-12.5684,-12.5684,-12.5684,-12.5684,-12.5684,-12.5684,-12.5684,-12.5684,-12.5684,-12.5684,-12.5684,-12.5684,-12.5684,-12.5684,-12.5684,-12.5684,-12.5684,-12.5684,-12.5684,-12.528,-12.455,-12.3644,-12.3117,-12.2315,-12.1316,-12.0387,-11.9627,-11.916,-11.799,-11.7087,-11.698,-11.641,-11.5797,-11.5797,-11.5797,-11.5797,-11.5831,-11.5209,-11.4612,-11.4612,-11.3238,-11.2368,-11.1891,-11.065,-10.9226,-10.7971,-10.6579,-10.5005,-13.2921,-13.2672,-13.249,-13.2232,-13.2037,-13.1795,-13.1679,-13.1679,-13.1679,-13.1679,-13.1679,-13.1679,-13.1679,-13.1679,-13.1679,-13.1679,-13.1679,-13.1679,-13.1679,-13.1679,-13.1679,-13.1679,-13.1679,-13.1679,-13.1679,-13.1679,-13.1679,-13.1679,-13.1679,-13.1679,-13.1679,-13.1679,-13.1679,-13.1679,-13.1679,-13.1679,-13.1679,-13.1679,-13.1679,-13.1679,-13.1679,-13.1679,-13.1679,-13.1679,-13.1679,-13.1679,-13.1679,-13.1679,-13.1628,-13.1563,-13.151,-13.1386,-13.1141,-13.0985,-13.0704,-13.0284,-12.9841,-12.9267,-12.8653,-12.7868,-12.7076,-12.6484,-12.6235,-12.6078,-12.5783,-12.5684,-12.5684,-12.5684,-12.5684,-12.5684,-12.5684,-12.5684,-12.5684,-12.5684,-12.5684,-12.5684,-12.5684,-12.5684,-12.5684,-12.5684,-12.5684,-12.5684,-12.5684,-12.5684,-12.5684,-12.5583,-12.5177,-12.4656,-12.4083,-12.3457,-12.2673,-12.1485,-12.0405,-11.9652,-11.9261,-11.7919,-11.7156,-11.698,-11.641,-11.5976,-11.5797,-11.5797,-11.5797,-11.5684,-11.5209,-11.4612,-11.4462,-11.3238,-11.2401,-11.2021,-11.0779,-10.9194,-10.7799,-10.5693,-10.4126,-13.294,-13.2683,-13.2489,-13.2198,-13.1954,-13.1768,-13.1679,-13.1679,-13.1679,-13.1679,-13.1679,-13.1679,-13.1679,-13.1679,-13.1679,-13.1679,-13.1679,-13.1679,-13.1679,-13.1679,-13.1679,-13.1679,-13.1679,-13.1679,-13.1679,-13.1679,-13.1679,-13.1679,-13.1679,-13.1679,-13.1679,-13.1679,-13.1679,-13.1679,-13.1679,-13.1679,-13.1679,-13.1679,-13.1679,-13.1679,-13.1679,-13.1679,-13.1679,-13.1679,-13.1679,-13.1679,-13.1679,-13.1679,-13.1679,-13.1679,-13.1563,-13.1448,-13.1294,-13.1177,-13.0827,-13.0349,-13.0084,-12.9487,-12.8369,-12.799,-12.7434,-12.6484,-12.6389,-12.6138,-12.5783,-12.5684,-12.5684,-12.5684,-12.5684,-12.5684,-12.5684,-12.5684,-12.5684,-12.5684,-12.5684,-12.5684,-12.5684,-12.5684,-12.5684,-12.5684,-12.5684,-12.5684,-12.5684,-12.5684,-12.5583,-12.5483,-12.5074,-12.4798,-12.4228,-12.3569,-12.2773,-12.1841,-12.0794,-11.9862,-11.9223,-11.7919,-11.719,-11.698,-11.641,-11.5942,-11.5797,-11.5797,-11.5797,-11.5651,-11.5209,-11.4612,-11.4311,-11.3426,-11.2209,-11.2021,-11.0645,-10.8993,-10.7279,-10.5365,-10.4096,-13.3006,-13.2753,-13.2605,-13.2358,-13.201,-13.1818,-13.1679,-13.1679,-13.1679,-13.1679,-13.1679,-13.1679,-13.1679,-13.1679,-13.1679,-13.1679,-13.1679,-13.1679,-13.1679,-13.1679,-13.1679,-13.1679,-13.1679,-13.1679,-13.1679,-13.1679,-13.1679,-13.1679,-13.1679,-13.1679,-13.1679,-13.1679,-13.1679,-13.1679,-13.1679,-13.1679,-13.1679,-13.1679,-13.1679,-13.1679,-13.1679,-13.1679,-13.1679,-13.1679,-13.1679,-13.1679,-13.1679,-13.1679,-13.1679,-13.1679,-13.1628,-13.1551,-13.1333,-13.1265,-13.093,-13.0349,-12.9809,-12.9155,-12.8287,-12.7953,-12.7434,-12.6484,-12.6389,-12.6235,-12.5783,-12.5684,-12.5684,-12.5684,-12.5684,-12.5684,-12.5684,-12.5684,-12.5684,-12.5684,-12.5684,-12.5684,-12.5684,-12.5684,-12.5684,-12.5684,-12.5684,-12.5684,-12.5684,-12.5684,-12.5684,-12.5483,-12.5177,-12.4798,-12.455,-12.3791,-12.2888,-12.1996,-12.0932,-11.9976,-11.9184,-11.7921,-11.7156,-11.6838,-11.641,-11.5797,-11.5797,-11.5797,-11.5797,-11.5797,-11.5061,-11.4612,-11.4612,-11.3271,-11.2176,-11.1728,-11.0113,-10.8314,-10.6961,-10.5186,-10.4096,-13.3072,-13.287,-13.2721,-13.2401,-13.2103,-13.1828,-13.173,-13.1679,-13.1679,-13.1679,-13.1679,-13.1679,-13.1679,-13.1679,-13.1679,-13.1679,-13.1679,-13.1679,-13.1679,-13.1679,-13.1679,-13.1679,-13.1679,-13.1679,-13.1679,-13.1679,-13.1679,-13.1679,-13.1679,-13.1679,-13.1679,-13.1679,-13.1679,-13.1679,-13.1679,-13.1679,-13.1679,-13.1679,-13.1679,-13.1679,-13.1679,-13.1679,-13.1679,-13.1679,-13.1679,-13.1679,-13.1679,-13.1679,-13.1679,-13.1679,-13.1679,-13.1564,-13.1333,-13.128,-13.1008,-13.0322,-12.9634,-12.8925,-12.8369,-12.8037,-12.7434,-12.6578,-12.6389,-12.6235,-12.5783,-12.5684,-12.5684,-12.5684,-12.5684,-12.5684,-12.5684,-12.5684,-12.5684,-12.5684,-12.5684,-12.5684,-12.5684,-12.5684,-12.5684,-12.5684,-12.5684,-12.5684,-12.5684,-12.5684,-12.5684,-12.5684,-12.528,-12.4903,-12.4798,-12.3865,-12.2852,-12.2198,-12.1089,-12.0011,-11.9276,-11.7922,-11.7121,-11.6838,-11.641,-11.5797,-11.5797,-11.5797,-11.5797,-11.5651,-11.5061,-11.4612,-11.4462,-11.3426,-11.1758,-11.1076,-10.9617,-10.7799,-10.6961,-10.5186,-10.4096,-13.3174,-13.2947,-13.2567,-13.2285,-13.2103,-13.1963,-13.1818,-13.1679,-13.1679,-13.1679,-13.1679,-13.1679,-13.1679,-13.1679,-13.1679,-13.1679,-13.1679,-13.1679,-13.1679,-13.1679,-13.1679,-13.1679,-13.1679,-13.1679,-13.1679,-13.1679,-13.1679,-13.1679,-13.1679,-13.1679,-13.1679,-13.1679,-13.1679,-13.1679,-13.1679,-13.1679,-13.1679,-13.1679,-13.1679,-13.1679,-13.1679,-13.1679,-13.1679,-13.1679,-13.1679,-13.1679,-13.1679,-13.1679,-13.1679,-13.1679,-13.1679,-13.1564,-13.1333,-13.128,-13.093,-13.037,-12.96,-12.9002,-12.8493,-12.8121,-12.7434,-12.6578,-12.6389,-12.6198,-12.5783,-12.5684,-12.5684,-12.5684,-12.5684,-12.5684,-12.5684,-12.5684,-12.5684,-12.5684,-12.5684,-12.5684,-12.5684,-12.5684,-12.5684,-12.5684,-12.5684,-12.5684,-12.5684,-12.5684,-12.5684,-12.5583,-12.528,-12.4903,-12.4798,-12.3901,-12.2852,-12.2198,-12.1302,-12.0278,-11.9311,-11.7991,-11.719,-11.6838,-11.641,-11.5797,-11.5797,-11.5797,-11.5797,-11.5651,-11.5061,-11.4612,-11.4311,-11.3238,-11.1565,-11.0355,-10.9152,-10.7799,-10.6786,-10.5186,-10.4096,-13.3163,-13.2851,-13.2528,-13.2327,-13.2193,-13.201,-13.1867,-13.1779,-13.1768,-13.1679,-13.1679,-13.1679,-13.1679,-13.1679,-13.1679,-13.1679,-13.1679,-13.1679,-13.1679,-13.1679,-13.1679,-13.1679,-13.1679,-13.1679,-13.1679,-13.1679,-13.1679,-13.1679,-13.1679,-13.1679,-13.1679,-13.1679,-13.1679,-13.1679,-13.1679,-13.1679,-13.1679,-13.1679,-13.1679,-13.1679,-13.1679,-13.1679,-13.1679,-13.1679,-13.1679,-13.1679,-13.1679,-13.1679,-13.1679,-13.1679,-13.1679,-13.1564,-13.1321,-13.0893,-13.0554,-13.0289,-12.9603,-12.9002,-12.8493,-12.8121,-12.7434,-12.6578,-12.6389,-12.6235,-12.5783,-12.5684,-12.5684,-12.5684,-12.5684,-12.5684,-12.5684,-12.5684,-12.5684,-12.5684,-12.5684,-12.5684,-12.5684,-12.5684,-12.5684,-12.5684,-12.5684,-12.5684,-12.5684,-12.5684,-12.5684,-12.5684,-12.5177,-12.5007,-12.4656,-12.3901,-12.2888,-12.2198,-12.1302,-12.0403,-11.9339,-11.8163,-11.7185,-11.6907,-11.6376,-11.5942,-11.5797,-11.5797,-11.5797,-11.5651,-11.5061,-11.4462,-11.4193,-11.2949,-11.1305,-10.9863,-10.8654,-10.7453,-10.661,-10.5005,-10.4126,-13.3163,-13.2851,-13.2567,-13.2407,-13.2323,-13.2103,-13.1963,-13.1915,-13.1779,-13.173,-13.1679,-13.1679,-13.1679,-13.1679,-13.1679,-13.1679,-13.1679,-13.1679,-13.1679,-13.1679,-13.1679,-13.1679,-13.1679,-13.1679,-13.1679,-13.1679,-13.1679,-13.1679,-13.1679,-13.1679,-13.1679,-13.1679,-13.1679,-13.1679,-13.1679,-13.1679,-13.1679,-13.1679,-13.1679,-13.1679,-13.1679,-13.1679,-13.1679,-13.1679,-13.1679,-13.1679,-13.1679,-13.1679,-13.1679,-13.1679,-13.1679,-13.1551,-13.128,-13.0734,-13.037,-13.0264,-12.9641,-12.9079,-12.8573,-12.8121,-12.7434,-12.6484,-12.6389,-12.6235,-12.5783,-12.5684,-12.5684,-12.5684,-12.5684,-12.5684,-12.5684,-12.5684,-12.5684,-12.5684,-12.5684,-12.5684,-12.5684,-12.5684,-12.5684,-12.5684,-12.5684,-12.5684,-12.5684,-12.5684,-12.5684,-12.5684,-12.528,-12.4903,-12.4761,-12.3901,-12.2852,-12.2198,-12.1302,-12.0313,-11.9269,-11.8163,-11.7327,-11.6907,-11.6376,-11.5942,-11.5797,-11.5797,-11.5797,-11.5651,-11.5209,-11.4462,-11.3658,-11.2443,-11.1137,-10.9825,-10.8484,-10.731,-10.6257,-10.5005,-10.3913,-13.3174,-13.2986,-13.2798,-13.2604,-13.2409,-13.2323,-13.2148,-13.1963,-13.1915,-13.1779,-13.1679,-13.1679,-13.1679,-13.1679,-13.1679,-13.1679,-13.1679,-13.1679,-13.1679,-13.1679,-13.1679,-13.1679,-13.1679,-13.1679,-13.1679,-13.1679,-13.1679,-13.1679,-13.1679,-13.1679,-13.1679,-13.1679,-13.1679,-13.1679,-13.1679,-13.1679,-13.1679,-13.1679,-13.1679,-13.1679,-13.1679,-13.1679,-13.1679,-13.1679,-13.1679,-13.1679,-13.1679,-13.1679,-13.1679,-13.1679,-13.1679,-13.1577,-13.1271,-13.0968,-13.063,-13.022,-12.9748,-12.9117,-12.8573,-12.8121,-12.7522,-12.6671,-12.6389,-12.6198,-12.5882,-12.5684,-12.5684,-12.5684,-12.5684,-12.5684,-12.5684,-12.5684,-12.5684,-12.5684,-12.5684,-12.5684,-12.5684,-12.5684,-12.5684,-12.5684,-12.5684,-12.5684,-12.5684,-12.5684,-12.5684,-12.5583,-12.528,-12.4903,-12.4798,-12.3901,-12.2852,-12.2198,-12.1302,-12.0403,-11.9366,-11.8266,-11.7644,-11.7048,-11.6266,-11.5797,-11.5797,-11.5797,-11.5797,-11.5651,-11.5061,-11.4462,-11.3026,-11.1924,-11.0806,-10.9617,-10.8301,-10.7105,-10.5871,-10.4643,-10.3545,-13.3236,-13.3067,-13.2923,-13.2792,-13.2528,-13.2409,-13.2281,-13.2057,-13.1963,-13.1779,-13.1679,-13.1679,-13.1679,-13.1679,-13.1679,-13.1679,-13.1679,-13.1679,-13.1679,-13.1679,-13.1679,-13.1679,-13.1679,-13.1679,-13.1679,-13.1679,-13.1679,-13.1679,-13.1679,-13.1679,-13.1679,-13.1679,-13.1679,-13.1679,-13.1679,-13.1679,-13.1679,-13.1679,-13.1679,-13.1679,-13.1679,-13.1679,-13.1679,-13.1679,-13.1679,-13.1679,-13.1679,-13.1679,-13.1679,-13.1679,-13.1679,-13.1551,-13.128,-13.0969,-13.0642,-13.0303,-12.9706,-12.9192,-12.8732,-12.8204,-12.761,-12.7076,-12.6615,-12.6331,-12.598,-12.5783,-12.5684,-12.5684,-12.5684,-12.5684,-12.5684,-12.5684,-12.5684,-12.5684,-12.5684,-12.5684,-12.5684,-12.5684,-12.5684,-12.5684,-12.5684,-12.5684,-12.5684,-12.5684,-12.5684,-12.5684,-12.528,-12.4903,-12.4798,-12.3901,-12.2852,-12.2198,-12.1302,-12.0368,-11.9366,-11.8369,-11.7539,-11.6907,-11.6266,-11.5797,-11.5797,-11.5797,-11.5797,-11.5504,-11.4912,-11.4007,-11.2587,-11.1469,-11.0447,-10.9312,-10.8066,-10.6755,-10.5335,-10.4431,-10.3545,-13.3325,-13.3202,-13.3038,-13.2884,-13.2714,-13.2567,-13.2368,-13.2237,-13.2057,-13.1877,-13.1818,-13.1679,-13.1679,-13.1679,-13.1679,-13.1679,-13.1679,-13.1679,-13.1679,-13.1679,-13.1679,-13.1679,-13.1679,-13.1679,-13.1679,-13.1679,-13.1679,-13.1679,-13.1679,-13.1679,-13.1679,-13.1679,-13.1679,-13.1679,-13.1679,-13.1679,-13.1679,-13.1679,-13.1679,-13.1679,-13.1679,-13.1679,-13.1679,-13.1679,-13.1679,-13.1679,-13.1679,-13.1679,-13.1679,-13.1679,-13.1679,-13.1564,-13.1321,-13.1101,-13.0789,-13.0284,-12.9771,-12.9303,-12.8772,-12.8287,-12.7734,-12.7166,-12.6671,-12.6294,-12.6078,-12.5882,-12.5684,-12.5684,-12.5684,-12.5684,-12.5684,-12.5684,-12.5684,-12.5684,-12.5684,-12.5684,-12.5684,-12.5684,-12.5684,-12.5684,-12.5684,-12.5684,-12.5684,-12.5684,-12.5684,-12.5583,-12.528,-12.4903,-12.4692,-12.3901,-12.2967,-12.2008,-12.1124,-12.0207,-11.9401,-11.83,-11.7399,-11.6764,-11.6266,-11.5942,-11.5797,-11.5797,-11.5797,-11.5142,-11.4695,-11.3755,-11.2456,-11.1175,-11.0209,-10.8908,-10.7626,-10.6403,-10.5155,-10.4461,-10.336,-13.3401,-13.3364,-13.3123,-13.3017,-13.2916,-13.2678,-13.2489,-13.2368,-13.2154,-13.2057,-13.1915,-13.1779,-13.1679,-13.1679,-13.1679,-13.1679,-13.1679,-13.1679,-13.1679,-13.1679,-13.1679,-13.1679,-13.1679,-13.1679,-13.1679,-13.1679,-13.1679,-13.1679,-13.1679,-13.1679,-13.1679,-13.1679,-13.1679,-13.1679,-13.1679,-13.1679,-13.1679,-13.1679,-13.1679,-13.1679,-13.1679,-13.1679,-13.1679,-13.1679,-13.1679,-13.1679,-13.1679,-13.1679,-13.1679,-13.1679,-13.1679,-13.1564,-13.1359,-13.1303,-13.0968,-13.0349,-12.991,-12.9487,-12.8888,-12.8249,-12.782,-12.7383,-12.6801,-12.6331,-12.6175,-12.5919,-12.572,-12.5684,-12.5684,-12.5684,-12.5684,-12.5684,-12.5684,-12.5684,-12.5684,-12.5684,-12.5684,-12.5684,-12.5684,-12.5684,-12.5684,-12.5684,-12.5684,-12.5684,-12.5684,-12.5583,-12.5177,-12.5007,-12.455,-12.3791,-12.2852,-12.1937,-12.0932,-12.0046,-11.9331,-11.8094,-11.719,-11.6872,-11.6376,-11.5942,-11.5651,-11.5651,-11.5504,-11.4845,-11.4261,-11.3348,-11.2423,-11.1143,-10.9881,-10.8781,-10.7453,-10.6226,-10.5186,-10.4279,-10.3174,-13.3488,-13.3385,-13.3266,-13.3134,-13.2947,-13.2749,-13.2567,-13.2409,-13.2281,-13.2103,-13.1925,-13.1867,-13.1818,-13.1718,-13.1679,-13.1679,-13.1679,-13.1679,-13.1679,-13.1679,-13.1679,-13.1679,-13.1679,-13.1679,-13.1679,-13.1679,-13.1679,-13.1679,-13.1679,-13.1679,-13.1679,-13.1679,-13.1679,-13.1679,-13.1679,-13.1679,-13.1679,-13.1679,-13.1679,-13.1679,-13.1679,-13.1679,-13.1679,-13.1679,-13.1679,-13.1679,-13.1679,-13.1679,-13.1679,-13.1679,-13.1679,-13.1602,-13.1321,-13.1303,-13.0968,-13.0414,-13.0046,-12.963,-12.9079,-12.845,-12.8037,-12.7696,-12.7076,-12.6615,-12.6331,-12.6127,-12.593,-12.5757,-12.5684,-12.5684,-12.5684,-12.5684,-12.5684,-12.5684,-12.5684,-12.5684,-12.5684,-12.5684,-12.5684,-12.5684,-12.5684,-12.5684,-12.5684,-12.5684,-12.5583,-12.5382,-12.5074,-12.4761,-12.4336,-12.3644,-12.2852,-12.1854,-12.0952,-12.0081,-11.906,-11.7853,-11.7121,-11.6838,-11.6376,-11.5942,-11.5651,-11.5504,-11.5209,-11.4762,-11.3943,-11.3083,-11.2199,-11.111,-10.9959,-10.8516,-10.7453,-10.6257,-10.4824,-10.3759,-10.2802,-13.3531,-13.3482,-13.3382,-13.3241,-13.3067,-13.2916,-13.2714,-13.249,-13.2368,-13.2237,-13.201,-13.1915,-13.1867,-13.1718,-13.1679,-13.1679,-13.1679,-13.1679,-13.1679,-13.1679,-13.1679,-13.1679,-13.1679,-13.1679,-13.1679,-13.1679,-13.1679,-13.1679,-13.1679,-13.1679,-13.1679,-13.1679,-13.1679,-13.1679,-13.1679,-13.1679,-13.1679,-13.1679,-13.1679,-13.1679,-13.1679,-13.1679,-13.1679,-13.1679,-13.1679,-13.1679,-13.1679,-13.1679,-13.1679,-13.1679,-13.1679,-13.1602,-13.1398,-13.1341,-13.1026,-13.0541,-13.0218,-12.9771,-12.9304,-12.869,-12.8204,-12.7868,-12.7256,-12.6801,-12.6426,-12.6262,-12.604,-12.572,-12.5684,-12.5684,-12.5684,-12.5684,-12.5684,-12.5684,-12.5684,-12.5684,-12.5684,-12.5684,-12.5684,-12.5684,-12.5684,-12.5684,-12.5684,-12.5684,-12.5583,-12.5382,-12.5111,-12.4656,-12.412,-12.3457,-12.2737,-12.1734,-12.0794,-12.0011,-11.9025,-11.7888,-11.698,-11.6838,-11.641,-11.5797,-11.5651,-11.5504,-11.5061,-11.4512,-11.3692,-11.295,-11.2068,-11.0916,-10.9657,-10.8409,-10.7373,-10.608,-10.4643,-10.3575,-10.2428,-13.3596,-13.3566,-13.3443,-13.3321,-13.3202,-13.3077,-13.2884,-13.2675,-13.2528,-13.2285,-13.2148,-13.201,-13.1867,-13.1718,-13.1679,-13.1679,-13.1679,-13.1679,-13.1679,-13.1679,-13.1679,-13.1679,-13.1679,-13.1679,-13.1679,-13.1679,-13.1679,-13.1679,-13.1679,-13.1679,-13.1679,-13.1679,-13.1679,-13.1679,-13.1679,-13.1679,-13.1679,-13.1679,-13.1679,-13.1679,-13.1679,-13.1679,-13.1679,-13.1679,-13.1679,-13.1679,-13.1679,-13.1679,-13.1679,-13.1679,-13.1679,-13.1602,-13.1474,-13.138,-13.1084,-13.0789,-13.0349,-12.9841,-12.9414,-12.8888,-12.8369,-12.7953,-12.7522,-12.6985,-12.6558,-12.6225,-12.6066,-12.5684,-12.5684,-12.5684,-12.5684,-12.5684,-12.5684,-12.5684,-12.5684,-12.5684,-12.5684,-12.5684,-12.5684,-12.5684,-12.5684,-12.5684,-12.5684,-12.5684,-12.5583,-12.5177,-12.5007,-12.455,-12.4011,-12.3344,-12.2621,-12.1636,-12.0741,-11.9961,-11.8921,-11.7922,-11.7228,-11.6696,-11.6266,-11.5831,-11.5651,-11.5357,-11.5061,-11.4478,-11.3488,-11.2775,-11.2029,-11.0819,-10.9394,-10.8206,-10.7042,-10.5662,-10.4279,-10.336,-10.2241,-13.3619,-13.3596,-13.35,-13.3403,-13.3321,-13.3095,-13.2916,-13.2779,-13.2604,-13.2448,-13.2237,-13.2103,-13.1954,-13.1833,-13.1718,-13.1679,-13.1679,-13.1679,-13.1679,-13.1679,-13.1679,-13.1679,-13.1679,-13.1679,-13.1679,-13.1679,-13.1679,-13.1679,-13.1679,-13.1679,-13.1679,-13.1679,-13.1679,-13.1679,-13.1679,-13.1679,-13.1679,-13.1679,-13.1679,-13.1679,-13.1679,-13.1679,-13.1679,-13.1679,-13.1679,-13.1679,-13.1679,-13.1679,-13.1679,-13.1679,-13.1679,-13.1641,-13.1513,-13.138,-13.118,-13.0827,-13.0478,-13.0084,-12.963,-12.9079,-12.8573,-12.8121,-12.7734,-12.7204,-12.6484,-12.6368,-12.6115,-12.5882,-12.5684,-12.5684,-12.5684,-12.5684,-12.5684,-12.5684,-12.5684,-12.5684,-12.5684,-12.5684,-12.5684,-12.5684,-12.5684,-12.5684,-12.5684,-12.5684,-12.5483,-12.5074,-12.4761,-12.4336,-12.3791,-12.3231,-12.2504,-12.155,-12.0758,-11.989,-11.9025,-11.8059,-11.7087,-11.6519,-11.6121,-11.5831,-11.5651,-11.5209,-11.4912,-11.4092,-11.3227,-11.2507,-11.1904,-11.0689,-10.9184,-10.7971,-10.6805,-10.5452,-10.4279,-10.3174,-10.2052,-13.3672,-13.3619,-13.3557,-13.3479,-13.3364,-13.3227,-13.3067,-13.2877,-13.2714,-13.2528,-13.2327,-13.2154,-13.204,-13.1872,-13.1756,-13.1679,-13.1679,-13.1679,-13.1679,-13.1679,-13.1679,-13.1679,-13.1679,-13.1679,-13.1679,-13.1679,-13.1679,-13.1679,-13.1679,-13.1679,-13.1679,-13.1679,-13.1679,-13.1679,-13.1679,-13.1679,-13.1679,-13.1679,-13.1679,-13.1679,-13.1679,-13.1679,-13.1679,-13.1679,-13.1679,-13.1679,-13.1679,-13.1679,-13.1679,-13.1679,-13.1679,-13.1679,-13.1551,-13.1418,-13.1218,-13.104,-13.0617,-13.0256,-12.9841,-12.9414,-12.8888,-12.8331,-12.799,-12.7434,-12.6893,-12.6578,-12.6235,-12.598,-12.5783,-12.5684,-12.5684,-12.5684,-12.5684,-12.5684,-12.5684,-12.5684,-12.5684,-12.5684,-12.5684,-12.5684,-12.5684,-12.5684,-12.5684,-12.5684,-12.5382,-12.5074,-12.4903,-12.455,-12.368,-12.3003,-12.2423,-12.1565,-12.0739,-11.989,-11.906,-11.8059,-11.6804,-11.6232,-11.5942,-11.5831,-11.5797,-11.5209,-11.4612,-11.394,-11.3294,-11.235,-11.1494,-11.0295,-10.9015,-10.7815,-10.6558,-10.5396,-10.4096,-10.2616,-10.1674,-13.366,-13.3629,-13.3629,-13.3518,-13.3424,-13.3343,-13.3202,-13.2978,-13.2818,-13.2642,-13.2409,-13.2198,-13.2049,-13.1895,-13.1756,-13.1679,-13.1679,-13.1679,-13.1679,-13.1679,-13.1679,-13.1679,-13.1679,-13.1679,-13.1679,-13.1679,-13.1679,-13.1679,-13.1679,-13.1679,-13.1679,-13.1679,-13.1679,-13.1679,-13.1679,-13.1679,-13.1679,-13.1679,-13.1679,-13.1679,-13.1679,-13.1679,-13.1679,-13.1679,-13.1679,-13.1679,-13.1679,-13.1679,-13.1679,-13.1679,-13.1679,-13.1679,-13.1628,-13.1457,-13.1295,-13.1308,-13.0857,-13.0452,-13.0084,-12.963,-12.9192,-12.8573,-12.8204,-12.7734,-12.7256,-12.669,-12.6315,-12.6041,-12.5882,-12.5684,-12.5684,-12.5684,-12.5684,-12.5684,-12.5684,-12.5684,-12.5684,-12.5684,-12.5684,-12.5684,-12.5684,-12.5684,-12.5684,-12.5684,-12.5382,-12.5074,-12.4866,-12.455,-12.368,-12.2888,-12.2269,-12.1529,-12.0617,-11.9291,-11.843,-11.7922,-11.6804,-11.6087,-11.5797,-11.5651,-11.5651,-11.5061,-11.4612,-11.4159,-11.3448,-11.235,-11.1174,-11.0001,-10.8856,-10.7561,-10.6328,-10.4855,-10.3514,-10.2211,-10.1074,-13.3699,-13.3668,-13.3629,-13.3583,-13.3535,-13.3444,-13.3275,-13.3067,-13.2877,-13.2675,-13.2528,-13.2281,-13.2103,-13.201,-13.1818,-13.1679,-13.1679,-13.1679,-13.1679,-13.1679,-13.1679,-13.1679,-13.1679,-13.1679,-13.1679,-13.1679,-13.1679,-13.1679,-13.1679,-13.1679,-13.1679,-13.1679,-13.1679,-13.1679,-13.1679,-13.1679,-13.1679,-13.1679,-13.1679,-13.1679,-13.1679,-13.1679,-13.1679,-13.1679,-13.1679,-13.1679,-13.1679,-13.1679,-13.1679,-13.1679,-13.1679,-13.1679,-13.1679,-13.1563,-13.1446,-13.1274,-13.098,-13.0642,-13.0218,-12.9841,-12.9414,-12.8772,-12.8331,-12.7868,-12.7271,-12.6725,-12.6393,-12.6101,-12.5919,-12.5684,-12.5684,-12.5684,-12.5684,-12.5684,-12.5684,-12.5684,-12.5684,-12.5684,-12.5684,-12.5684,-12.5684,-12.5684,-12.5684,-12.5684,-12.5382,-12.5074,-12.4903,-12.4336,-12.3457,-12.2888,-12.254,-12.1579,-12.0529,-11.9113,-11.7543,-11.7333,-11.6662,-11.6087,-11.5797,-11.5504,-11.5357,-11.4912,-11.4462,-11.4007,-11.3294,-11.2003,-11.1013,-10.9873,-10.8654,-10.7243,-10.5878,-10.4431,-10.333,-10.2022,-10.0721,-13.3708,-13.369,-13.3648,-13.3608,-13.357,-13.3479,-13.3382,-13.3202,-13.2969,-13.2818,-13.2604,-13.2368,-13.2154,-13.2057,-13.1856,-13.1756,-13.1679,-13.1679,-13.1679,-13.1679,-13.1679,-13.1679,-13.1679,-13.1679,-13.1679,-13.1679,-13.1679,-13.1679,-13.1679,-13.1679,-13.1679,-13.1679,-13.1679,-13.1679,-13.1679,-13.1679,-13.1679,-13.1679,-13.1679,-13.1679,-13.1679,-13.1679,-13.1679,-13.1679,-13.1679,-13.1679,-13.1679,-13.1679,-13.1679,-13.1679,-13.1679,-13.1679,-13.1679,-13.1615,-13.1495,-13.1333,-13.1083,-13.0766,-13.0349,-12.9978,-12.963,-12.9041,-12.8611,-12.8121,-12.7572,-12.7107,-12.6616,-12.6212,-12.5919,-12.5684,-12.5684,-12.5684,-12.5684,-12.5684,-12.5684,-12.5684,-12.5684,-12.5684,-12.5684,-12.5684,-12.5684,-12.5684,-12.5684,-12.5583,-12.5382,-12.5177,-12.5007,-12.4228,-12.3344,-12.2888,-12.2656,-12.1373,-12.0262,-11.8859,-11.7577,-11.7053,-11.6696,-11.6087,-11.5651,-11.5538,-11.5243,-11.4762,-11.4311,-11.3854,-11.2795,-11.1718,-11.0624,-10.9583,-10.8358,-10.7067,-10.5668,-10.4279,-10.3174,-10.2052,-10.0529,-13.3711,-13.371,-13.3718,-13.3678,-13.3619,-13.3566,-13.3463,-13.3298,-13.3095,-13.2916,-13.2714,-13.2528,-13.2246,-13.211,-13.1954,-13.1795,-13.1679,-13.1679,-13.1679,-13.1679,-13.1679,-13.1679,-13.1679,-13.1679,-13.1679,-13.1679,-13.1679,-13.1679,-13.1679,-13.1679,-13.1679,-13.1679,-13.1679,-13.1679,-13.1679,-13.1679,-13.1679,-13.1679,-13.1679,-13.1679,-13.1679,-13.1679,-13.1679,-13.1679,-13.1679,-13.1679,-13.1679,-13.1679,-13.1679,-13.1679,-13.1679,-13.1679,-13.1679,-13.1679,-13.1577,-13.1364,-13.1236,-13.0887,-13.0478,-13.0151,-12.9879,-12.9378,-12.8848,-12.845,-12.7953,-12.7345,-12.6782,-12.6238,-12.593,-12.5783,-12.5684,-12.5684,-12.5684,-12.5684,-12.5684,-12.5684,-12.5684,-12.5684,-12.5684,-12.5684,-12.5684,-12.5684,-12.5684,-12.5684,-12.5483,-12.5177,-12.497,-12.4443,-12.368,-12.3231,-12.2585,-12.1164,-11.9933,-11.8598,-11.7646,-11.7087,-11.6553,-11.5976,-11.5684,-11.5538,-11.5209,-11.4762,-11.4159,-11.3393,-11.258,-11.1497,-11.0463,-10.9189,-10.7862,-10.663,-10.537,-10.4157,-10.2802,-10.1455,-10.0114,-13.375,-13.371,-13.3699,-13.3665,-13.358,-13.3596,-13.3518,-13.3364,-13.3176,-13.3008,-13.2779,-13.2528,-13.2293,-13.2087,-13.1838,-13.1718,-13.1679,-13.1679,-13.1679,-13.1679,-13.1679,-13.1679,-13.1679,-13.1679,-13.1679,-13.1679,-13.1679,-13.1679,-13.1679,-13.1679,-13.1679,-13.1679,-13.1679,-13.1679,-13.1679,-13.1679,-13.1679,-13.1679,-13.1679,-13.1679,-13.1679,-13.1679,-13.1679,-13.1679,-13.1679,-13.1679,-13.1679,-13.1679,-13.1679,-13.1679,-13.1679,-13.1679,-13.1679,-13.1679,-13.1641,-13.15,-13.1326,-13.1122,-13.0728,-13.0414,-13.0084,-12.9559,-12.9117,-12.8653,-12.8037,-12.7345,-12.6689,-12.6176,-12.6029,-12.5882,-12.5783,-12.5684,-12.5684,-12.5684,-12.5684,-12.5684,-12.5684,-12.5684,-12.5684,-12.5684,-12.5684,-12.5684,-12.5684,-12.5684,-12.5583,-12.528,-12.497,-12.4443,-12.3901,-12.3344,-12.2289,-12.0916,-11.9875,-11.8568,-11.7646,-11.7121,-11.6553,-11.5976,-11.5684,-11.5538,-11.5061,-11.4462,-11.3701,-11.2927,-11.2139,-11.1143,-11.0009,-10.8851,-10.7593,-10.6218,-10.4979,-10.3511,-10.2052,-10.0883,-9.9727,-13.3789,-13.375,-13.3709,-13.369,-13.3668,-13.3596,-13.3542,-13.3424,-13.3275,-13.3123,-13.2916,-13.2714,-13.2372,-13.2083,-13.1867,-13.1756,-13.1718,-13.1679,-13.1679,-13.1679,-13.1679,-13.1679,-13.1679,-13.1679,-13.1679,-13.1679,-13.1679,-13.1679,-13.1679,-13.1679,-13.1679,-13.1679,-13.1679,-13.1679,-13.1679,-13.1679,-13.1679,-13.1679,-13.1679,-13.1679,-13.1679,-13.1679,-13.1679,-13.1679,-13.1679,-13.1679,-13.1679,-13.1679,-13.1679,-13.1679,-13.1679,-13.1679,-13.1679,-13.1679,-13.1641,-13.1641,-13.1472,-13.1198,-13.0849,-13.0604,-13.0218,-12.9771,-12.9303,-12.881,-12.8121,-12.7434,-12.6838,-12.6382,-12.6115,-12.598,-12.5783,-12.5684,-12.5684,-12.5684,-12.5684,-12.5684,-12.5684,-12.5684,-12.5684,-12.5684,-12.5684,-12.5684,-12.5684,-12.5684,-12.5583,-12.5382,-12.497,-12.455,-12.3755,-12.2852,-12.1711,-12.044,-11.9501,-11.8603,-11.7646,-11.698,-11.6553,-11.5976,-11.5504,-11.5209,-11.4762,-11.4159,-11.3393,-11.2456,-11.1499,-11.0527,-10.9553,-10.8411,-10.7211,-10.5946,-10.4797,-10.3229,-10.1864,-10.0692,-9.9337,-13.3789,-13.3789,-13.3711,-13.3703,-13.3687,-13.3639,-13.3583,-13.3518,-13.3364,-13.3202,-13.3008,-13.2749,-13.2411,-13.2154,-13.1954,-13.1795,-13.1679,-13.1679,-13.1679,-13.1679,-13.1679,-13.1679,-13.1679,-13.1679,-13.1679,-13.1679,-13.1679,-13.1679,-13.1679,-13.1679,-13.1679,-13.1679,-13.1679,-13.1679,-13.1679,-13.1679,-13.1679,-13.1679,-13.1679,-13.1679,-13.1679,-13.1679,-13.1679,-13.1679,-13.1679,-13.1679,-13.1679,-13.1679,-13.1679,-13.1679,-13.1679,-13.1679,-13.1679,-13.1679,-13.1679,-13.1628,-13.1524,-13.1348,-13.1026,-13.0728,-13.0349,-12.991,-12.9376,-12.8772,-12.8129,-12.7572,-12.7039,-12.6541,-12.6331,-12.6041,-12.5882,-12.5783,-12.5684,-12.5684,-12.5684,-12.5684,-12.5684,-12.5684,-12.5684,-12.5684,-12.5684,-12.5684,-12.5684,-12.5684,-12.5583,-12.5382,-12.5074,-12.455,-12.3644,-12.2621,-12.1556,-12.0281,-11.9501,-11.8737,-11.768,-11.6838,-11.641,-11.5942,-11.5504,-11.5061,-11.4612,-11.3854,-11.3116,-11.2139,-11.1014,-10.9744,-10.8767,-10.7966,-10.6911,-10.5462,-10.4307,-10.3139,-10.1834,-10.05,-9.8524,-13.3789,-13.3789,-13.3711,-13.3708,-13.3685,-13.3648,-13.3596,-13.3551,-13.3463,-13.3275,-13.3008,-13.2639,-13.2334,-13.213,-13.1963,-13.1884,-13.1718,-13.1679,-13.1679,-13.1679,-13.1679,-13.1679,-13.1679,-13.1679,-13.1679,-13.1679,-13.1679,-13.1679,-13.1679,-13.1679,-13.1679,-13.1679,-13.1679,-13.1679,-13.1679,-13.1679,-13.1679,-13.1679,-13.1679,-13.1679,-13.1679,-13.1679,-13.1679,-13.1679,-13.1679,-13.1679,-13.1679,-13.1679,-13.1679,-13.1679,-13.1679,-13.1679,-13.1679,-13.1679,-13.1679,-13.1679,-13.1615,-13.1457,-13.1198,-13.0947,-13.0604,-13.0113,-12.9449,-12.885,-12.8219,-12.7831,-12.736,-12.6799,-12.6541,-12.6235,-12.6078,-12.5882,-12.5684,-12.5684,-12.5684,-12.5684,-12.5684,-12.5684,-12.5684,-12.5684,-12.5684,-12.5684,-12.5684,-12.5684,-12.5684,-12.5583,-12.5074,-12.455,-12.3533,-12.2468,-12.1521,-12.0494,-11.9641,-11.8668,-11.7368,-11.6838,-11.6587,-11.5976,-11.5357,-11.5061,-11.4612,-11.3854,-11.2803,-11.182,-11.0623,-10.9317,-10.7997,-10.728,-10.6257,-10.5039,-10.3787,-10.2488,-10.0662,-9.8917,-9.6934,-13.3789,-13.3789,-13.3789,-13.3747,-13.369,-13.3648,-13.3635,-13.3605,-13.35,-13.3236,-13.2908,-13.2678,-13.2451,-13.2211,-13.2064,-13.1933,-13.1795,-13.1718,-13.1679,-13.1679,-13.1679,-13.1679,-13.1679,-13.1679,-13.1679,-13.1679,-13.1679,-13.1679,-13.1679,-13.1679,-13.1679,-13.1679,-13.1679,-13.1679,-13.1679,-13.1679,-13.1679,-13.1679,-13.1679,-13.1679,-13.1679,-13.1679,-13.1679,-13.1679,-13.1679,-13.1679,-13.1679,-13.1679,-13.1679,-13.1679,-13.1679,-13.1679,-13.1679,-13.1679,-13.1679,-13.1679,-13.1628,-13.1563,-13.1402,-13.1122,-13.0766,-13.0151,-12.9559,-12.8927,-12.8461,-12.8,-12.761,-12.7092,-12.6634,-12.6294,-12.6078,-12.5882,-12.5684,-12.5684,-12.5684,-12.5684,-12.5684,-12.5684,-12.5684,-12.5684,-12.5684,-12.5684,-12.5684,-12.5684,-12.5684,-12.5684,-12.5177,-12.455,-12.3421,-12.2432,-12.1401,-12.0494,-11.9735,-11.8633,-11.7368,-11.6872,-11.6655,-11.601,-11.5209,-11.4912,-11.4311,-11.3238,-11.2139,-11.1306,-11.023,-10.9017,-10.7744,-10.6618,-10.5483,-10.437,-10.3229,-10.1893,-9.9891,-9.7733,-9.5721,-13.3789,-13.3789,-13.3789,-13.3748,-13.3699,-13.3696,-13.3686,-13.3596,-13.3551,-13.3282,-13.2877,-13.2753,-13.2567,-13.233,-13.2187,-13.1982,-13.1884,-13.1756,-13.1679,-13.1679,-13.1679,-13.1679,-13.1679,-13.1679,-13.1679,-13.1679,-13.1679,-13.1679,-13.1679,-13.1679,-13.1679,-13.1679,-13.1679,-13.1679,-13.1679,-13.1679,-13.1679,-13.1679,-13.1679,-13.1679,-13.1679,-13.1679,-13.1679,-13.1679,-13.1679,-13.1679,-13.1679,-13.1679,-13.1679,-13.1679,-13.1679,-13.1679,-13.1679,-13.1679,-13.1679,-13.1679,-13.1679,-13.1628,-13.1457,-13.1141,-13.0766,-13.0218,-12.9771,-12.9229,-12.8657,-12.8249,-12.7783,-12.7368,-12.6745,-12.6294,-12.6175,-12.598,-12.5783,-12.5684,-12.5684,-12.5684,-12.5684,-12.5684,-12.5684,-12.5684,-12.5684,-12.5684,-12.5684,-12.5583,-12.5483,-12.5382,-12.5074,-12.4443,-12.3308,-12.2397,-12.1472,-12.0564,-11.9594,-11.8494,-11.7333,-11.7083,-11.6757,-11.5718,-11.5061,-11.4612,-11.3854,-11.277,-11.182,-11.0819,-10.9868,-10.8442,-10.7249,-10.6009,-10.4886,-10.3782,-10.2479,-10.0721,-9.8917,-9.6761,-9.5137,-13.3789,-13.3789,-13.3789,-13.3789,-13.3709,-13.3704,-13.3668,-13.3608,-13.3542,-13.3364,-13.3067,-13.2823,-13.2644,-13.2407,-13.2226,-13.2031,-13.1922,-13.1756,-13.1679,-13.1718,-13.1679,-13.1679,-13.1679,-13.1679,-13.1679,-13.1679,-13.1679,-13.1679,-13.1679,-13.1679,-13.1679,-13.1679,-13.1679,-13.1679,-13.1679,-13.1679,-13.1679,-13.1679,-13.1679,-13.1679,-13.1679,-13.1679,-13.1679,-13.1679,-13.1679,-13.1679,-13.1679,-13.1679,-13.1679,-13.1679,-13.1679,-13.1679,-13.1679,-13.1679,-13.1679,-13.1679,-13.1679,-13.1628,-13.1472,-13.1026,-13.0666,-13.0284,-12.9841,-12.9373,-12.8852,-12.8381,-12.798,-12.7516,-12.6856,-12.6521,-12.6235,-12.6041,-12.5783,-12.5684,-12.5684,-12.5684,-12.5684,-12.5684,-12.5684,-12.5684,-12.5684,-12.5684,-12.5583,-12.5483,-12.5177,-12.5074,-12.497,-12.4336,-12.3344,-12.2397,-12.1508,-12.06,-11.9559,-11.8494,-11.7402,-11.7185,-11.6682,-11.5605,-11.4912,-11.4462,-11.3701,-11.2613,-11.166,-11.0492,-10.9234,-10.8061,-10.668,-10.5329,-10.4004,-10.2599,-10.0898,-9.9171,-9.7591,-9.5952,-9.4314,-13.3789,-13.3789,-13.3789,-13.3787,-13.3781,-13.3724,-13.3657,-13.358,-13.3512,-13.3321,-13.3095,-13.2851,-13.268,-13.2487,-13.2319,-13.2173,-13.2049,-13.1895,-13.1818,-13.1679,-13.1679,-13.1679,-13.1679,-13.1679,-13.1679,-13.1679,-13.1679,-13.1679,-13.1679,-13.1679,-13.1679,-13.1679,-13.1679,-13.1679,-13.1679,-13.1679,-13.1679,-13.1679,-13.1679,-13.1679,-13.1679,-13.1679,-13.1679,-13.1679,-13.1679,-13.1679,-13.1679,-13.1679,-13.1679,-13.1679,-13.1679,-13.1679,-13.1679,-13.1679,-13.1679,-13.1679,-13.1679,-13.1615,-13.1457,-13.1141,-13.0887,-13.0414,-13.0046,-12.9657,-12.9146,-12.854,-12.8103,-12.768,-12.6856,-12.6558,-12.6294,-12.5944,-12.5783,-12.5684,-12.5684,-12.5684,-12.5684,-12.5684,-12.5684,-12.5684,-12.5684,-12.5684,-12.5684,-12.5382,-12.5074,-12.4761,-12.455,-12.412,-12.3231,-12.2315,-12.1337,-12.0511,-11.9431,-11.8395,-11.7576,-11.7071,-11.6427,-11.5424,-11.4762,-11.4311,-11.3547,-11.2456,-11.1306,-11.0162,-10.8961,-10.7563,-10.5925,-10.4309,-10.2488,-10.0927,-9.9649,-9.8385,-9.6789,-9.5341,-9.3692,-13.3789,-13.3789,-13.3789,-13.3787,-13.3777,-13.3724,-13.3657,-13.3569,-13.3496,-13.3321,-13.3176,-13.2939,-13.2784,-13.2605,-13.2446,-13.2281,-13.2165,-13.1992,-13.1915,-13.1768,-13.1718,-13.1679,-13.1679,-13.1679,-13.1679,-13.1679,-13.1679,-13.1679,-13.1679,-13.1679,-13.1679,-13.1679,-13.1679,-13.1679,-13.1679,-13.1679,-13.1679,-13.1679,-13.1679,-13.1679,-13.1679,-13.1679,-13.1679,-13.1679,-13.1679,-13.1679,-13.1679,-13.1679,-13.1679,-13.1679,-13.1679,-13.1679,-13.1679,-13.1679,-13.1679,-13.1679,-13.1679,-13.1563,-13.1402,-13.1292,-13.0909,-13.0349,-13.0151,-12.9864,-12.9327,-12.8659,-12.8224,-12.768,-12.6986,-12.6558,-12.6294,-12.5944,-12.5783,-12.5684,-12.5684,-12.5684,-12.5684,-12.5684,-12.5684,-12.5684,-12.5684,-12.5684,-12.5684,-12.528,-12.5074,-12.4656,-12.4228,-12.368,-12.3117,-12.2233,-12.1251,-12.0387,-11.9466,-11.843,-11.7608,-11.6911,-11.6157,-11.5161,-11.4612,-11.4007,-11.3083,-11.198,-11.0982,-10.9831,-10.8591,-10.7011,-10.5032,-10.3299,-10.1603,-10.0096,-9.8808,-9.7362,-9.6183,-9.4754,-9.3093,-13.3789,-13.3789,-13.3789,-13.3789,-13.3789,-13.3711,-13.3639,-13.3619,-13.3512,-13.3444,-13.3275,-13.3067,-13.2884,-13.2714,-13.249,-13.2371,-13.2246,-13.2064,-13.1925,-13.1867,-13.1779,-13.173,-13.1679,-13.1679,-13.1679,-13.1679,-13.1679,-13.1679,-13.1679,-13.1679,-13.1679,-13.1679,-13.1679,-13.1679,-13.1679,-13.1679,-13.1679,-13.1679,-13.1679,-13.1679,-13.1679,-13.1679,-13.1679,-13.1679,-13.1679,-13.1679,-13.1679,-13.1679,-13.1679,-13.1679,-13.1679,-13.1679,-13.1679,-13.1679,-13.1679,-13.1679,-13.1679,-13.1524,-13.1348,-13.1292,-13.0909,-13.0414,-13.0218,-12.9826,-12.9365,-12.8739,-12.8317,-12.7732,-12.7023,-12.6689,-12.6294,-12.6041,-12.5684,-12.5684,-12.5684,-12.5684,-12.5684,-12.5684,-12.5684,-12.5684,-12.5684,-12.5684,-12.5583,-12.5382,-12.497,-12.4656,-12.412,-12.3421,-12.2852,-12.2151,-12.1164,-12.0262,-11.9407,-11.8499,-11.7676,-11.68,-11.593,-11.4896,-11.404,-11.3393,-11.2456,-11.1499,-11.0359,-10.933,-10.8079,-10.6455,-10.4157,-10.2398,-10.0646,-9.9258,-9.7988,-9.656,-9.5164,-9.3899,-9.2463,-13.3789,-13.3789,-13.3789,-13.3789,-13.3789,-13.3734,-13.3665,-13.358,-13.3581,-13.35,-13.3343,-13.315,-13.3008,-13.2923,-13.2642,-13.2489,-13.2368,-13.2242,-13.2057,-13.1963,-13.1867,-13.1818,-13.173,-13.1679,-13.1679,-13.1679,-13.1679,-13.1679,-13.1679,-13.1679,-13.1679,-13.1679,-13.1679,-13.1679,-13.1679,-13.1679,-13.1679,-13.1679,-13.1679,-13.1679,-13.1679,-13.1679,-13.1679,-13.1679,-13.1679,-13.1679,-13.1679,-13.1679,-13.1679,-13.1679,-13.1679,-13.1679,-13.1679,-13.1679,-13.1679,-13.1679,-13.1679,-13.1577,-13.1348,-13.1292,-13.0968,-13.0414,-13.0218,-12.9758,-12.9256,-12.8777,-12.8324,-12.7746,-12.7041,-12.6578,-12.6257,-12.6041,-12.5783,-12.5684,-12.5684,-12.5684,-12.5684,-12.5684,-12.5684,-12.5684,-12.5684,-12.5684,-12.5583,-12.528,-12.4866,-12.455,-12.4083,-12.3308,-12.2621,-12.1912,-12.1041,-12.0172,-11.9243,-11.843,-11.7292,-11.644,-11.5647,-11.4813,-11.3801,-11.2927,-11.182,-11.0851,-10.9863,-10.8389,-10.6854,-10.515,-10.3114,-10.1413,-9.9998,-9.8499,-9.7362,-9.5749,-9.4341,-9.3093,-9.1829,-13.3789,-13.3789,-13.3789,-13.3789,-13.3789,-13.3747,-13.369,-13.3657,-13.3596,-13.3566,-13.3444,-13.3298,-13.315,-13.2978,-13.2857,-13.268,-13.2487,-13.2366,-13.2237,-13.2103,-13.1972,-13.1915,-13.1779,-13.173,-13.173,-13.173,-13.1679,-13.1679,-13.1679,-13.1679,-13.1679,-13.1679,-13.1679,-13.1679,-13.1679,-13.1679,-13.1679,-13.1679,-13.1679,-13.1679,-13.1679,-13.1679,-13.1679,-13.1679,-13.1679,-13.1679,-13.1679,-13.1679,-13.1679,-13.1679,-13.1679,-13.1679,-13.1679,-13.1679,-13.1679,-13.1679,-13.1679,-13.1524,-13.1348,-13.1292,-13.0909,-13.0478,-13.0084,-12.9695,-12.9225,-12.8699,-12.8317,-12.7806,-12.7022,-12.6336,-12.622,-12.6041,-12.5845,-12.5684,-12.5684,-12.5684,-12.5684,-12.5684,-12.5684,-12.5684,-12.5684,-12.5684,-12.5483,-12.5177,-12.4761,-12.455,-12.3974,-12.3195,-12.2504,-12.1792,-12.0918,-11.9954,-11.9183,-11.8226,-11.7224,-11.6124,-11.5247,-11.4326,-11.3304,-11.2456,-11.1338,-11.0162,-10.8824,-10.7233,-10.5407,-10.3761,-10.2339,-10.0805,-9.9359,-9.7933,-9.656,-9.5137,-9.3719,-9.2463,-9.119,-13.3789,-13.3789,-13.3789,-13.3789,-13.3789,-13.375,-13.3708,-13.369,-13.3648,-13.3583,-13.3518,-13.3405,-13.3251,-13.3095,-13.3017,-13.2823,-13.2643,-13.2528,-13.2368,-13.2319,-13.2154,-13.2064,-13.1963,-13.1915,-13.1779,-13.1768,-13.1718,-13.1679,-13.1679,-13.1679,-13.1679,-13.1679,-13.1679,-13.1679,-13.1679,-13.1679,-13.1679,-13.1679,-13.1679,-13.1679,-13.1679,-13.1679,-13.1679,-13.1679,-13.1679,-13.1679,-13.1679,-13.1679,-13.1679,-13.1679,-13.1679,-13.1679,-13.1679,-13.1679,-13.1679,-13.1679,-13.1679,-13.1524,-13.1402,-13.1292,-13.0909,-13.0478,-13.0046,-12.9701,-12.9191,-12.8625,-12.8219,-12.7769,-12.7041,-12.6541,-12.6257,-12.5944,-12.5783,-12.5684,-12.5684,-12.5684,-12.5684,-12.5684,-12.5684,-12.5684,-12.5684,-12.5684,-12.5583,-12.528,-12.4903,-12.4656,-12.4011,-12.3081,-12.2387,-12.1671,-12.0829,-11.977,-11.8843,-11.7983,-11.698,-11.5921,-11.4997,-11.3987,-11.296,-11.198,-11.1014,-10.9497,-10.7767,-10.6154,-10.4545,-10.3028,-10.1645,-10.0222,-9.8846,-9.7245,-9.5952,-9.4314,-9.3066,-9.1829,-9.0548,-13.3789,-13.3789,-13.3789,-13.3789,-13.3789,-13.3789,-13.3747,-13.369,-13.3687,-13.3647,-13.3542,-13.3443,-13.3364,-13.3275,-13.3095,-13.2955,-13.289,-13.2678,-13.2528,-13.245,-13.2327,-13.2198,-13.2018,-13.201,-13.1915,-13.1867,-13.173,-13.1679,-13.1679,-13.1679,-13.1679,-13.1679,-13.1679,-13.1679,-13.1679,-13.1679,-13.1679,-13.1679,-13.1679,-13.1679,-13.1679,-13.1679,-13.1679,-13.1679,-13.1679,-13.1679,-13.1679,-13.1679,-13.1679,-13.1679,-13.1679,-13.1679,-13.1679,-13.1679,-13.1679,-13.1679,-13.1679,-13.1563,-13.1402,-13.1236,-13.0909,-13.0376,-13.0016,-12.9596,-12.9153,-12.8551,-12.8043,-12.7684,-12.719,-12.6689,-12.6294,-12.5944,-12.5684,-12.5684,-12.5684,-12.5684,-12.5684,-12.5684,-12.5684,-12.5684,-12.5684,-12.5684,-12.5583,-12.5382,-12.5007,-12.4443,-12.368,-12.2888,-12.2115,-12.1393,-12.0559,-11.9547,-11.8398,-11.7367,-11.66,-11.5593,-11.4611,-11.3526,-11.2489,-11.1499,-11.0524,-10.8484,-10.6548,-10.5119,-10.3579,-10.2316,-10.0956,-9.9657,-9.8133,-9.6672,-9.5164,-9.3719,-9.2436,-9.0977,-8.9903,-13.3789,-13.3789,-13.3789,-13.3789,-13.3789,-13.3789,-13.3748,-13.3703,-13.3696,-13.3697,-13.3635,-13.3527,-13.3461,-13.3405,-13.3227,-13.3123,-13.3067,-13.2877,-13.2745,-13.2603,-13.2489,-13.2368,-13.2242,-13.2148,-13.201,-13.1915,-13.1779,-13.1679,-13.1679,-13.1679,-13.1679,-13.1679,-13.1679,-13.1679,-13.1679,-13.1679,-13.1679,-13.1679,-13.1679,-13.1679,-13.1679,-13.1679,-13.1679,-13.1679,-13.1679,-13.1679,-13.1679,-13.1679,-13.1679,-13.1679,-13.1679,-13.1679,-13.1679,-13.1679,-13.1679,-13.1679,-13.1628,-13.1615,-13.1402,-13.1236,-13.0968,-13.0414,-12.991,-12.9596,-12.9192,-12.8586,-12.8106,-12.7657,-12.6949,-12.6389,-12.6294,-12.6041,-12.5783,-12.5684,-12.5684,-12.5684,-12.5684,-12.5684,-12.5684,-12.5684,-12.5684,-12.5583,-12.5483,-12.5177,-12.4866,-12.4336,-12.3569,-12.2773,-12.1996,-12.1024,-12.0178,-11.9226,-11.8107,-11.7266,-11.6526,-11.533,-11.4111,-11.31,-11.2013,-11.0492,-10.9162,-10.7279,-10.5483,-10.4278,-10.2997,-10.1703,-10.0235,-9.8841,-9.7475,-9.6093,-9.4575,-9.3093,-9.1616,-9.0334,-8.947,-13.3789,-13.3789,-13.3789,-13.3789,-13.3789,-13.3789,-13.3789,-13.3711,-13.3679,-13.3678,-13.3707,-13.3635,-13.3527,-13.3461,-13.3385,-13.3282,-13.3188,-13.3056,-13.2939,-13.2812,-13.2714,-13.2567,-13.2409,-13.2323,-13.2148,-13.1954,-13.1768,-13.1718,-13.1679,-13.1679,-13.1679,-13.1679,-13.1679,-13.1679,-13.1679,-13.1679,-13.1679,-13.1679,-13.1679,-13.1679,-13.1679,-13.1679,-13.1679,-13.1679,-13.1679,-13.1679,-13.1679,-13.1679,-13.1679,-13.1679,-13.1679,-13.1679,-13.1679,-13.1679,-13.1679,-13.1679,-13.1679,-13.1524,-13.1402,-13.1292,-13.0849,-13.0414,-12.9978,-12.9559,-12.9079,-12.8615,-12.8121,-12.7597,-12.6893,-12.6389,-12.6198,-12.6041,-12.5845,-12.5684,-12.5684,-12.5684,-12.5684,-12.5684,-12.5684,-12.5684,-12.5684,-12.5583,-12.528,-12.5074,-12.4656,-12.412,-12.3421,-12.2621,-12.1757,-12.0775,-11.9921,-11.883,-11.7745,-11.6956,-11.6198,-11.5131,-11.3843,-11.2593,-11.1338,-10.9664,-10.7971,-10.6226,-10.4763,-10.3393,-10.2129,-10.0791,-9.9416,-9.8075,-9.6752,-9.5508,-9.3954,-9.2463,-9.0977,-8.9686,-8.8818,-13.3789,-13.3789,-13.3789,-13.3789,-13.3789,-13.3789,-13.3789,-13.3789,-13.3711,-13.369,-13.3687,-13.3668,-13.3608,-13.3544,-13.3479,-13.3424,-13.3346,-13.3275,-13.3123,-13.2947,-13.2884,-13.2749,-13.2567,-13.2409,-13.2148,-13.2002,-13.1856,-13.1756,-13.1718,-13.1679,-13.1679,-13.1679,-13.1679,-13.1679,-13.1679,-13.1679,-13.1679,-13.1679,-13.1679,-13.1679,-13.1679,-13.1679,-13.1679,-13.1679,-13.1679,-13.1679,-13.1679,-13.1679,-13.1679,-13.1679,-13.1679,-13.1679,-13.1679,-13.1679,-13.1679,-13.1679,-13.1679,-13.1563,-13.1402,-13.1292,-13.0909,-13.0349,-12.9948,-12.9562,-12.9079,-12.839,-12.7972,-12.7759,-12.7059,-12.6521,-12.6294,-12.5944,-12.5684,-12.5684,-12.5684,-12.5684,-12.5684,-12.5684,-12.5684,-12.5684,-12.5684,-12.5483,-12.528,-12.497,-12.455,-12.3974,-12.3195,-12.2468,-12.1671,-12.0524,-11.9532,-11.8494,-11.744,-11.6497,-11.547,-11.4726,-11.3469,-11.218,-11.0655,-10.8824,-10.7105,-10.5662,-10.4187,-10.2868,-10.1437,-10.0118,-9.8639,-9.7298,-9.5964,-9.4507,-9.312,-9.1829,-9.0334,-8.9253,-8.8162]}]]